<?xml version="1.0" encoding="UTF-8" standalone="no" ?>
<gpx xmlns="http://www.topografix.com/GPX/1/1" xmlns:xsi="http://www.w3.org/2001/XMLSchema-instance" xsi:schemaLocation="http://www.topografix.com/GPX/1/1 http://www.topografix.com/GPX/1/1/gpx.xsd" version="1.1" creator="VisuGPX - https://www.visugpx.com">
  <metadata>
    <name>Genas vers Hyères</name>
  </metadata>
  <trk>
    <name><![CDATA[à Colombier-Saugnieu]]></name>
    <trkseg>
      <trkpt lat="45.72131" lon="4.99939">
        <ele>217.371523</ele>
        <time>2021-06-26T17:20:45.839Z</time>
      </trkpt>
      <trkpt lat="45.72175" lon="4.99977">
        <ele>217.371523</ele>
        <time>2021-06-26T17:20:54.216Z</time>
      </trkpt>
      <trkpt lat="45.7218" lon="4.99981">
        <ele>217.371523</ele>
        <time>2021-06-26T17:20:55.206Z</time>
      </trkpt>
      <trkpt lat="45.72188" lon="4.99986">
        <ele>217.371523</ele>
        <time>2021-06-26T17:20:56.563Z</time>
      </trkpt>
      <trkpt lat="45.72236" lon="5.00019">
        <ele>217.677724</ele>
        <time>2021-06-26T17:21:05.866Z</time>
      </trkpt>
      <trkpt lat="45.72254" lon="5.00032">
        <ele>217.886311</ele>
        <time>2021-06-26T17:21:09.125Z</time>
      </trkpt>
      <trkpt lat="45.72263" lon="5.00038">
        <ele>217.990137</ele>
        <time>2021-06-26T17:21:11.104Z</time>
      </trkpt>
      <trkpt lat="45.72423" lon="5.00137">
        <ele>220.503652</ele>
        <time>2021-06-26T17:21:45.624Z</time>
      </trkpt>
      <trkpt lat="45.72428" lon="5.00134">
        <ele>220.635503</ele>
        <time>2021-06-26T17:21:47.089Z</time>
      </trkpt>
      <trkpt lat="45.72434" lon="5.00138">
        <ele>220.782691</ele>
        <time>2021-06-26T17:21:48.719Z</time>
      </trkpt>
      <trkpt lat="45.72455" lon="5.0015">
        <ele>221.298349</ele>
        <time>2021-06-26T17:21:53.932Z</time>
      </trkpt>
      <trkpt lat="45.72472" lon="5.00163">
        <ele>221.749204</ele>
        <time>2021-06-26T17:21:58.826Z</time>
      </trkpt>
      <trkpt lat="45.72484" lon="5.00172">
        <ele>222.06462</ele>
        <time>2021-06-26T17:22:02.106Z</time>
      </trkpt>
      <trkpt lat="45.72485" lon="5.00173">
        <ele>222.082063</ele>
        <time>2021-06-26T17:22:02.390Z</time>
      </trkpt>
      <trkpt lat="45.72489" lon="5.00176">
        <ele>222.200418</ele>
        <time>2021-06-26T17:22:03.557Z</time>
      </trkpt>
      <trkpt lat="45.72497" lon="5.00182">
        <ele>222.397219</ele>
        <time>2021-06-26T17:22:05.931Z</time>
      </trkpt>
      <trkpt lat="45.72507" lon="5.0019">
        <ele>222.659503</ele>
        <time>2021-06-26T17:22:08.752Z</time>
      </trkpt>
      <trkpt lat="45.72518" lon="5.00199">
        <ele>222.974805</ele>
        <time>2021-06-26T17:22:12.196Z</time>
      </trkpt>
      <trkpt lat="45.72524" lon="5.00203">
        <ele>223.108474</ele>
        <time>2021-06-26T17:22:13.609Z</time>
      </trkpt>
      <trkpt lat="45.72525" lon="5.00203">
        <ele>223.134234</ele>
        <time>2021-06-26T17:22:14.078Z</time>
      </trkpt>
      <trkpt lat="45.72563" lon="5.0023">
        <ele>224.318002</ele>
        <time>2021-06-26T17:22:26.527Z</time>
      </trkpt>
      <trkpt lat="45.72589" lon="5.00251">
        <ele>225.232284</ele>
        <time>2021-06-26T17:22:35.418Z</time>
      </trkpt>
      <trkpt lat="45.72602" lon="5.00269">
        <ele>225.788986</ele>
        <time>2021-06-26T17:22:40.320Z</time>
      </trkpt>
      <trkpt lat="45.72619" lon="5.00308">
        <ele>226.756509</ele>
        <time>2021-06-26T17:22:49.933Z</time>
      </trkpt>
      <trkpt lat="45.7263" lon="5.00364">
        <ele>227.993175</ele>
        <time>2021-06-26T17:23:00.476Z</time>
      </trkpt>
      <trkpt lat="45.72634" lon="5.00375">
        <ele>228.263164</ele>
        <time>2021-06-26T17:23:03.268Z</time>
      </trkpt>
      <trkpt lat="45.72643" lon="5.00388">
        <ele>228.633079</ele>
        <time>2021-06-26T17:23:06.109Z</time>
      </trkpt>
      <trkpt lat="45.72676" lon="5.00423">
        <ele>229.416909</ele>
        <time>2021-06-26T17:23:15.129Z</time>
      </trkpt>
      <trkpt lat="45.72703" lon="5.0046">
        <ele>230.0042</ele>
        <time>2021-06-26T17:23:23.248Z</time>
      </trkpt>
      <trkpt lat="45.72713" lon="5.00475">
        <ele>230.225765</ele>
        <time>2021-06-26T17:23:26.545Z</time>
      </trkpt>
      <trkpt lat="45.72728" lon="5.00494">
        <ele>230.535798</ele>
        <time>2021-06-26T17:23:30.542Z</time>
      </trkpt>
      <trkpt lat="45.72738" lon="5.00506">
        <ele>230.738679</ele>
        <time>2021-06-26T17:23:33.176Z</time>
      </trkpt>
      <trkpt lat="45.72745" lon="5.00516">
        <ele>230.894399</ele>
        <time>2021-06-26T17:23:35.529Z</time>
      </trkpt>
      <trkpt lat="45.72756" lon="5.00528">
        <ele>231.110549</ele>
        <time>2021-06-26T17:23:38.064Z</time>
      </trkpt>
      <trkpt lat="45.72767" lon="5.00543">
        <ele>231.347793</ele>
        <time>2021-06-26T17:23:40.595Z</time>
      </trkpt>
      <trkpt lat="45.7278" lon="5.00558">
        <ele>231.613489</ele>
        <time>2021-06-26T17:23:43.641Z</time>
      </trkpt>
      <trkpt lat="45.72798" lon="5.00579">
        <ele>232.076634</ele>
        <time>2021-06-26T17:23:47.793Z</time>
      </trkpt>
      <trkpt lat="45.72809" lon="5.00596">
        <ele>232.448925</ele>
        <time>2021-06-26T17:23:51.109Z</time>
      </trkpt>
      <trkpt lat="45.72811" lon="5.006">
        <ele>232.532384</ele>
        <time>2021-06-26T17:23:51.800Z</time>
      </trkpt>
      <trkpt lat="45.72814" lon="5.00603">
        <ele>232.608598</ele>
        <time>2021-06-26T17:23:52.499Z</time>
      </trkpt>
      <trkpt lat="45.72814" lon="5.00608">
        <ele>232.694191</ele>
        <time>2021-06-26T17:23:53.236Z</time>
      </trkpt>
      <trkpt lat="45.72816" lon="5.00613">
        <ele>232.779798</ele>
        <time>2021-06-26T17:23:53.962Z</time>
      </trkpt>
      <trkpt lat="45.72819" lon="5.00616">
        <ele>232.864253</ele>
        <time>2021-06-26T17:23:54.662Z</time>
      </trkpt>
      <trkpt lat="45.72822" lon="5.00617">
        <ele>232.938559</ele>
        <time>2021-06-26T17:23:55.276Z</time>
      </trkpt>
      <trkpt lat="45.72828" lon="5.00624">
        <ele>233.092334</ele>
        <time>2021-06-26T17:23:56.645Z</time>
      </trkpt>
      <trkpt lat="45.72841" lon="5.00639">
        <ele>233.483969</ele>
        <time>2021-06-26T17:24:00.291Z</time>
      </trkpt>
      <trkpt lat="45.72872" lon="5.00686">
        <ele>234.50627</ele>
        <time>2021-06-26T17:24:10.913Z</time>
      </trkpt>
      <trkpt lat="45.72918" lon="5.00752">
        <ele>236.113476</ele>
        <time>2021-06-26T17:24:29.752Z</time>
      </trkpt>
      <trkpt lat="45.72987" lon="5.00793">
        <ele>239.024145</ele>
        <time>2021-06-26T17:24:53.792Z</time>
      </trkpt>
      <trkpt lat="45.72995" lon="5.00798">
        <ele>239.355451</ele>
        <time>2021-06-26T17:24:57.127Z</time>
      </trkpt>
      <trkpt lat="45.73008" lon="5.00805">
        <ele>239.917777</ele>
        <time>2021-06-26T17:25:02.305Z</time>
      </trkpt>
      <trkpt lat="45.7305" lon="5.00824">
        <ele>241.622798</ele>
        <time>2021-06-26T17:25:15.551Z</time>
      </trkpt>
      <trkpt lat="45.73092" lon="5.00842">
        <ele>242.827662</ele>
        <time>2021-06-26T17:25:27.476Z</time>
      </trkpt>
      <trkpt lat="45.73103" lon="5.00848">
        <ele>242.847936</ele>
        <time>2021-06-26T17:25:31.032Z</time>
      </trkpt>
      <trkpt lat="45.73145" lon="5.00869">
        <ele>242.921416</ele>
        <time>2021-06-26T17:25:40.726Z</time>
      </trkpt>
      <trkpt lat="45.73172" lon="5.00884">
        <ele>242.970013</ele>
        <time>2021-06-26T17:25:44.758Z</time>
      </trkpt>
      <trkpt lat="45.73234" lon="5.00918">
        <ele>243.080284</ele>
        <time>2021-06-26T17:25:52.626Z</time>
      </trkpt>
      <trkpt lat="45.73237" lon="5.0092">
        <ele>243.086404</ele>
        <time>2021-06-26T17:25:53.008Z</time>
      </trkpt>
      <trkpt lat="45.73247" lon="5.00925">
        <ele>243.102985</ele>
        <time>2021-06-26T17:25:54.105Z</time>
      </trkpt>
      <trkpt lat="45.73256" lon="5.0093">
        <ele>242.845569</ele>
        <time>2021-06-26T17:25:55.187Z</time>
      </trkpt>
      <trkpt lat="45.7326" lon="5.00932">
        <ele>242.742575</ele>
        <time>2021-06-26T17:25:55.552Z</time>
      </trkpt>
      <trkpt lat="45.7327" lon="5.00939">
        <ele>242.446065</ele>
        <time>2021-06-26T17:25:56.641Z</time>
      </trkpt>
      <trkpt lat="45.73299" lon="5.00962">
        <ele>241.540304</ele>
        <time>2021-06-26T17:26:00.048Z</time>
      </trkpt>
      <trkpt lat="45.7332" lon="5.00984">
        <ele>240.828673</ele>
        <time>2021-06-26T17:26:02.741Z</time>
      </trkpt>
      <trkpt lat="45.73345" lon="5.01011">
        <ele>239.983085</ele>
        <time>2021-06-26T17:26:05.962Z</time>
      </trkpt>
      <trkpt lat="45.7335" lon="5.01018">
        <ele>239.783836</ele>
        <time>2021-06-26T17:26:06.683Z</time>
      </trkpt>
      <trkpt lat="45.73363" lon="5.0103">
        <ele>239.38745</ele>
        <time>2021-06-26T17:26:08.162Z</time>
      </trkpt>
      <trkpt lat="45.73393" lon="5.01054">
        <ele>238.429906</ele>
        <time>2021-06-26T17:26:11.841Z</time>
      </trkpt>
      <trkpt lat="45.73405" lon="5.01062">
        <ele>238.085321</ele>
        <time>2021-06-26T17:26:13.279Z</time>
      </trkpt>
      <trkpt lat="45.73445" lon="5.01089">
        <ele>236.898348</ele>
        <time>2021-06-26T17:26:18.002Z</time>
      </trkpt>
      <trkpt lat="45.73487" lon="5.01115">
        <ele>235.661475</ele>
        <time>2021-06-26T17:26:22.894Z</time>
      </trkpt>
      <trkpt lat="45.73491" lon="5.01117">
        <ele>235.553289</ele>
        <time>2021-06-26T17:26:23.309Z</time>
      </trkpt>
      <trkpt lat="45.73499" lon="5.01122">
        <ele>235.33125</ele>
        <time>2021-06-26T17:26:24.212Z</time>
      </trkpt>
      <trkpt lat="45.73506" lon="5.01126">
        <ele>235.123546</ele>
        <time>2021-06-26T17:26:25.075Z</time>
      </trkpt>
      <trkpt lat="45.73509" lon="5.01127">
        <ele>235.026319</ele>
        <time>2021-06-26T17:26:25.449Z</time>
      </trkpt>
      <trkpt lat="45.73523" lon="5.01135">
        <ele>234.622022</ele>
        <time>2021-06-26T17:26:26.994Z</time>
      </trkpt>
      <trkpt lat="45.73571" lon="5.01173">
        <ele>233.092418</ele>
        <time>2021-06-26T17:26:32.568Z</time>
      </trkpt>
      <trkpt lat="45.7358" lon="5.01181">
        <ele>232.68935</ele>
        <time>2021-06-26T17:26:33.658Z</time>
      </trkpt>
      <trkpt lat="45.7359" lon="5.0119">
        <ele>232.253852</ele>
        <time>2021-06-26T17:26:34.843Z</time>
      </trkpt>
      <trkpt lat="45.73609" lon="5.01206">
        <ele>231.435627</ele>
        <time>2021-06-26T17:26:37.024Z</time>
      </trkpt>
      <trkpt lat="45.73643" lon="5.01236">
        <ele>229.982214</ele>
        <time>2021-06-26T17:26:40.905Z</time>
      </trkpt>
      <trkpt lat="45.73667" lon="5.0126">
        <ele>228.890373</ele>
        <time>2021-06-26T17:26:43.795Z</time>
      </trkpt>
      <trkpt lat="45.73711" lon="5.01306">
        <ele>226.914331</ele>
        <time>2021-06-26T17:26:49.090Z</time>
      </trkpt>
      <trkpt lat="45.73717" lon="5.01315">
        <ele>226.655508</ele>
        <time>2021-06-26T17:26:49.904Z</time>
      </trkpt>
      <trkpt lat="45.73718" lon="5.01319">
        <ele>226.554573</ele>
        <time>2021-06-26T17:26:50.293Z</time>
      </trkpt>
      <trkpt lat="45.73719" lon="5.01322">
        <ele>226.507929</ele>
        <time>2021-06-26T17:26:50.463Z</time>
      </trkpt>
      <trkpt lat="45.73725" lon="5.01334">
        <ele>226.227414</ele>
        <time>2021-06-26T17:26:51.578Z</time>
      </trkpt>
      <trkpt lat="45.73727" lon="5.01337">
        <ele>226.161263</ele>
        <time>2021-06-26T17:26:51.829Z</time>
      </trkpt>
      <trkpt lat="45.73725" lon="5.01343">
        <ele>226.039079</ele>
        <time>2021-06-26T17:26:52.304Z</time>
      </trkpt>
      <trkpt lat="45.73727" lon="5.01358">
        <ele>225.773575</ele>
        <time>2021-06-26T17:26:53.315Z</time>
      </trkpt>
      <trkpt lat="45.7373" lon="5.01361">
        <ele>225.672502</ele>
        <time>2021-06-26T17:26:53.698Z</time>
      </trkpt>
      <trkpt lat="45.73731" lon="5.01389">
        <ele>225.17597</ele>
        <time>2021-06-26T17:26:55.671Z</time>
      </trkpt>
      <trkpt lat="45.73733" lon="5.01407">
        <ele>224.837178</ele>
        <time>2021-06-26T17:26:57.000Z</time>
      </trkpt>
      <trkpt lat="45.73734" lon="5.01413">
        <ele>224.718685</ele>
        <time>2021-06-26T17:26:57.451Z</time>
      </trkpt>
      <trkpt lat="45.73741" lon="5.01478">
        <ele>223.518069</ele>
        <time>2021-06-26T17:27:02.345Z</time>
      </trkpt>
      <trkpt lat="45.73748" lon="5.01529">
        <ele>222.570426</ele>
        <time>2021-06-26T17:27:06.299Z</time>
      </trkpt>
      <trkpt lat="45.73749" lon="5.01536">
        <ele>222.443829</ele>
        <time>2021-06-26T17:27:06.857Z</time>
      </trkpt>
      <trkpt lat="45.73751" lon="5.01543">
        <ele>222.29231</ele>
        <time>2021-06-26T17:27:07.496Z</time>
      </trkpt>
      <trkpt lat="45.73753" lon="5.0155">
        <ele>222.160993</ele>
        <time>2021-06-26T17:27:08.081Z</time>
      </trkpt>
      <trkpt lat="45.73755" lon="5.01553">
        <ele>222.086853</ele>
        <time>2021-06-26T17:27:08.417Z</time>
      </trkpt>
      <trkpt lat="45.73759" lon="5.01565">
        <ele>221.988455</ele>
        <time>2021-06-26T17:27:09.460Z</time>
      </trkpt>
      <trkpt lat="45.73773" lon="5.01591">
        <ele>221.765308</ele>
        <time>2021-06-26T17:27:12.168Z</time>
      </trkpt>
      <trkpt lat="45.73778" lon="5.01599">
        <ele>221.69322</ele>
        <time>2021-06-26T17:27:13.011Z</time>
      </trkpt>
      <trkpt lat="45.73779" lon="5.016">
        <ele>221.677983</ele>
        <time>2021-06-26T17:27:13.191Z</time>
      </trkpt>
      <trkpt lat="45.73788" lon="5.01614">
        <ele>221.554268</ele>
        <time>2021-06-26T17:27:14.717Z</time>
      </trkpt>
      <trkpt lat="45.73798" lon="5.01628">
        <ele>221.416264</ele>
        <time>2021-06-26T17:27:16.483Z</time>
      </trkpt>
      <trkpt lat="45.73799" lon="5.0163">
        <ele>221.401221</ele>
        <time>2021-06-26T17:27:16.669Z</time>
      </trkpt>
      <trkpt lat="45.73804" lon="5.01636">
        <ele>221.334913</ele>
        <time>2021-06-26T17:27:17.480Z</time>
      </trkpt>
      <trkpt lat="45.73814" lon="5.0165">
        <ele>221.200424</ele>
        <time>2021-06-26T17:27:19.202Z</time>
      </trkpt>
      <trkpt lat="45.73824" lon="5.01664">
        <ele>221.065466</ele>
        <time>2021-06-26T17:27:21.002Z</time>
      </trkpt>
      <trkpt lat="45.73845" lon="5.01696">
        <ele>220.770955</ele>
        <time>2021-06-26T17:27:24.899Z</time>
      </trkpt>
      <trkpt lat="45.73854" lon="5.01708">
        <ele>220.648378</ele>
        <time>2021-06-26T17:27:26.555Z</time>
      </trkpt>
      <trkpt lat="45.73873" lon="5.01734">
        <ele>220.394163</ele>
        <time>2021-06-26T17:27:30.098Z</time>
      </trkpt>
      <trkpt lat="45.73888" lon="5.01763">
        <ele>220.234677</ele>
        <time>2021-06-26T17:27:33.474Z</time>
      </trkpt>
      <trkpt lat="45.73906" lon="5.01791">
        <ele>220.10377</ele>
        <time>2021-06-26T17:27:37.003Z</time>
      </trkpt>
      <trkpt lat="45.73923" lon="5.01817">
        <ele>219.982714</ele>
        <time>2021-06-26T17:27:40.300Z</time>
      </trkpt>
      <trkpt lat="45.73957" lon="5.01872">
        <ele>219.73032</ele>
        <time>2021-06-26T17:27:47.269Z</time>
      </trkpt>
      <trkpt lat="45.73968" lon="5.01887">
        <ele>219.654375</ele>
        <time>2021-06-26T17:27:49.334Z</time>
      </trkpt>
      <trkpt lat="45.73972" lon="5.01892">
        <ele>219.627414</ele>
        <time>2021-06-26T17:27:50.042Z</time>
      </trkpt>
      <trkpt lat="45.73982" lon="5.01903">
        <ele>219.56541</ele>
        <time>2021-06-26T17:27:51.774Z</time>
      </trkpt>
      <trkpt lat="45.73999" lon="5.01922">
        <ele>219.45972</ele>
        <time>2021-06-26T17:27:54.511Z</time>
      </trkpt>
      <trkpt lat="45.74011" lon="5.01936">
        <ele>219.348735</ele>
        <time>2021-06-26T17:27:56.596Z</time>
      </trkpt>
      <trkpt lat="45.7402" lon="5.01947">
        <ele>219.25717</ele>
        <time>2021-06-26T17:27:58.056Z</time>
      </trkpt>
      <trkpt lat="45.74032" lon="5.0196">
        <ele>219.140799</ele>
        <time>2021-06-26T17:27:59.931Z</time>
      </trkpt>
      <trkpt lat="45.74056" lon="5.01992">
        <ele>218.888744</ele>
        <time>2021-06-26T17:28:04.025Z</time>
      </trkpt>
      <trkpt lat="45.74064" lon="5.02004">
        <ele>218.801021</ele>
        <time>2021-06-26T17:28:05.530Z</time>
      </trkpt>
      <trkpt lat="45.74066" lon="5.02007">
        <ele>218.779731</ele>
        <time>2021-06-26T17:28:05.888Z</time>
      </trkpt>
      <trkpt lat="45.74067" lon="5.0201">
        <ele>218.761077</ele>
        <time>2021-06-26T17:28:06.184Z</time>
      </trkpt>
      <trkpt lat="45.74068" lon="5.02015">
        <ele>218.732569</ele>
        <time>2021-06-26T17:28:06.650Z</time>
      </trkpt>
      <trkpt lat="45.74071" lon="5.02019">
        <ele>218.703358</ele>
        <time>2021-06-26T17:28:07.111Z</time>
      </trkpt>
      <trkpt lat="45.74074" lon="5.02021">
        <ele>218.674993</ele>
        <time>2021-06-26T17:28:07.581Z</time>
      </trkpt>
      <trkpt lat="45.74079" lon="5.02028">
        <ele>218.624357</ele>
        <time>2021-06-26T17:28:08.375Z</time>
      </trkpt>
      <trkpt lat="45.74081" lon="5.02032">
        <ele>218.593024</ele>
        <time>2021-06-26T17:28:08.904Z</time>
      </trkpt>
      <trkpt lat="45.74091" lon="5.0205">
        <ele>218.469746</ele>
        <time>2021-06-26T17:28:10.977Z</time>
      </trkpt>
      <trkpt lat="45.74126" lon="5.02111">
        <ele>218.048542</ele>
        <time>2021-06-26T17:28:17.778Z</time>
      </trkpt>
      <trkpt lat="45.74145" lon="5.02144">
        <ele>217.895196</ele>
        <time>2021-06-26T17:28:21.424Z</time>
      </trkpt>
      <trkpt lat="45.74155" lon="5.02162">
        <ele>217.809449</ele>
        <time>2021-06-26T17:28:23.555Z</time>
      </trkpt>
      <trkpt lat="45.74161" lon="5.02173">
        <ele>217.758478</ele>
        <time>2021-06-26T17:28:24.797Z</time>
      </trkpt>
      <trkpt lat="45.742" lon="5.02246">
        <ele>217.427648</ele>
        <time>2021-06-26T17:28:33.164Z</time>
      </trkpt>
      <trkpt lat="45.74203" lon="5.02254">
        <ele>217.39257</ele>
        <time>2021-06-26T17:28:34.082Z</time>
      </trkpt>
      <trkpt lat="45.74209" lon="5.02275">
        <ele>217.312314</ele>
        <time>2021-06-26T17:28:36.221Z</time>
      </trkpt>
      <trkpt lat="45.74211" lon="5.02285">
        <ele>217.272077</ele>
        <time>2021-06-26T17:28:37.417Z</time>
      </trkpt>
      <trkpt lat="45.74212" lon="5.02289">
        <ele>217.255991</ele>
        <time>2021-06-26T17:28:37.863Z</time>
      </trkpt>
      <trkpt lat="45.74209" lon="5.02296">
        <ele>217.229089</ele>
        <time>2021-06-26T17:28:38.611Z</time>
      </trkpt>
      <trkpt lat="45.74208" lon="5.02303">
        <ele>217.201551</ele>
        <time>2021-06-26T17:28:39.375Z</time>
      </trkpt>
      <trkpt lat="45.74209" lon="5.02312">
        <ele>217.171353</ele>
        <time>2021-06-26T17:28:40.210Z</time>
      </trkpt>
      <trkpt lat="45.74211" lon="5.02319">
        <ele>217.141326</ele>
        <time>2021-06-26T17:28:41.035Z</time>
      </trkpt>
      <trkpt lat="45.74215" lon="5.02325">
        <ele>217.114896</ele>
        <time>2021-06-26T17:28:41.910Z</time>
      </trkpt>
      <trkpt lat="45.7423" lon="5.0233">
        <ele>217.094476</ele>
        <time>2021-06-26T17:28:44.189Z</time>
      </trkpt>
      <trkpt lat="45.74235" lon="5.02327">
        <ele>217.087379</ele>
        <time>2021-06-26T17:28:44.980Z</time>
      </trkpt>
      <trkpt lat="45.74245" lon="5.02337">
        <ele>217.072763</ele>
        <time>2021-06-26T17:28:46.602Z</time>
      </trkpt>
      <trkpt lat="45.74259" lon="5.02351">
        <ele>217.050996</ele>
        <time>2021-06-26T17:28:48.986Z</time>
      </trkpt>
      <trkpt lat="45.74268" lon="5.02373">
        <ele>217.028628</ele>
        <time>2021-06-26T17:28:51.466Z</time>
      </trkpt>
      <trkpt lat="45.74286" lon="5.02417">
        <ele>216.983373</ele>
        <time>2021-06-26T17:28:56.466Z</time>
      </trkpt>
      <trkpt lat="45.74291" lon="5.02426">
        <ele>216.973153</ele>
        <time>2021-06-26T17:28:57.661Z</time>
      </trkpt>
      <trkpt lat="45.74288" lon="5.0243">
        <ele>216.968484</ele>
        <time>2021-06-26T17:28:58.159Z</time>
      </trkpt>
      <trkpt lat="45.74288" lon="5.0244">
        <ele>216.959733</ele>
        <time>2021-06-26T17:28:59.112Z</time>
      </trkpt>
      <trkpt lat="45.74328" lon="5.02523">
        <ele>216.878492</ele>
        <time>2021-06-26T17:29:09.643Z</time>
      </trkpt>
      <trkpt lat="45.74477" lon="5.02788">
        <ele>216.575384</ele>
        <time>2021-06-26T17:29:44.357Z</time>
      </trkpt>
      <trkpt lat="45.74492" lon="5.02818">
        <ele>216.508057</ele>
        <time>2021-06-26T17:29:48.009Z</time>
      </trkpt>
      <trkpt lat="45.74568" lon="5.02965">
        <ele>215.986797</ele>
        <time>2021-06-26T17:30:05.135Z</time>
      </trkpt>
      <trkpt lat="45.74631" lon="5.03103">
        <ele>215.203182</ele>
        <time>2021-06-26T17:30:19.745Z</time>
      </trkpt>
      <trkpt lat="45.74769" lon="5.0333">
        <ele>213.770868</ele>
        <time>2021-06-26T17:30:46.549Z</time>
      </trkpt>
      <trkpt lat="45.7479" lon="5.03375">
        <ele>213.612744</ele>
        <time>2021-06-26T17:30:51.500Z</time>
      </trkpt>
      <trkpt lat="45.74852" lon="5.03515">
        <ele>213.123019</ele>
        <time>2021-06-26T17:31:07.169Z</time>
      </trkpt>
      <trkpt lat="45.74895" lon="5.03589">
        <ele>212.854815</ele>
        <time>2021-06-26T17:31:16.498Z</time>
      </trkpt>
      <trkpt lat="45.75124" lon="5.03976">
        <ele>211.412172</ele>
        <time>2021-06-26T17:32:04.264Z</time>
      </trkpt>
      <trkpt lat="45.75213" lon="5.04107">
        <ele>210.900347</ele>
        <time>2021-06-26T17:32:21.510Z</time>
      </trkpt>
      <trkpt lat="45.75278" lon="5.04219">
        <ele>210.647564</ele>
        <time>2021-06-26T17:32:35.486Z</time>
      </trkpt>
      <trkpt lat="45.75353" lon="5.04333">
        <ele>210.484255</ele>
        <time>2021-06-26T17:32:51.095Z</time>
      </trkpt>
      <trkpt lat="45.75409" lon="5.04445">
        <ele>210.636055</ele>
        <time>2021-06-26T17:33:05.940Z</time>
      </trkpt>
      <trkpt lat="45.75433" lon="5.04474">
        <ele>210.685256</ele>
        <time>2021-06-26T17:33:10.949Z</time>
      </trkpt>
      <trkpt lat="45.7544" lon="5.0448">
        <ele>210.699406</ele>
        <time>2021-06-26T17:33:12.442Z</time>
      </trkpt>
      <trkpt lat="45.75461" lon="5.04495">
        <ele>210.746959</ele>
        <time>2021-06-26T17:33:16.174Z</time>
      </trkpt>
      <trkpt lat="45.75501" lon="5.04527">
        <ele>210.989783</ele>
        <time>2021-06-26T17:33:23.803Z</time>
      </trkpt>
      <trkpt lat="45.75537" lon="5.04586">
        <ele>211.272504</ele>
        <time>2021-06-26T17:33:32.825Z</time>
      </trkpt>
      <trkpt lat="45.75553" lon="5.04621">
        <ele>211.423228</ele>
        <time>2021-06-26T17:33:37.856Z</time>
      </trkpt>
      <trkpt lat="45.75558" lon="5.04632">
        <ele>211.471197</ele>
        <time>2021-06-26T17:33:39.429Z</time>
      </trkpt>
      <trkpt lat="45.7559" lon="5.04704">
        <ele>211.81062</ele>
        <time>2021-06-26T17:33:49.726Z</time>
      </trkpt>
      <trkpt lat="45.75614" lon="5.04748">
        <ele>212.072648</ele>
        <time>2021-06-26T17:33:56.768Z</time>
      </trkpt>
      <trkpt lat="45.75626" lon="5.04767">
        <ele>212.191395</ele>
        <time>2021-06-26T17:34:00.058Z</time>
      </trkpt>
      <trkpt lat="45.75651" lon="5.04808">
        <ele>212.442554</ele>
        <time>2021-06-26T17:34:06.690Z</time>
      </trkpt>
      <trkpt lat="45.75658" lon="5.04822">
        <ele>212.525393</ele>
        <time>2021-06-26T17:34:08.739Z</time>
      </trkpt>
      <trkpt lat="45.75659" lon="5.04841">
        <ele>212.611122</ele>
        <time>2021-06-26T17:34:10.868Z</time>
      </trkpt>
      <trkpt lat="45.7566" lon="5.04845">
        <ele>212.632572</ele>
        <time>2021-06-26T17:34:11.642Z</time>
      </trkpt>
      <trkpt lat="45.75661" lon="5.04847">
        <ele>212.643658</ele>
        <time>2021-06-26T17:34:11.947Z</time>
      </trkpt>
      <trkpt lat="45.75666" lon="5.04849">
        <ele>212.676639</ele>
        <time>2021-06-26T17:34:12.828Z</time>
      </trkpt>
      <trkpt lat="45.7567" lon="5.04851">
        <ele>212.70474</ele>
        <time>2021-06-26T17:34:13.569Z</time>
      </trkpt>
      <trkpt lat="45.75673" lon="5.04845">
        <ele>212.742191</ele>
        <time>2021-06-26T17:34:14.487Z</time>
      </trkpt>
      <trkpt lat="45.75683" lon="5.04844">
        <ele>212.808704</ele>
        <time>2021-06-26T17:34:16.087Z</time>
      </trkpt>
      <trkpt lat="45.75687" lon="5.04847">
        <ele>212.833846</ele>
        <time>2021-06-26T17:34:16.729Z</time>
      </trkpt>
      <trkpt lat="45.75702" lon="5.04863">
        <ele>212.9152</ele>
        <time>2021-06-26T17:34:20.310Z</time>
      </trkpt>
      <trkpt lat="45.75766" lon="5.04934">
        <ele>213.206804</ele>
        <time>2021-06-26T17:34:34.061Z</time>
      </trkpt>
      <trkpt lat="45.75816" lon="5.05023">
        <ele>213.494396</ele>
        <time>2021-06-26T17:34:46.581Z</time>
      </trkpt>
      <trkpt lat="45.75886" lon="5.05171">
        <ele>213.315048</ele>
        <time>2021-06-26T17:35:04.264Z</time>
      </trkpt>
      <trkpt lat="45.75889" lon="5.05179">
        <ele>213.304834</ele>
        <time>2021-06-26T17:35:05.142Z</time>
      </trkpt>
      <trkpt lat="45.75891" lon="5.05176">
        <ele>213.300312</ele>
        <time>2021-06-26T17:35:05.524Z</time>
      </trkpt>
      <trkpt lat="45.75893" lon="5.05174">
        <ele>213.297042</ele>
        <time>2021-06-26T17:35:05.799Z</time>
      </trkpt>
      <trkpt lat="45.75895" lon="5.05171">
        <ele>213.292192</ele>
        <time>2021-06-26T17:35:06.225Z</time>
      </trkpt>
      <trkpt lat="45.75902" lon="5.05178">
        <ele>213.27859</ele>
        <time>2021-06-26T17:35:07.340Z</time>
      </trkpt>
      <trkpt lat="45.75937" lon="5.05188">
        <ele>213.221788</ele>
        <time>2021-06-26T17:35:12.227Z</time>
      </trkpt>
      <trkpt lat="45.75946" lon="5.05192">
        <ele>213.222477</ele>
        <time>2021-06-26T17:35:13.639Z</time>
      </trkpt>
      <trkpt lat="45.75953" lon="5.05201">
        <ele>213.225089</ele>
        <time>2021-06-26T17:35:14.897Z</time>
      </trkpt>
      <trkpt lat="45.75962" lon="5.05213">
        <ele>213.228811</ele>
        <time>2021-06-26T17:35:16.707Z</time>
      </trkpt>
      <trkpt lat="45.75972" lon="5.05221">
        <ele>213.232197</ele>
        <time>2021-06-26T17:35:18.333Z</time>
      </trkpt>
      <trkpt lat="45.75985" lon="5.05235">
        <ele>213.237095</ele>
        <time>2021-06-26T17:35:20.741Z</time>
      </trkpt>
      <trkpt lat="45.75988" lon="5.05244">
        <ele>213.23912</ele>
        <time>2021-06-26T17:35:21.775Z</time>
      </trkpt>
      <trkpt lat="45.7599" lon="5.05248">
        <ele>213.240158</ele>
        <time>2021-06-26T17:35:22.244Z</time>
      </trkpt>
      <trkpt lat="45.76004" lon="5.05254">
        <ele>213.244589</ele>
        <time>2021-06-26T17:35:24.470Z</time>
      </trkpt>
      <trkpt lat="45.76009" lon="5.05252">
        <ele>213.246101</ele>
        <time>2021-06-26T17:35:25.210Z</time>
      </trkpt>
      <trkpt lat="45.76017" lon="5.0527">
        <ele>213.250501</ele>
        <time>2021-06-26T17:35:27.428Z</time>
      </trkpt>
      <trkpt lat="45.76023" lon="5.0528">
        <ele>213.253125</ele>
        <time>2021-06-26T17:35:28.740Z</time>
      </trkpt>
      <trkpt lat="45.76036" lon="5.05374">
        <ele>213.273008</ele>
        <time>2021-06-26T17:35:39.048Z</time>
      </trkpt>
      <trkpt lat="45.76066" lon="5.0559">
        <ele>213.76469</ele>
        <time>2021-06-26T17:36:04.996Z</time>
      </trkpt>
      <trkpt lat="45.76068" lon="5.05607">
        <ele>213.802068</ele>
        <time>2021-06-26T17:36:06.942Z</time>
      </trkpt>
      <trkpt lat="45.76071" lon="5.05634">
        <ele>213.833108</ele>
        <time>2021-06-26T17:36:09.748Z</time>
      </trkpt>
      <trkpt lat="45.76073" lon="5.05655">
        <ele>213.763568</ele>
        <time>2021-06-26T17:36:12.023Z</time>
      </trkpt>
      <trkpt lat="45.76076" lon="5.05682">
        <ele>213.680052</ele>
        <time>2021-06-26T17:36:14.579Z</time>
      </trkpt>
      <trkpt lat="45.76076" lon="5.05705">
        <ele>213.605689</ele>
        <time>2021-06-26T17:36:16.794Z</time>
      </trkpt>
      <trkpt lat="45.76067" lon="5.05781">
        <ele>213.363952</ele>
        <time>2021-06-26T17:36:23.658Z</time>
      </trkpt>
      <trkpt lat="45.76062" lon="5.05813">
        <ele>213.258272</ele>
        <time>2021-06-26T17:36:26.679Z</time>
      </trkpt>
      <trkpt lat="45.76032" lon="5.05956">
        <ele>212.84579</ele>
        <time>2021-06-26T17:36:40.266Z</time>
      </trkpt>
      <trkpt lat="45.76003" lon="5.06072">
        <ele>212.546743</ele>
        <time>2021-06-26T17:36:52.034Z</time>
      </trkpt>
      <trkpt lat="45.7599" lon="5.06122">
        <ele>212.416054</ele>
        <time>2021-06-26T17:36:57.289Z</time>
      </trkpt>
      <trkpt lat="45.75973" lon="5.06179">
        <ele>212.223364</ele>
        <time>2021-06-26T17:37:03.784Z</time>
      </trkpt>
      <trkpt lat="45.75967" lon="5.062">
        <ele>212.149261</ele>
        <time>2021-06-26T17:37:06.539Z</time>
      </trkpt>
      <trkpt lat="45.75962" lon="5.06214">
        <ele>212.100463</ele>
        <time>2021-06-26T17:37:07.947Z</time>
      </trkpt>
      <trkpt lat="45.75959" lon="5.06223">
        <ele>212.068569</ele>
        <time>2021-06-26T17:37:08.960Z</time>
      </trkpt>
      <trkpt lat="45.75952" lon="5.06248">
        <ele>211.982339</ele>
        <time>2021-06-26T17:37:11.965Z</time>
      </trkpt>
      <trkpt lat="45.75947" lon="5.06263">
        <ele>211.93144</ele>
        <time>2021-06-26T17:37:13.353Z</time>
      </trkpt>
      <trkpt lat="45.75871" lon="5.06495">
        <ele>210.459739</ele>
        <time>2021-06-26T17:37:35.496Z</time>
      </trkpt>
      <trkpt lat="45.75865" lon="5.06511">
        <ele>210.32785</ele>
        <time>2021-06-26T17:37:36.964Z</time>
      </trkpt>
      <trkpt lat="45.75844" lon="5.06569">
        <ele>209.834603</ele>
        <time>2021-06-26T17:37:42.183Z</time>
      </trkpt>
      <trkpt lat="45.7582" lon="5.06648">
        <ele>209.30123</ele>
        <time>2021-06-26T17:37:49.409Z</time>
      </trkpt>
      <trkpt lat="45.75809" lon="5.06702">
        <ele>208.984085</ele>
        <time>2021-06-26T17:37:54.277Z</time>
      </trkpt>
      <trkpt lat="45.75807" lon="5.0671">
        <ele>208.934114</ele>
        <time>2021-06-26T17:37:54.962Z</time>
      </trkpt>
      <trkpt lat="45.75806" lon="5.06715">
        <ele>208.906885</ele>
        <time>2021-06-26T17:37:55.424Z</time>
      </trkpt>
      <trkpt lat="45.75804" lon="5.06727">
        <ele>208.833171</ele>
        <time>2021-06-26T17:37:56.649Z</time>
      </trkpt>
      <trkpt lat="45.75799" lon="5.06748">
        <ele>208.711113</ele>
        <time>2021-06-26T17:37:58.571Z</time>
      </trkpt>
      <trkpt lat="45.75798" lon="5.06755">
        <ele>208.668647</ele>
        <time>2021-06-26T17:37:59.216Z</time>
      </trkpt>
      <trkpt lat="45.75797" lon="5.06761">
        <ele>208.635</ele>
        <time>2021-06-26T17:37:59.703Z</time>
      </trkpt>
      <trkpt lat="45.75793" lon="5.06776">
        <ele>208.545037</ele>
        <time>2021-06-26T17:38:01.310Z</time>
      </trkpt>
      <trkpt lat="45.7579" lon="5.06798">
        <ele>208.416964</ele>
        <time>2021-06-26T17:38:03.424Z</time>
      </trkpt>
      <trkpt lat="45.75788" lon="5.06817">
        <ele>208.311166</ele>
        <time>2021-06-26T17:38:05.144Z</time>
      </trkpt>
      <trkpt lat="45.75783" lon="5.06858">
        <ele>208.19455</ele>
        <time>2021-06-26T17:38:09.053Z</time>
      </trkpt>
      <trkpt lat="45.75781" lon="5.06875">
        <ele>208.19529</ele>
        <time>2021-06-26T17:38:10.837Z</time>
      </trkpt>
      <trkpt lat="45.75778" lon="5.06902">
        <ele>208.196465</ele>
        <time>2021-06-26T17:38:13.510Z</time>
      </trkpt>
      <trkpt lat="45.75747" lon="5.07059">
        <ele>208.203383</ele>
        <time>2021-06-26T17:38:30.756Z</time>
      </trkpt>
      <trkpt lat="45.75737" lon="5.07101">
        <ele>208.262191</ele>
        <time>2021-06-26T17:38:35.737Z</time>
      </trkpt>
      <trkpt lat="45.7571" lon="5.07211">
        <ele>208.693632</ele>
        <time>2021-06-26T17:38:48.979Z</time>
      </trkpt>
      <trkpt lat="45.7569" lon="5.07291">
        <ele>209.005444</ele>
        <time>2021-06-26T17:38:59.140Z</time>
      </trkpt>
      <trkpt lat="45.75619" lon="5.07616">
        <ele>211.461072</ele>
        <time>2021-06-26T17:39:44.605Z</time>
      </trkpt>
      <trkpt lat="45.75601" lon="5.07714">
        <ele>212.461777</ele>
        <time>2021-06-26T17:39:59.255Z</time>
      </trkpt>
      <trkpt lat="45.75584" lon="5.07834">
        <ele>213.670937</ele>
        <time>2021-06-26T17:40:17.095Z</time>
      </trkpt>
      <trkpt lat="45.75566" lon="5.07912">
        <ele>214.512715</ele>
        <time>2021-06-26T17:40:29.216Z</time>
      </trkpt>
      <trkpt lat="45.75524" lon="5.08035">
        <ele>215.903619</ele>
        <time>2021-06-26T17:40:49.248Z</time>
      </trkpt>
      <trkpt lat="45.75504" lon="5.08093">
        <ele>216.446121</ele>
        <time>2021-06-26T17:40:58.155Z</time>
      </trkpt>
      <trkpt lat="45.75458" lon="5.08201">
        <ele>217.311845</ele>
        <time>2021-06-26T17:41:15.210Z</time>
      </trkpt>
      <trkpt lat="45.75436" lon="5.08252">
        <ele>217.720302</ele>
        <time>2021-06-26T17:41:22.882Z</time>
      </trkpt>
      <trkpt lat="45.75416" lon="5.08297">
        <ele>218.023985</ele>
        <time>2021-06-26T17:41:29.237Z</time>
      </trkpt>
      <trkpt lat="45.75391" lon="5.08345">
        <ele>218.218372</ele>
        <time>2021-06-26T17:41:36.160Z</time>
      </trkpt>
      <trkpt lat="45.75363" lon="5.08388">
        <ele>218.410629</ele>
        <time>2021-06-26T17:41:42.710Z</time>
      </trkpt>
      <trkpt lat="45.75349" lon="5.08402">
        <ele>218.489644</ele>
        <time>2021-06-26T17:41:45.394Z</time>
      </trkpt>
      <trkpt lat="45.75343" lon="5.084">
        <ele>218.521462</ele>
        <time>2021-06-26T17:41:46.392Z</time>
      </trkpt>
      <trkpt lat="45.75336" lon="5.08402">
        <ele>218.55267</ele>
        <time>2021-06-26T17:41:47.543Z</time>
      </trkpt>
      <trkpt lat="45.7533" lon="5.08406">
        <ele>218.583951</ele>
        <time>2021-06-26T17:41:48.628Z</time>
      </trkpt>
      <trkpt lat="45.75325" lon="5.08412">
        <ele>218.615228</ele>
        <time>2021-06-26T17:41:49.705Z</time>
      </trkpt>
      <trkpt lat="45.75322" lon="5.0842">
        <ele>218.645937</ele>
        <time>2021-06-26T17:41:50.835Z</time>
      </trkpt>
      <trkpt lat="45.75321" lon="5.0843">
        <ele>218.676715</ele>
        <time>2021-06-26T17:41:51.860Z</time>
      </trkpt>
      <trkpt lat="45.75321" lon="5.08437">
        <ele>218.701953</ele>
        <time>2021-06-26T17:41:52.795Z</time>
      </trkpt>
      <trkpt lat="45.75323" lon="5.08445">
        <ele>218.727417</ele>
        <time>2021-06-26T17:41:53.766Z</time>
      </trkpt>
      <trkpt lat="45.75326" lon="5.08451">
        <ele>218.752911</ele>
        <time>2021-06-26T17:41:54.702Z</time>
      </trkpt>
      <trkpt lat="45.75321" lon="5.08473">
        <ele>218.838665</ele>
        <time>2021-06-26T17:41:57.503Z</time>
      </trkpt>
      <trkpt lat="45.75312" lon="5.08496">
        <ele>218.993375</ele>
        <time>2021-06-26T17:42:00.718Z</time>
      </trkpt>
      <trkpt lat="45.75282" lon="5.08566">
        <ele>219.471558</ele>
        <time>2021-06-26T17:42:10.550Z</time>
      </trkpt>
      <trkpt lat="45.7525" lon="5.08646">
        <ele>220.003827</ele>
        <time>2021-06-26T17:42:22.343Z</time>
      </trkpt>
      <trkpt lat="45.75242" lon="5.08668">
        <ele>220.15061</ele>
        <time>2021-06-26T17:42:25.774Z</time>
      </trkpt>
      <trkpt lat="45.75212" lon="5.08769">
        <ele>221.103482</ele>
        <time>2021-06-26T17:42:41.085Z</time>
      </trkpt>
      <trkpt lat="45.75201" lon="5.08821">
        <ele>221.624715</ele>
        <time>2021-06-26T17:42:48.895Z</time>
      </trkpt>
      <trkpt lat="45.75171" lon="5.08947">
        <ele>222.912511</ele>
        <time>2021-06-26T17:43:08.020Z</time>
      </trkpt>
      <trkpt lat="45.75162" lon="5.08992">
        <ele>223.364637</ele>
        <time>2021-06-26T17:43:14.752Z</time>
      </trkpt>
      <trkpt lat="45.75158" lon="5.09015">
        <ele>223.595395</ele>
        <time>2021-06-26T17:43:18.325Z</time>
      </trkpt>
      <trkpt lat="45.75146" lon="5.091">
        <ele>224.442672</ele>
        <time>2021-06-26T17:43:30.842Z</time>
      </trkpt>
      <trkpt lat="45.75139" lon="5.09178">
        <ele>225.201895</ele>
        <time>2021-06-26T17:43:41.948Z</time>
      </trkpt>
      <trkpt lat="45.75135" lon="5.09285">
        <ele>226.203833</ele>
        <time>2021-06-26T17:43:56.426Z</time>
      </trkpt>
      <trkpt lat="45.75136" lon="5.09354">
        <ele>226.848047</ele>
        <time>2021-06-26T17:44:05.806Z</time>
      </trkpt>
      <trkpt lat="45.75138" lon="5.0942">
        <ele>227.460934</ele>
        <time>2021-06-26T17:44:15.179Z</time>
      </trkpt>
      <trkpt lat="45.75141" lon="5.09513">
        <ele>228.743666</ele>
        <time>2021-06-26T17:44:29.229Z</time>
      </trkpt>
      <trkpt lat="45.75141" lon="5.09531">
        <ele>229.037642</ele>
        <time>2021-06-26T17:44:32.405Z</time>
      </trkpt>
      <trkpt lat="45.75149" lon="5.0964">
        <ele>230.748134</ele>
        <time>2021-06-26T17:44:51.331Z</time>
      </trkpt>
      <trkpt lat="45.75155" lon="5.09683">
        <ele>231.425279</ele>
        <time>2021-06-26T17:44:59.166Z</time>
      </trkpt>
      <trkpt lat="45.75162" lon="5.09736">
        <ele>232.164292</ele>
        <time>2021-06-26T17:45:08.717Z</time>
      </trkpt>
      <trkpt lat="45.75164" lon="5.09763">
        <ele>232.507028</ele>
        <time>2021-06-26T17:45:13.310Z</time>
      </trkpt>
      <trkpt lat="45.75165" lon="5.09782">
        <ele>232.746451</ele>
        <time>2021-06-26T17:45:16.608Z</time>
      </trkpt>
      <trkpt lat="45.75176" lon="5.09949">
        <ele>234.869359</ele>
        <time>2021-06-26T17:45:42.015Z</time>
      </trkpt>
      <trkpt lat="45.75219" lon="5.10334">
        <ele>236.703595</ele>
        <time>2021-06-26T17:46:27.408Z</time>
      </trkpt>
      <trkpt lat="45.75231" lon="5.10424">
        <ele>237.210102</ele>
        <time>2021-06-26T17:46:39.715Z</time>
      </trkpt>
      <trkpt lat="45.75239" lon="5.10483">
        <ele>237.570396</ele>
        <time>2021-06-26T17:46:48.001Z</time>
      </trkpt>
      <trkpt lat="45.75251" lon="5.1056">
        <ele>238.116305</ele>
        <time>2021-06-26T17:46:58.583Z</time>
      </trkpt>
      <trkpt lat="45.75257" lon="5.10622">
        <ele>238.546967</ele>
        <time>2021-06-26T17:47:07.126Z</time>
      </trkpt>
      <trkpt lat="45.75262" lon="5.10683">
        <ele>238.967466</ele>
        <time>2021-06-26T17:47:15.400Z</time>
      </trkpt>
      <trkpt lat="45.75267" lon="5.10766">
        <ele>239.166293</ele>
        <time>2021-06-26T17:47:25.293Z</time>
      </trkpt>
      <trkpt lat="45.75266" lon="5.1078">
        <ele>239.145935</ele>
        <time>2021-06-26T17:47:26.876Z</time>
      </trkpt>
      <trkpt lat="45.75258" lon="5.10845">
        <ele>239.050203</ele>
        <time>2021-06-26T17:47:33.563Z</time>
      </trkpt>
      <trkpt lat="45.75252" lon="5.10885">
        <ele>238.991605</ele>
        <time>2021-06-26T17:47:37.247Z</time>
      </trkpt>
      <trkpt lat="45.75248" lon="5.1093">
        <ele>238.925919</ele>
        <time>2021-06-26T17:47:41.380Z</time>
      </trkpt>
      <trkpt lat="45.75247" lon="5.10975">
        <ele>238.861858</ele>
        <time>2021-06-26T17:47:45.341Z</time>
      </trkpt>
      <trkpt lat="45.75248" lon="5.11004">
        <ele>238.693794</ele>
        <time>2021-06-26T17:47:47.983Z</time>
      </trkpt>
      <trkpt lat="45.75248" lon="5.11015">
        <ele>238.630988</ele>
        <time>2021-06-26T17:47:48.887Z</time>
      </trkpt>
      <trkpt lat="45.75252" lon="5.11048">
        <ele>238.436316</ele>
        <time>2021-06-26T17:47:51.892Z</time>
      </trkpt>
      <trkpt lat="45.75256" lon="5.11078">
        <ele>238.255791</ele>
        <time>2021-06-26T17:47:54.461Z</time>
      </trkpt>
      <trkpt lat="45.75258" lon="5.1109">
        <ele>238.184161</ele>
        <time>2021-06-26T17:47:55.532Z</time>
      </trkpt>
      <trkpt lat="45.75259" lon="5.11099">
        <ele>238.130397</ele>
        <time>2021-06-26T17:47:56.329Z</time>
      </trkpt>
      <trkpt lat="45.7526" lon="5.11103">
        <ele>238.105397</ele>
        <time>2021-06-26T17:47:56.658Z</time>
      </trkpt>
      <trkpt lat="45.75261" lon="5.11148">
        <ele>237.841289</ele>
        <time>2021-06-26T17:48:00.570Z</time>
      </trkpt>
      <trkpt lat="45.75256" lon="5.11176">
        <ele>237.67211</ele>
        <time>2021-06-26T17:48:03.006Z</time>
      </trkpt>
      <trkpt lat="45.75256" lon="5.11181">
        <ele>237.639828</ele>
        <time>2021-06-26T17:48:03.491Z</time>
      </trkpt>
      <trkpt lat="45.7525" lon="5.11214">
        <ele>237.442461</ele>
        <time>2021-06-26T17:48:06.429Z</time>
      </trkpt>
      <trkpt lat="45.75249" lon="5.11234">
        <ele>237.342525</ele>
        <time>2021-06-26T17:48:08.221Z</time>
      </trkpt>
      <trkpt lat="45.75248" lon="5.11304">
        <ele>237.253269</ele>
        <time>2021-06-26T17:48:14.649Z</time>
      </trkpt>
      <trkpt lat="45.75246" lon="5.11403">
        <ele>237.126204</ele>
        <time>2021-06-26T17:48:24.655Z</time>
      </trkpt>
      <trkpt lat="45.75244" lon="5.11479">
        <ele>237.028435</ele>
        <time>2021-06-26T17:48:32.814Z</time>
      </trkpt>
      <trkpt lat="45.75241" lon="5.11581">
        <ele>237.210892</ele>
        <time>2021-06-26T17:48:44.074Z</time>
      </trkpt>
      <trkpt lat="45.7524" lon="5.11596">
        <ele>237.241918</ele>
        <time>2021-06-26T17:48:45.909Z</time>
      </trkpt>
      <trkpt lat="45.75209" lon="5.11582">
        <ele>237.339298</ele>
        <time>2021-06-26T17:48:51.108Z</time>
      </trkpt>
      <trkpt lat="45.75198" lon="5.11619">
        <ele>237.421637</ele>
        <time>2021-06-26T17:48:55.523Z</time>
      </trkpt>
      <trkpt lat="45.75186" lon="5.11687">
        <ele>237.593269</ele>
        <time>2021-06-26T17:49:03.657Z</time>
      </trkpt>
      <trkpt lat="45.75184" lon="5.11727">
        <ele>237.797267</ele>
        <time>2021-06-26T17:49:08.044Z</time>
      </trkpt>
      <trkpt lat="45.75182" lon="5.11747">
        <ele>237.900998</ele>
        <time>2021-06-26T17:49:10.354Z</time>
      </trkpt>
      <trkpt lat="45.75177" lon="5.11807">
        <ele>238.209749</ele>
        <time>2021-06-26T17:49:17.582Z</time>
      </trkpt>
      <trkpt lat="45.75173" lon="5.11833">
        <ele>238.342746</ele>
        <time>2021-06-26T17:49:21.079Z</time>
      </trkpt>
      <trkpt lat="45.75159" lon="5.11915">
        <ele>238.771304</ele>
        <time>2021-06-26T17:49:32.304Z</time>
      </trkpt>
      <trkpt lat="45.75151" lon="5.11956">
        <ele>239.027344</ele>
        <time>2021-06-26T17:49:38.139Z</time>
      </trkpt>
      <trkpt lat="45.75143" lon="5.11991">
        <ele>239.265544</ele>
        <time>2021-06-26T17:49:43.100Z</time>
      </trkpt>
      <trkpt lat="45.75131" lon="5.12022">
        <ele>239.491821</ele>
        <time>2021-06-26T17:49:47.818Z</time>
      </trkpt>
      <trkpt lat="45.7511" lon="5.12043">
        <ele>239.730217</ele>
        <time>2021-06-26T17:49:52.622Z</time>
      </trkpt>
      <trkpt lat="45.75082" lon="5.12069">
        <ele>240.046</ele>
        <time>2021-06-26T17:49:59.145Z</time>
      </trkpt>
      <trkpt lat="45.74817" lon="5.12292">
        <ele>242.5402</ele>
        <time>2021-06-26T17:50:52.550Z</time>
      </trkpt>
      <trkpt lat="45.74782" lon="5.12366">
        <ele>243.229809</ele>
        <time>2021-06-26T17:51:05.175Z</time>
      </trkpt>
      <trkpt lat="45.7468" lon="5.12611">
        <ele>245.662659</ele>
        <time>2021-06-26T17:51:46.233Z</time>
      </trkpt>
      <trkpt lat="45.74694" lon="5.1265">
        <ele>245.96813</ele>
        <time>2021-06-26T17:51:51.802Z</time>
      </trkpt>
      <trkpt lat="45.74701" lon="5.12673">
        <ele>245.974582</ele>
        <time>2021-06-26T17:51:54.722Z</time>
      </trkpt>
      <trkpt lat="45.74707" lon="5.12698">
        <ele>245.981359</ele>
        <time>2021-06-26T17:51:57.863Z</time>
      </trkpt>
      <trkpt lat="45.74712" lon="5.12731">
        <ele>245.990201</ele>
        <time>2021-06-26T17:52:01.620Z</time>
      </trkpt>
      <trkpt lat="45.74708" lon="5.12845">
        <ele>246.019893</ele>
        <time>2021-06-26T17:52:12.970Z</time>
      </trkpt>
      <trkpt lat="45.7471" lon="5.13003">
        <ele>245.079292</ele>
        <time>2021-06-26T17:52:27.261Z</time>
      </trkpt>
      <trkpt lat="45.74701" lon="5.13279">
        <ele>241.437308</ele>
        <time>2021-06-26T17:52:49.007Z</time>
      </trkpt>
      <trkpt lat="45.74705" lon="5.13322">
        <ele>240.64653</ele>
        <time>2021-06-26T17:52:52.133Z</time>
      </trkpt>
      <trkpt lat="45.74729" lon="5.13435">
        <ele>238.054511</ele>
        <time>2021-06-26T17:53:00.398Z</time>
      </trkpt>
      <trkpt lat="45.74783" lon="5.13552">
        <ele>233.545726</ele>
        <time>2021-06-26T17:53:09.738Z</time>
      </trkpt>
      <trkpt lat="45.74799" lon="5.13617">
        <ele>231.333785</ele>
        <time>2021-06-26T17:53:14.218Z</time>
      </trkpt>
      <trkpt lat="45.74785" lon="5.13686">
        <ele>229.136903</ele>
        <time>2021-06-26T17:53:18.946Z</time>
      </trkpt>
      <trkpt lat="45.74776" lon="5.13762">
        <ele>226.830607</ele>
        <time>2021-06-26T17:53:23.997Z</time>
      </trkpt>
      <trkpt lat="45.74757" lon="5.13988">
        <ele>221.872845</ele>
        <time>2021-06-26T17:53:39.949Z</time>
      </trkpt>
      <trkpt lat="45.7472" lon="5.14378">
        <ele>219.95342</ele>
        <time>2021-06-26T17:54:17.285Z</time>
      </trkpt>
      <trkpt lat="45.74722" lon="5.14401">
        <ele>219.967192</ele>
        <time>2021-06-26T17:54:20.509Z</time>
      </trkpt>
      <trkpt lat="45.74721" lon="5.14414">
        <ele>220.119513</ele>
        <time>2021-06-26T17:54:22.410Z</time>
      </trkpt>
      <trkpt lat="45.74717" lon="5.14442">
        <ele>220.430025</ele>
        <time>2021-06-26T17:54:26.025Z</time>
      </trkpt>
      <trkpt lat="45.74718" lon="5.14455">
        <ele>220.566531</ele>
        <time>2021-06-26T17:54:28.142Z</time>
      </trkpt>
      <trkpt lat="45.74715" lon="5.14455">
        <ele>220.612223</ele>
        <time>2021-06-26T17:54:28.780Z</time>
      </trkpt>
      <trkpt lat="45.74712" lon="5.14457">
        <ele>220.656754</ele>
        <time>2021-06-26T17:54:29.359Z</time>
      </trkpt>
      <trkpt lat="45.7471" lon="5.14461">
        <ele>220.716787</ele>
        <time>2021-06-26T17:54:30.137Z</time>
      </trkpt>
      <trkpt lat="45.74709" lon="5.14464">
        <ele>220.761968</ele>
        <time>2021-06-26T17:54:30.688Z</time>
      </trkpt>
      <trkpt lat="45.74712" lon="5.14476">
        <ele>220.90705</ele>
        <time>2021-06-26T17:54:32.461Z</time>
      </trkpt>
      <trkpt lat="45.74716" lon="5.14478">
        <ele>220.965951</ele>
        <time>2021-06-26T17:54:33.195Z</time>
      </trkpt>
      <trkpt lat="45.74716" lon="5.14485">
        <ele>221.041989</ele>
        <time>2021-06-26T17:54:34.673Z</time>
      </trkpt>
      <trkpt lat="45.74698" lon="5.14607">
        <ele>222.405205</ele>
        <time>2021-06-26T17:54:54.640Z</time>
      </trkpt>
      <trkpt lat="45.74687" lon="5.14664">
        <ele>222.843102</ele>
        <time>2021-06-26T17:55:03.892Z</time>
      </trkpt>
      <trkpt lat="45.74685" lon="5.14672">
        <ele>222.867518</ele>
        <time>2021-06-26T17:55:05.132Z</time>
      </trkpt>
      <trkpt lat="45.74679" lon="5.14691">
        <ele>222.926502</ele>
        <time>2021-06-26T17:55:08.565Z</time>
      </trkpt>
      <trkpt lat="45.74646" lon="5.14774">
        <ele>223.19326</ele>
        <time>2021-06-26T17:55:20.715Z</time>
      </trkpt>
      <trkpt lat="45.74627" lon="5.1483">
        <ele>223.368764</ele>
        <time>2021-06-26T17:55:27.230Z</time>
      </trkpt>
      <trkpt lat="45.74611" lon="5.14897">
        <ele>223.002042</ele>
        <time>2021-06-26T17:55:33.049Z</time>
      </trkpt>
      <trkpt lat="45.74606" lon="5.14936">
        <ele>222.273728</ele>
        <time>2021-06-26T17:55:36.067Z</time>
      </trkpt>
      <trkpt lat="45.74588" lon="5.15067">
        <ele>219.806766</ele>
        <time>2021-06-26T17:55:45.643Z</time>
      </trkpt>
      <trkpt lat="45.74594" lon="5.15095">
        <ele>219.278986</ele>
        <time>2021-06-26T17:55:47.670Z</time>
      </trkpt>
      <trkpt lat="45.74591" lon="5.15096">
        <ele>219.202572</ele>
        <time>2021-06-26T17:55:48.070Z</time>
      </trkpt>
      <trkpt lat="45.74587" lon="5.15107">
        <ele>218.975523</ele>
        <time>2021-06-26T17:55:49.330Z</time>
      </trkpt>
      <trkpt lat="45.74587" lon="5.15111">
        <ele>218.897241</ele>
        <time>2021-06-26T17:55:49.741Z</time>
      </trkpt>
      <trkpt lat="45.74589" lon="5.15115">
        <ele>218.820215</ele>
        <time>2021-06-26T17:55:50.170Z</time>
      </trkpt>
      <trkpt lat="45.74596" lon="5.15121">
        <ele>218.617793</ele>
        <time>2021-06-26T17:55:51.443Z</time>
      </trkpt>
      <trkpt lat="45.74599" lon="5.1512">
        <ele>218.554593</ele>
        <time>2021-06-26T17:55:51.875Z</time>
      </trkpt>
      <trkpt lat="45.74603" lon="5.15143">
        <ele>218.201428</ele>
        <time>2021-06-26T17:55:53.482Z</time>
      </trkpt>
      <trkpt lat="45.74603" lon="5.15233">
        <ele>216.848228</ele>
        <time>2021-06-26T17:55:59.806Z</time>
      </trkpt>
      <trkpt lat="45.74607" lon="5.15401">
        <ele>214.97867</ele>
        <time>2021-06-26T17:56:13.820Z</time>
      </trkpt>
      <trkpt lat="45.74604" lon="5.15402">
        <ele>214.99437</ele>
        <time>2021-06-26T17:56:14.462Z</time>
      </trkpt>
      <trkpt lat="45.746" lon="5.15406">
        <ele>215.015502</ele>
        <time>2021-06-26T17:56:15.438Z</time>
      </trkpt>
      <trkpt lat="45.74599" lon="5.15411">
        <ele>215.032205</ele>
        <time>2021-06-26T17:56:16.011Z</time>
      </trkpt>
      <trkpt lat="45.74599" lon="5.15415">
        <ele>215.046546</ele>
        <time>2021-06-26T17:56:16.540Z</time>
      </trkpt>
      <trkpt lat="45.74609" lon="5.15424">
        <ele>215.104594</ele>
        <time>2021-06-26T17:56:18.910Z</time>
      </trkpt>
      <trkpt lat="45.74611" lon="5.15423">
        <ele>215.115679</ele>
        <time>2021-06-26T17:56:19.313Z</time>
      </trkpt>
      <trkpt lat="45.74613" lon="5.15421">
        <ele>215.129932</ele>
        <time>2021-06-26T17:56:19.969Z</time>
      </trkpt>
      <trkpt lat="45.74615" lon="5.15418">
        <ele>215.141113</ele>
        <time>2021-06-26T17:56:20.514Z</time>
      </trkpt>
      <trkpt lat="45.74621" lon="5.15426">
        <ele>215.184922</ele>
        <time>2021-06-26T17:56:22.649Z</time>
      </trkpt>
      <trkpt lat="45.74693" lon="5.15455">
        <ele>215.558893</ele>
        <time>2021-06-26T17:56:39.917Z</time>
      </trkpt>
      <trkpt lat="45.74727" lon="5.15469">
        <ele>215.733793</ele>
        <time>2021-06-26T17:56:49.054Z</time>
      </trkpt>
      <trkpt lat="45.74737" lon="5.15478">
        <ele>215.873128</ele>
        <time>2021-06-26T17:56:52.141Z</time>
      </trkpt>
      <trkpt lat="45.74768" lon="5.15505">
        <ele>216.404532</ele>
        <time>2021-06-26T17:57:02.535Z</time>
      </trkpt>
      <trkpt lat="45.74797" lon="5.15523">
        <ele>216.882074</ele>
        <time>2021-06-26T17:57:11.524Z</time>
      </trkpt>
      <trkpt lat="45.74813" lon="5.15534">
        <ele>217.142938</ele>
        <time>2021-06-26T17:57:16.458Z</time>
      </trkpt>
      <trkpt lat="45.7482" lon="5.15536">
        <ele>217.240249</ele>
        <time>2021-06-26T17:57:18.195Z</time>
      </trkpt>
      <trkpt lat="45.74843" lon="5.15544">
        <ele>217.593482</ele>
        <time>2021-06-26T17:57:25.060Z</time>
      </trkpt>
      <trkpt lat="45.7486" lon="5.15553">
        <ele>217.862816</ele>
        <time>2021-06-26T17:57:29.544Z</time>
      </trkpt>
      <trkpt lat="45.74924" lon="5.15604">
        <ele>218.233622</ele>
        <time>2021-06-26T17:57:46.696Z</time>
      </trkpt>
      <trkpt lat="45.74933" lon="5.15612">
        <ele>218.177069</ele>
        <time>2021-06-26T17:57:49.190Z</time>
      </trkpt>
      <trkpt lat="45.74954" lon="5.15622">
        <ele>218.057215</ele>
        <time>2021-06-26T17:57:53.185Z</time>
      </trkpt>
      <trkpt lat="45.74962" lon="5.15629">
        <ele>218.006122</ele>
        <time>2021-06-26T17:57:55.397Z</time>
      </trkpt>
      <trkpt lat="45.74976" lon="5.15687">
        <ele>217.778301</ele>
        <time>2021-06-26T17:58:02.983Z</time>
      </trkpt>
      <trkpt lat="45.7498" lon="5.15711">
        <ele>217.685565</ele>
        <time>2021-06-26T17:58:05.824Z</time>
      </trkpt>
      <trkpt lat="45.74981" lon="5.15716">
        <ele>217.667412</ele>
        <time>2021-06-26T17:58:06.222Z</time>
      </trkpt>
      <trkpt lat="45.74975" lon="5.15732">
        <ele>217.597643</ele>
        <time>2021-06-26T17:58:07.909Z</time>
      </trkpt>
      <trkpt lat="45.74967" lon="5.15747">
        <ele>217.528864</ele>
        <time>2021-06-26T17:58:09.327Z</time>
      </trkpt>
      <trkpt lat="45.74952" lon="5.15807">
        <ele>216.817737</ele>
        <time>2021-06-26T17:58:14.322Z</time>
      </trkpt>
      <trkpt lat="45.74949" lon="5.15845">
        <ele>216.284587</ele>
        <time>2021-06-26T17:58:17.196Z</time>
      </trkpt>
      <trkpt lat="45.74953" lon="5.15885">
        <ele>215.729734</ele>
        <time>2021-06-26T17:58:20.102Z</time>
      </trkpt>
      <trkpt lat="45.75005" lon="5.16211">
        <ele>211.392307</ele>
        <time>2021-06-26T17:58:45.928Z</time>
      </trkpt>
      <trkpt lat="45.75023" lon="5.16405">
        <ele>209.481318</ele>
        <time>2021-06-26T17:59:02.255Z</time>
      </trkpt>
      <trkpt lat="45.75025" lon="5.16431">
        <ele>209.257042</ele>
        <time>2021-06-26T17:59:04.399Z</time>
      </trkpt>
      <trkpt lat="45.75026" lon="5.16451">
        <ele>209.076425</ele>
        <time>2021-06-26T17:59:06.144Z</time>
      </trkpt>
      <trkpt lat="45.75025" lon="5.16469">
        <ele>208.924995</ele>
        <time>2021-06-26T17:59:07.604Z</time>
      </trkpt>
      <trkpt lat="45.75025" lon="5.16501">
        <ele>208.644712</ele>
        <time>2021-06-26T17:59:10.244Z</time>
      </trkpt>
      <trkpt lat="45.75018" lon="5.16531">
        <ele>208.369707</ele>
        <time>2021-06-26T17:59:12.860Z</time>
      </trkpt>
      <trkpt lat="45.74989" lon="5.16584">
        <ele>207.814659</ele>
        <time>2021-06-26T17:59:18.290Z</time>
      </trkpt>
      <trkpt lat="45.74976" lon="5.16627">
        <ele>207.416645</ele>
        <time>2021-06-26T17:59:22.200Z</time>
      </trkpt>
      <trkpt lat="45.74973" lon="5.16628">
        <ele>207.387472</ele>
        <time>2021-06-26T17:59:22.492Z</time>
      </trkpt>
      <trkpt lat="45.74969" lon="5.16639">
        <ele>207.27827</ele>
        <time>2021-06-26T17:59:23.590Z</time>
      </trkpt>
      <trkpt lat="45.74969" lon="5.16642">
        <ele>207.24945</ele>
        <time>2021-06-26T17:59:23.873Z</time>
      </trkpt>
      <trkpt lat="45.74971" lon="5.16645">
        <ele>207.221343</ele>
        <time>2021-06-26T17:59:24.152Z</time>
      </trkpt>
      <trkpt lat="45.74975" lon="5.16648">
        <ele>207.164437</ele>
        <time>2021-06-26T17:59:24.707Z</time>
      </trkpt>
      <trkpt lat="45.74977" lon="5.16648">
        <ele>207.136845</ele>
        <time>2021-06-26T17:59:24.979Z</time>
      </trkpt>
      <trkpt lat="45.7498" lon="5.16661">
        <ele>207.022845</ele>
        <time>2021-06-26T17:59:26.058Z</time>
      </trkpt>
      <trkpt lat="45.74984" lon="5.16675">
        <ele>206.892273</ele>
        <time>2021-06-26T17:59:27.390Z</time>
      </trkpt>
      <trkpt lat="45.74997" lon="5.16754">
        <ele>206.247952</ele>
        <time>2021-06-26T17:59:34.338Z</time>
      </trkpt>
      <trkpt lat="45.75003" lon="5.16778">
        <ele>206.122299</ele>
        <time>2021-06-26T17:59:36.598Z</time>
      </trkpt>
      <trkpt lat="45.75038" lon="5.16908">
        <ele>205.43072</ele>
        <time>2021-06-26T17:59:49.170Z</time>
      </trkpt>
      <trkpt lat="45.75039" lon="5.16913">
        <ele>205.406896</ele>
        <time>2021-06-26T17:59:49.570Z</time>
      </trkpt>
      <trkpt lat="45.75054" lon="5.16969">
        <ele>205.111958</ele>
        <time>2021-06-26T17:59:55.058Z</time>
      </trkpt>
      <trkpt lat="45.75061" lon="5.17002">
        <ele>204.960965</ele>
        <time>2021-06-26T17:59:58.204Z</time>
      </trkpt>
      <trkpt lat="45.75063" lon="5.17009">
        <ele>204.934352</ele>
        <time>2021-06-26T17:59:58.834Z</time>
      </trkpt>
      <trkpt lat="45.75071" lon="5.17055">
        <ele>204.763928</ele>
        <time>2021-06-26T18:00:03.189Z</time>
      </trkpt>
      <trkpt lat="45.75073" lon="5.17074">
        <ele>204.694014</ele>
        <time>2021-06-26T18:00:04.973Z</time>
      </trkpt>
      <trkpt lat="45.75073" lon="5.17091">
        <ele>204.633278</ele>
        <time>2021-06-26T18:00:06.462Z</time>
      </trkpt>
      <trkpt lat="45.7507" lon="5.1717">
        <ele>204.349442</ele>
        <time>2021-06-26T18:00:13.680Z</time>
      </trkpt>
      <trkpt lat="45.75068" lon="5.17189">
        <ele>204.280347</ele>
        <time>2021-06-26T18:00:15.363Z</time>
      </trkpt>
      <trkpt lat="45.75062" lon="5.17211">
        <ele>204.197651</ele>
        <time>2021-06-26T18:00:17.560Z</time>
      </trkpt>
      <trkpt lat="45.75059" lon="5.1722">
        <ele>204.160707</ele>
        <time>2021-06-26T18:00:18.609Z</time>
      </trkpt>
      <trkpt lat="45.75041" lon="5.17285">
        <ele>204.261748</ele>
        <time>2021-06-26T18:00:25.438Z</time>
      </trkpt>
      <trkpt lat="45.75033" lon="5.17312">
        <ele>204.35857</ele>
        <time>2021-06-26T18:00:28.930Z</time>
      </trkpt>
      <trkpt lat="45.75032" lon="5.17317">
        <ele>204.375161</ele>
        <time>2021-06-26T18:00:29.485Z</time>
      </trkpt>
      <trkpt lat="45.75024" lon="5.17346">
        <ele>204.477543</ele>
        <time>2021-06-26T18:00:32.993Z</time>
      </trkpt>
      <trkpt lat="45.7502" lon="5.1736">
        <ele>204.52858</ele>
        <time>2021-06-26T18:00:35.022Z</time>
      </trkpt>
      <trkpt lat="45.75017" lon="5.17375">
        <ele>204.580714</ele>
        <time>2021-06-26T18:00:36.760Z</time>
      </trkpt>
      <trkpt lat="45.75007" lon="5.1741">
        <ele>204.7047</ele>
        <time>2021-06-26T18:00:41.653Z</time>
      </trkpt>
      <trkpt lat="45.75001" lon="5.17433">
        <ele>204.78517</ele>
        <time>2021-06-26T18:00:44.650Z</time>
      </trkpt>
      <trkpt lat="45.74995" lon="5.17455">
        <ele>204.865472</ele>
        <time>2021-06-26T18:00:47.940Z</time>
      </trkpt>
      <trkpt lat="45.74983" lon="5.17505">
        <ele>205.138041</ele>
        <time>2021-06-26T18:00:54.650Z</time>
      </trkpt>
      <trkpt lat="45.74975" lon="5.17538">
        <ele>205.38264</ele>
        <time>2021-06-26T18:00:59.052Z</time>
      </trkpt>
      <trkpt lat="45.74973" lon="5.17548">
        <ele>205.449644</ele>
        <time>2021-06-26T18:01:00.343Z</time>
      </trkpt>
      <trkpt lat="45.7497" lon="5.17577">
        <ele>205.657333</ele>
        <time>2021-06-26T18:01:04.111Z</time>
      </trkpt>
      <trkpt lat="45.74968" lon="5.17617">
        <ele>205.929005</ele>
        <time>2021-06-26T18:01:09.733Z</time>
      </trkpt>
      <trkpt lat="45.74968" lon="5.17779">
        <ele>206.956759</ele>
        <time>2021-06-26T18:01:31.356Z</time>
      </trkpt>
      <trkpt lat="45.74968" lon="5.1779">
        <ele>207.008618</ele>
        <time>2021-06-26T18:01:32.579Z</time>
      </trkpt>
      <trkpt lat="45.74966" lon="5.17841">
        <ele>207.263235</ele>
        <time>2021-06-26T18:01:38.875Z</time>
      </trkpt>
      <trkpt lat="45.74963" lon="5.18084">
        <ele>207.963765</ele>
        <time>2021-06-26T18:02:08.191Z</time>
      </trkpt>
      <trkpt lat="45.74962" lon="5.18204">
        <ele>207.923497</ele>
        <time>2021-06-26T18:02:19.708Z</time>
      </trkpt>
      <trkpt lat="45.7497" lon="5.18332">
        <ele>207.582235</ele>
        <time>2021-06-26T18:02:31.362Z</time>
      </trkpt>
      <trkpt lat="45.74973" lon="5.18414">
        <ele>207.270322</ele>
        <time>2021-06-26T18:02:38.766Z</time>
      </trkpt>
      <trkpt lat="45.74966" lon="5.18446">
        <ele>207.141512</ele>
        <time>2021-06-26T18:02:41.760Z</time>
      </trkpt>
      <trkpt lat="45.74977" lon="5.18545">
        <ele>206.91239</ele>
        <time>2021-06-26T18:02:51.171Z</time>
      </trkpt>
      <trkpt lat="45.7498" lon="5.18578">
        <ele>206.902679</ele>
        <time>2021-06-26T18:02:54.539Z</time>
      </trkpt>
      <trkpt lat="45.74981" lon="5.18584">
        <ele>206.90101</ele>
        <time>2021-06-26T18:02:55.123Z</time>
      </trkpt>
      <trkpt lat="45.74992" lon="5.18653">
        <ele>206.880789</ele>
        <time>2021-06-26T18:03:02.566Z</time>
      </trkpt>
      <trkpt lat="45.74996" lon="5.1867">
        <ele>206.875546</ele>
        <time>2021-06-26T18:03:04.603Z</time>
      </trkpt>
      <trkpt lat="45.75002" lon="5.1869">
        <ele>206.869483</ele>
        <time>2021-06-26T18:03:06.984Z</time>
      </trkpt>
      <trkpt lat="45.75003" lon="5.18692">
        <ele>206.868606</ele>
        <time>2021-06-26T18:03:07.340Z</time>
      </trkpt>
      <trkpt lat="45.75019" lon="5.18741">
        <ele>206.853122</ele>
        <time>2021-06-26T18:03:13.210Z</time>
      </trkpt>
      <trkpt lat="45.75023" lon="5.18749">
        <ele>206.849405</ele>
        <time>2021-06-26T18:03:14.216Z</time>
      </trkpt>
      <trkpt lat="45.75032" lon="5.18769">
        <ele>206.825846</ele>
        <time>2021-06-26T18:03:16.823Z</time>
      </trkpt>
      <trkpt lat="45.75035" lon="5.18776">
        <ele>206.818734</ele>
        <time>2021-06-26T18:03:17.621Z</time>
      </trkpt>
      <trkpt lat="45.75083" lon="5.18927">
        <ele>206.658736</ele>
        <time>2021-06-26T18:03:34.639Z</time>
      </trkpt>
      <trkpt lat="45.75102" lon="5.18991">
        <ele>206.531619</ele>
        <time>2021-06-26T18:03:41.096Z</time>
      </trkpt>
      <trkpt lat="45.75119" lon="5.19063">
        <ele>206.055524</ele>
        <time>2021-06-26T18:03:47.920Z</time>
      </trkpt>
      <trkpt lat="45.75121" lon="5.19072">
        <ele>205.995916</ele>
        <time>2021-06-26T18:03:48.736Z</time>
      </trkpt>
      <trkpt lat="45.75138" lon="5.19134">
        <ele>205.572907</ele>
        <time>2021-06-26T18:03:54.439Z</time>
      </trkpt>
      <trkpt lat="45.75155" lon="5.1925">
        <ele>204.920051</ele>
        <time>2021-06-26T18:04:04.037Z</time>
      </trkpt>
      <trkpt lat="45.75162" lon="5.19327">
        <ele>204.733934</ele>
        <time>2021-06-26T18:04:11.263Z</time>
      </trkpt>
      <trkpt lat="45.75168" lon="5.19386">
        <ele>204.592518</ele>
        <time>2021-06-26T18:04:18.069Z</time>
      </trkpt>
      <trkpt lat="45.75172" lon="5.19447">
        <ele>204.445521</ele>
        <time>2021-06-26T18:04:24.897Z</time>
      </trkpt>
      <trkpt lat="45.75173" lon="5.19459">
        <ele>204.41716</ele>
        <time>2021-06-26T18:04:25.841Z</time>
      </trkpt>
      <trkpt lat="45.75175" lon="5.19527">
        <ele>204.269879</ele>
        <time>2021-06-26T18:04:32.508Z</time>
      </trkpt>
      <trkpt lat="45.75178" lon="5.19599">
        <ele>204.122117</ele>
        <time>2021-06-26T18:04:39.298Z</time>
      </trkpt>
      <trkpt lat="45.75179" lon="5.19613">
        <ele>204.094236</ele>
        <time>2021-06-26T18:04:40.417Z</time>
      </trkpt>
      <trkpt lat="45.75182" lon="5.19656">
        <ele>204.005398</ele>
        <time>2021-06-26T18:04:45.364Z</time>
      </trkpt>
      <trkpt lat="45.75182" lon="5.19692">
        <ele>203.932608</ele>
        <time>2021-06-26T18:04:49.199Z</time>
      </trkpt>
      <trkpt lat="45.75184" lon="5.19722">
        <ele>203.871693</ele>
        <time>2021-06-26T18:04:52.075Z</time>
      </trkpt>
      <trkpt lat="45.75185" lon="5.19735">
        <ele>203.843543</ele>
        <time>2021-06-26T18:04:53.654Z</time>
      </trkpt>
      <trkpt lat="45.75184" lon="5.19745">
        <ele>203.810726</ele>
        <time>2021-06-26T18:04:54.482Z</time>
      </trkpt>
      <trkpt lat="45.7518" lon="5.19751">
        <ele>203.776151</ele>
        <time>2021-06-26T18:04:55.339Z</time>
      </trkpt>
      <trkpt lat="45.75178" lon="5.19759">
        <ele>203.741296</ele>
        <time>2021-06-26T18:04:55.983Z</time>
      </trkpt>
      <trkpt lat="45.75178" lon="5.19767">
        <ele>203.706518</ele>
        <time>2021-06-26T18:04:56.603Z</time>
      </trkpt>
      <trkpt lat="45.75179" lon="5.19774">
        <ele>203.671705</ele>
        <time>2021-06-26T18:04:57.343Z</time>
      </trkpt>
      <trkpt lat="45.75182" lon="5.19781">
        <ele>203.640926</ele>
        <time>2021-06-26T18:04:58.027Z</time>
      </trkpt>
      <trkpt lat="45.75185" lon="5.19786">
        <ele>203.609873</ele>
        <time>2021-06-26T18:04:58.642Z</time>
      </trkpt>
      <trkpt lat="45.75194" lon="5.19791">
        <ele>203.548831</ele>
        <time>2021-06-26T18:04:59.888Z</time>
      </trkpt>
      <trkpt lat="45.75199" lon="5.19791">
        <ele>203.517721</ele>
        <time>2021-06-26T18:05:00.437Z</time>
      </trkpt>
      <trkpt lat="45.75204" lon="5.1979">
        <ele>203.486853</ele>
        <time>2021-06-26T18:05:00.960Z</time>
      </trkpt>
      <trkpt lat="45.7522" lon="5.1981">
        <ele>203.355052</ele>
        <time>2021-06-26T18:05:03.470Z</time>
      </trkpt>
      <trkpt lat="45.75233" lon="5.19846">
        <ele>203.179717</ele>
        <time>2021-06-26T18:05:06.936Z</time>
      </trkpt>
      <trkpt lat="45.75262" lon="5.19995">
        <ele>202.63346</ele>
        <time>2021-06-26T18:05:21.964Z</time>
      </trkpt>
      <trkpt lat="45.7527" lon="5.20032">
        <ele>202.567123</ele>
        <time>2021-06-26T18:05:25.924Z</time>
      </trkpt>
      <trkpt lat="45.75328" lon="5.20335">
        <ele>202.167583</ele>
        <time>2021-06-26T18:05:56.482Z</time>
      </trkpt>
      <trkpt lat="45.75341" lon="5.20402">
        <ele>202.115854</ele>
        <time>2021-06-26T18:06:03.673Z</time>
      </trkpt>
      <trkpt lat="45.75361" lon="5.20471">
        <ele>202.151537</ele>
        <time>2021-06-26T18:06:11.568Z</time>
      </trkpt>
      <trkpt lat="45.75408" lon="5.20583">
        <ele>202.449571</ele>
        <time>2021-06-26T18:06:26.036Z</time>
      </trkpt>
      <trkpt lat="45.75472" lon="5.20743">
        <ele>203.052044</ele>
        <time>2021-06-26T18:06:48.069Z</time>
      </trkpt>
      <trkpt lat="45.75498" lon="5.2082">
        <ele>203.424214</ele>
        <time>2021-06-26T18:06:58.115Z</time>
      </trkpt>
      <trkpt lat="45.75505" lon="5.20856">
        <ele>203.585418</ele>
        <time>2021-06-26T18:07:02.592Z</time>
      </trkpt>
      <trkpt lat="45.7551" lon="5.20893">
        <ele>203.75186</ele>
        <time>2021-06-26T18:07:07.454Z</time>
      </trkpt>
      <trkpt lat="45.7552" lon="5.20987">
        <ele>204.155138</ele>
        <time>2021-06-26T18:07:19.495Z</time>
      </trkpt>
      <trkpt lat="45.75531" lon="5.2106">
        <ele>204.474249</ele>
        <time>2021-06-26T18:07:28.959Z</time>
      </trkpt>
      <trkpt lat="45.75533" lon="5.21079">
        <ele>204.556661</ele>
        <time>2021-06-26T18:07:31.005Z</time>
      </trkpt>
      <trkpt lat="45.75536" lon="5.21096">
        <ele>204.631138</ele>
        <time>2021-06-26T18:07:33.198Z</time>
      </trkpt>
      <trkpt lat="45.75531" lon="5.21099">
        <ele>204.665957</ele>
        <time>2021-06-26T18:07:34.045Z</time>
      </trkpt>
      <trkpt lat="45.75523" lon="5.21111">
        <ele>204.734937</ele>
        <time>2021-06-26T18:07:35.744Z</time>
      </trkpt>
      <trkpt lat="45.75522" lon="5.21127">
        <ele>204.803254</ele>
        <time>2021-06-26T18:07:37.544Z</time>
      </trkpt>
      <trkpt lat="45.75524" lon="5.21135">
        <ele>204.837944</ele>
        <time>2021-06-26T18:07:38.640Z</time>
      </trkpt>
      <trkpt lat="45.75528" lon="5.21142">
        <ele>204.8758</ele>
        <time>2021-06-26T18:07:39.552Z</time>
      </trkpt>
      <trkpt lat="45.75533" lon="5.21147">
        <ele>204.896073</ele>
        <time>2021-06-26T18:07:40.473Z</time>
      </trkpt>
      <trkpt lat="45.75538" lon="5.21149">
        <ele>204.899334</ele>
        <time>2021-06-26T18:07:41.284Z</time>
      </trkpt>
      <trkpt lat="45.75543" lon="5.2115">
        <ele>204.902689</ele>
        <time>2021-06-26T18:07:42.103Z</time>
      </trkpt>
      <trkpt lat="45.75548" lon="5.21147">
        <ele>204.906094</ele>
        <time>2021-06-26T18:07:43.011Z</time>
      </trkpt>
      <trkpt lat="45.7555" lon="5.21159">
        <ele>204.911088</ele>
        <time>2021-06-26T18:07:44.531Z</time>
      </trkpt>
      <trkpt lat="45.75554" lon="5.21203">
        <ele>204.930696</ele>
        <time>2021-06-26T18:07:49.614Z</time>
      </trkpt>
      <trkpt lat="45.75559" lon="5.21258">
        <ele>204.954593</ele>
        <time>2021-06-26T18:07:55.801Z</time>
      </trkpt>
      <trkpt lat="45.75561" lon="5.21271">
        <ele>204.960377</ele>
        <time>2021-06-26T18:07:57.120Z</time>
      </trkpt>
      <trkpt lat="45.75567" lon="5.21327">
        <ele>204.984972</ele>
        <time>2021-06-26T18:08:02.799Z</time>
      </trkpt>
      <trkpt lat="45.75577" lon="5.21425">
        <ele>204.895591</ele>
        <time>2021-06-26T18:08:12.314Z</time>
      </trkpt>
      <trkpt lat="45.75596" lon="5.21577">
        <ele>204.562056</ele>
        <time>2021-06-26T18:08:27.382Z</time>
      </trkpt>
      <trkpt lat="45.75601" lon="5.21596">
        <ele>204.516388</ele>
        <time>2021-06-26T18:08:29.425Z</time>
      </trkpt>
      <trkpt lat="45.75618" lon="5.21627">
        <ele>204.414776</ele>
        <time>2021-06-26T18:08:33.122Z</time>
      </trkpt>
      <trkpt lat="45.75671" lon="5.21717">
        <ele>203.920177</ele>
        <time>2021-06-26T18:08:43.579Z</time>
      </trkpt>
      <trkpt lat="45.7569" lon="5.21785">
        <ele>203.608147</ele>
        <time>2021-06-26T18:08:50.119Z</time>
      </trkpt>
      <trkpt lat="45.75722" lon="5.21871">
        <ele>203.353312</ele>
        <time>2021-06-26T18:08:59.174Z</time>
      </trkpt>
      <trkpt lat="45.75729" lon="5.21891">
        <ele>203.350907</ele>
        <time>2021-06-26T18:09:01.107Z</time>
      </trkpt>
      <trkpt lat="45.75733" lon="5.21905">
        <ele>203.349131</ele>
        <time>2021-06-26T18:09:02.847Z</time>
      </trkpt>
      <trkpt lat="45.75738" lon="5.21919">
        <ele>203.34737</ele>
        <time>2021-06-26T18:09:04.406Z</time>
      </trkpt>
      <trkpt lat="45.7574" lon="5.2193">
        <ele>203.346104</ele>
        <time>2021-06-26T18:09:05.435Z</time>
      </trkpt>
      <trkpt lat="45.75742" lon="5.21954">
        <ele>203.343348</ele>
        <time>2021-06-26T18:09:07.998Z</time>
      </trkpt>
      <trkpt lat="45.75742" lon="5.21995">
        <ele>203.338756</ele>
        <time>2021-06-26T18:09:12.043Z</time>
      </trkpt>
      <trkpt lat="45.75741" lon="5.22">
        <ele>203.338238</ele>
        <time>2021-06-26T18:09:12.662Z</time>
      </trkpt>
      <trkpt lat="45.75732" lon="5.22063">
        <ele>203.33097</ele>
        <time>2021-06-26T18:09:19.849Z</time>
      </trkpt>
      <trkpt lat="45.7573" lon="5.22094">
        <ele>203.36648</ele>
        <time>2021-06-26T18:09:23.366Z</time>
      </trkpt>
      <trkpt lat="45.75729" lon="5.22109">
        <ele>203.418152</ele>
        <time>2021-06-26T18:09:25.254Z</time>
      </trkpt>
      <trkpt lat="45.7573" lon="5.22162">
        <ele>203.609904</ele>
        <time>2021-06-26T18:09:31.812Z</time>
      </trkpt>
      <trkpt lat="45.75731" lon="5.22181">
        <ele>203.677604</ele>
        <time>2021-06-26T18:09:34.055Z</time>
      </trkpt>
      <trkpt lat="45.75732" lon="5.22223">
        <ele>203.825865</ele>
        <time>2021-06-26T18:09:39.104Z</time>
      </trkpt>
      <trkpt lat="45.75733" lon="5.22231">
        <ele>203.855835</ele>
        <time>2021-06-26T18:09:40.127Z</time>
      </trkpt>
      <trkpt lat="45.75741" lon="5.22274">
        <ele>204.01688</ele>
        <time>2021-06-26T18:09:45.553Z</time>
      </trkpt>
      <trkpt lat="45.7575" lon="5.22309">
        <ele>204.1481</ele>
        <time>2021-06-26T18:09:50.007Z</time>
      </trkpt>
      <trkpt lat="45.75841" lon="5.22523">
        <ele>204.491025</ele>
        <time>2021-06-26T18:10:18.204Z</time>
      </trkpt>
      <trkpt lat="45.75876" lon="5.22567">
        <ele>204.304296</ele>
        <time>2021-06-26T18:10:24.538Z</time>
      </trkpt>
      <trkpt lat="45.75922" lon="5.22625">
        <ele>203.673559</ele>
        <time>2021-06-26T18:10:32.031Z</time>
      </trkpt>
      <trkpt lat="45.75997" lon="5.2272">
        <ele>202.632474</ele>
        <time>2021-06-26T18:10:43.727Z</time>
      </trkpt>
      <trkpt lat="45.76012" lon="5.22742">
        <ele>202.409149</ele>
        <time>2021-06-26T18:10:46.149Z</time>
      </trkpt>
      <trkpt lat="45.76035" lon="5.22774">
        <ele>202.067715</ele>
        <time>2021-06-26T18:10:49.919Z</time>
      </trkpt>
      <trkpt lat="45.76069" lon="5.22847">
        <ele>201.426908</ele>
        <time>2021-06-26T18:10:57.123Z</time>
      </trkpt>
      <trkpt lat="45.76258" lon="5.23278">
        <ele>199.927724</ele>
        <time>2021-06-26T18:11:45.273Z</time>
      </trkpt>
      <trkpt lat="45.76262" lon="5.23287">
        <ele>199.919896</ele>
        <time>2021-06-26T18:11:46.465Z</time>
      </trkpt>
      <trkpt lat="45.76299" lon="5.23372">
        <ele>199.897062</ele>
        <time>2021-06-26T18:11:57.669Z</time>
      </trkpt>
      <trkpt lat="45.76302" lon="5.23378">
        <ele>199.914323</ele>
        <time>2021-06-26T18:11:58.526Z</time>
      </trkpt>
      <trkpt lat="45.76383" lon="5.23599">
        <ele>200.526326</ele>
        <time>2021-06-26T18:12:27.416Z</time>
      </trkpt>
      <trkpt lat="45.76457" lon="5.238">
        <ele>200.771075</ele>
        <time>2021-06-26T18:12:51.782Z</time>
      </trkpt>
      <trkpt lat="45.76587" lon="5.24154">
        <ele>200.969979</ele>
        <time>2021-06-26T18:13:33.678Z</time>
      </trkpt>
      <trkpt lat="45.76609" lon="5.24244">
        <ele>201.046149</ele>
        <time>2021-06-26T18:13:43.895Z</time>
      </trkpt>
      <trkpt lat="45.76623" lon="5.2436">
        <ele>201.257156</ele>
        <time>2021-06-26T18:13:56.855Z</time>
      </trkpt>
      <trkpt lat="45.76641" lon="5.24529">
        <ele>201.638276</ele>
        <time>2021-06-26T18:14:16.214Z</time>
      </trkpt>
      <trkpt lat="45.7666" lon="5.2461">
        <ele>201.890991</ele>
        <time>2021-06-26T18:14:26.157Z</time>
      </trkpt>
      <trkpt lat="45.76775" lon="5.24869">
        <ele>202.864507</ele>
        <time>2021-06-26T18:15:01.772Z</time>
      </trkpt>
      <trkpt lat="45.76805" lon="5.24963">
        <ele>203.220059</ele>
        <time>2021-06-26T18:15:14.101Z</time>
      </trkpt>
      <trkpt lat="45.76814" lon="5.25005">
        <ele>203.363862</ele>
        <time>2021-06-26T18:15:19.208Z</time>
      </trkpt>
      <trkpt lat="45.76825" lon="5.25056">
        <ele>203.533997</ele>
        <time>2021-06-26T18:15:25.587Z</time>
      </trkpt>
      <trkpt lat="45.76857" lon="5.25141">
        <ele>203.838223</ele>
        <time>2021-06-26T18:15:36.920Z</time>
      </trkpt>
      <trkpt lat="45.7697" lon="5.25321">
        <ele>204.428546</ele>
        <time>2021-06-26T18:16:04.285Z</time>
      </trkpt>
      <trkpt lat="45.76998" lon="5.2538">
        <ele>204.573531</ele>
        <time>2021-06-26T18:16:12.149Z</time>
      </trkpt>
      <trkpt lat="45.77019" lon="5.25462">
        <ele>204.674876</ele>
        <time>2021-06-26T18:16:21.594Z</time>
      </trkpt>
      <trkpt lat="45.77029" lon="5.25498">
        <ele>204.699058</ele>
        <time>2021-06-26T18:16:25.830Z</time>
      </trkpt>
      <trkpt lat="45.77033" lon="5.25512">
        <ele>204.707921</ele>
        <time>2021-06-26T18:16:27.367Z</time>
      </trkpt>
      <trkpt lat="45.77041" lon="5.25545">
        <ele>204.729499</ele>
        <time>2021-06-26T18:16:31.070Z</time>
      </trkpt>
      <trkpt lat="45.77049" lon="5.25558">
        <ele>204.739752</ele>
        <time>2021-06-26T18:16:32.797Z</time>
      </trkpt>
      <trkpt lat="45.77082" lon="5.25657">
        <ele>204.815163</ele>
        <time>2021-06-26T18:16:44.089Z</time>
      </trkpt>
      <trkpt lat="45.77107" lon="5.25708">
        <ele>204.898996</ele>
        <time>2021-06-26T18:16:50.600Z</time>
      </trkpt>
      <trkpt lat="45.77111" lon="5.25725">
        <ele>204.924026</ele>
        <time>2021-06-26T18:16:52.672Z</time>
      </trkpt>
      <trkpt lat="45.77109" lon="5.25737">
        <ele>204.9397</ele>
        <time>2021-06-26T18:16:53.933Z</time>
      </trkpt>
      <trkpt lat="45.77102" lon="5.25752">
        <ele>204.96547</ele>
        <time>2021-06-26T18:16:55.860Z</time>
      </trkpt>
      <trkpt lat="45.771" lon="5.25762">
        <ele>204.979121</ele>
        <time>2021-06-26T18:16:56.979Z</time>
      </trkpt>
      <trkpt lat="45.7712" lon="5.25833">
        <ele>205.08178</ele>
        <time>2021-06-26T18:17:05.430Z</time>
      </trkpt>
      <trkpt lat="45.77122" lon="5.25849">
        <ele>205.103309</ele>
        <time>2021-06-26T18:17:07.130Z</time>
      </trkpt>
      <trkpt lat="45.7717" lon="5.26034">
        <ele>206.221182</ele>
        <time>2021-06-26T18:17:30.505Z</time>
      </trkpt>
      <trkpt lat="45.77222" lon="5.26231">
        <ele>208.914918</ele>
        <time>2021-06-26T18:18:02.194Z</time>
      </trkpt>
      <trkpt lat="45.77311" lon="5.26566">
        <ele>216.170849</ele>
        <time>2021-06-26T18:19:12.232Z</time>
      </trkpt>
      <trkpt lat="45.77331" lon="5.26641">
        <ele>217.711107</ele>
        <time>2021-06-26T18:19:26.835Z</time>
      </trkpt>
      <trkpt lat="45.77364" lon="5.26738">
        <ele>219.515265</ele>
        <time>2021-06-26T18:19:44.719Z</time>
      </trkpt>
      <trkpt lat="45.77402" lon="5.26898">
        <ele>222.609191</ele>
        <time>2021-06-26T18:20:12.446Z</time>
      </trkpt>
      <trkpt lat="45.77403" lon="5.26908">
        <ele>222.830581</ele>
        <time>2021-06-26T18:20:14.653Z</time>
      </trkpt>
      <trkpt lat="45.77406" lon="5.26933">
        <ele>223.373889</ele>
        <time>2021-06-26T18:20:19.550Z</time>
      </trkpt>
      <trkpt lat="45.77407" lon="5.26962">
        <ele>223.972576</ele>
        <time>2021-06-26T18:20:24.833Z</time>
      </trkpt>
      <trkpt lat="45.77411" lon="5.26993">
        <ele>224.652404</ele>
        <time>2021-06-26T18:20:30.800Z</time>
      </trkpt>
      <trkpt lat="45.77429" lon="5.27038">
        <ele>225.755674</ele>
        <time>2021-06-26T18:20:41.086Z</time>
      </trkpt>
      <trkpt lat="45.77432" lon="5.27044">
        <ele>225.903351</ele>
        <time>2021-06-26T18:20:42.297Z</time>
      </trkpt>
      <trkpt lat="45.77442" lon="5.27061">
        <ele>226.358651</ele>
        <time>2021-06-26T18:20:47.438Z</time>
      </trkpt>
      <trkpt lat="45.77476" lon="5.2711">
        <ele>227.528293</ele>
        <time>2021-06-26T18:21:01.797Z</time>
      </trkpt>
      <trkpt lat="45.77499" lon="5.27132">
        <ele>228.103757</ele>
        <time>2021-06-26T18:21:09.663Z</time>
      </trkpt>
      <trkpt lat="45.7754" lon="5.27144">
        <ele>228.976692</ele>
        <time>2021-06-26T18:21:19.283Z</time>
      </trkpt>
      <trkpt lat="45.7757" lon="5.27162">
        <ele>229.680455</ele>
        <time>2021-06-26T18:21:26.639Z</time>
      </trkpt>
      <trkpt lat="45.7759" lon="5.27183">
        <ele>230.19117</ele>
        <time>2021-06-26T18:21:31.159Z</time>
      </trkpt>
      <trkpt lat="45.77642" lon="5.27241">
        <ele>230.529403</ele>
        <time>2021-06-26T18:21:41.294Z</time>
      </trkpt>
      <trkpt lat="45.77656" lon="5.27272">
        <ele>230.488245</ele>
        <time>2021-06-26T18:21:44.688Z</time>
      </trkpt>
      <trkpt lat="45.77661" lon="5.27292">
        <ele>230.464747</ele>
        <time>2021-06-26T18:21:46.966Z</time>
      </trkpt>
      <trkpt lat="45.77656" lon="5.2752">
        <ele>230.843426</ele>
        <time>2021-06-26T18:22:08.314Z</time>
      </trkpt>
      <trkpt lat="45.77627" lon="5.27674">
        <ele>231.724231</ele>
        <time>2021-06-26T18:22:30.009Z</time>
      </trkpt>
      <trkpt lat="45.77616" lon="5.27815">
        <ele>236.224183</ele>
        <time>2021-06-26T18:22:56.549Z</time>
      </trkpt>
      <trkpt lat="45.776" lon="5.27897">
        <ele>238.948448</ele>
        <time>2021-06-26T18:23:17.506Z</time>
      </trkpt>
      <trkpt lat="45.776" lon="5.27907">
        <ele>239.277219</ele>
        <time>2021-06-26T18:23:22.103Z</time>
      </trkpt>
      <trkpt lat="45.77616" lon="5.28009">
        <ele>244.939429</ele>
        <time>2021-06-26T18:23:59.362Z</time>
      </trkpt>
      <trkpt lat="45.77617" lon="5.28042">
        <ele>246.934296</ele>
        <time>2021-06-26T18:24:10.213Z</time>
      </trkpt>
      <trkpt lat="45.77617" lon="5.28075">
        <ele>248.971208</ele>
        <time>2021-06-26T18:24:24.045Z</time>
      </trkpt>
      <trkpt lat="45.77617" lon="5.28102">
        <ele>250.560803</ele>
        <time>2021-06-26T18:24:31.483Z</time>
      </trkpt>
      <trkpt lat="45.7762" lon="5.28109">
        <ele>251.02816</ele>
        <time>2021-06-26T18:24:35.377Z</time>
      </trkpt>
      <trkpt lat="45.77651" lon="5.28124">
        <ele>253.873151</ele>
        <time>2021-06-26T18:24:49.755Z</time>
      </trkpt>
      <trkpt lat="45.77662" lon="5.2813">
        <ele>254.877373</ele>
        <time>2021-06-26T18:24:57.366Z</time>
      </trkpt>
      <trkpt lat="45.77687" lon="5.28142">
        <ele>256.681391</ele>
        <time>2021-06-26T18:25:09.834Z</time>
      </trkpt>
      <trkpt lat="45.77711" lon="5.2815">
        <ele>258.064819</ele>
        <time>2021-06-26T18:25:21.457Z</time>
      </trkpt>
      <trkpt lat="45.77731" lon="5.28151">
        <ele>259.189775</ele>
        <time>2021-06-26T18:25:34.285Z</time>
      </trkpt>
      <trkpt lat="45.77744" lon="5.28149">
        <ele>259.913281</ele>
        <time>2021-06-26T18:25:39.506Z</time>
      </trkpt>
      <trkpt lat="45.77747" lon="5.28147">
        <ele>260.122961</ele>
        <time>2021-06-26T18:25:40.882Z</time>
      </trkpt>
      <trkpt lat="45.77754" lon="5.28145">
        <ele>260.496595</ele>
        <time>2021-06-26T18:25:43.492Z</time>
      </trkpt>
      <trkpt lat="45.77771" lon="5.28139">
        <ele>261.497337</ele>
        <time>2021-06-26T18:25:52.081Z</time>
      </trkpt>
      <trkpt lat="45.77778" lon="5.28141">
        <ele>261.931781</ele>
        <time>2021-06-26T18:25:54.769Z</time>
      </trkpt>
      <trkpt lat="45.77787" lon="5.28144">
        <ele>262.413898</ele>
        <time>2021-06-26T18:25:57.130Z</time>
      </trkpt>
      <trkpt lat="45.77798" lon="5.28159">
        <ele>263.294208</ele>
        <time>2021-06-26T18:26:02.779Z</time>
      </trkpt>
      <trkpt lat="45.77824" lon="5.28198">
        <ele>265.414619</ele>
        <time>2021-06-26T18:26:09.061Z</time>
      </trkpt>
      <trkpt lat="45.77846" lon="5.28232">
        <ele>266.532397</ele>
        <time>2021-06-26T18:26:13.112Z</time>
      </trkpt>
      <trkpt lat="45.77853" lon="5.28241">
        <ele>266.796473</ele>
        <time>2021-06-26T18:26:14.465Z</time>
      </trkpt>
      <trkpt lat="45.77863" lon="5.2825">
        <ele>267.125952</ele>
        <time>2021-06-26T18:26:16.230Z</time>
      </trkpt>
      <trkpt lat="45.77874" lon="5.28259">
        <ele>267.489711</ele>
        <time>2021-06-26T18:26:18.695Z</time>
      </trkpt>
      <trkpt lat="45.77899" lon="5.28283">
        <ele>268.338835</ele>
        <time>2021-06-26T18:26:27.339Z</time>
      </trkpt>
      <trkpt lat="45.77901" lon="5.28283">
        <ele>268.413015</ele>
        <time>2021-06-26T18:26:27.904Z</time>
      </trkpt>
      <trkpt lat="45.77921" lon="5.28297">
        <ele>269.024701</ele>
        <time>2021-06-26T18:26:35.811Z</time>
      </trkpt>
      <trkpt lat="45.77941" lon="5.28302">
        <ele>269.580272</ele>
        <time>2021-06-26T18:26:41.285Z</time>
      </trkpt>
      <trkpt lat="45.77957" lon="5.28309">
        <ele>270.057725</ele>
        <time>2021-06-26T18:26:47.515Z</time>
      </trkpt>
      <trkpt lat="45.77966" lon="5.28314">
        <ele>270.338339</ele>
        <time>2021-06-26T18:26:50.857Z</time>
      </trkpt>
      <trkpt lat="45.78003" lon="5.2833">
        <ele>270.984052</ele>
        <time>2021-06-26T18:27:03.031Z</time>
      </trkpt>
      <trkpt lat="45.78034" lon="5.28343">
        <ele>271.111514</ele>
        <time>2021-06-26T18:27:12.211Z</time>
      </trkpt>
      <trkpt lat="45.78097" lon="5.28384">
        <ele>271.388689</ele>
        <time>2021-06-26T18:27:22.541Z</time>
      </trkpt>
      <trkpt lat="45.7812" lon="5.28399">
        <ele>271.49034</ele>
        <time>2021-06-26T18:27:27.640Z</time>
      </trkpt>
      <trkpt lat="45.78126" lon="5.28403">
        <ele>271.51698</ele>
        <time>2021-06-26T18:27:28.731Z</time>
      </trkpt>
      <trkpt lat="45.78137" lon="5.28411">
        <ele>271.568337</ele>
        <time>2021-06-26T18:27:29.982Z</time>
      </trkpt>
      <trkpt lat="45.78144" lon="5.28417">
        <ele>271.598031</ele>
        <time>2021-06-26T18:27:30.703Z</time>
      </trkpt>
      <trkpt lat="45.78149" lon="5.2842">
        <ele>271.618836</ele>
        <time>2021-06-26T18:27:31.249Z</time>
      </trkpt>
      <trkpt lat="45.78155" lon="5.28423">
        <ele>271.37439</ele>
        <time>2021-06-26T18:27:32.061Z</time>
      </trkpt>
      <trkpt lat="45.78164" lon="5.28427">
        <ele>270.673794</ele>
        <time>2021-06-26T18:27:33.059Z</time>
      </trkpt>
      <trkpt lat="45.78172" lon="5.28428">
        <ele>270.17686</ele>
        <time>2021-06-26T18:27:33.724Z</time>
      </trkpt>
      <trkpt lat="45.78202" lon="5.28422">
        <ele>268.059441</ele>
        <time>2021-06-26T18:27:36.587Z</time>
      </trkpt>
      <trkpt lat="45.78266" lon="5.28397">
        <ele>263.465706</ele>
        <time>2021-06-26T18:27:42.548Z</time>
      </trkpt>
      <trkpt lat="45.78287" lon="5.28392">
        <ele>262.065416</ele>
        <time>2021-06-26T18:27:44.277Z</time>
      </trkpt>
      <trkpt lat="45.78301" lon="5.28391">
        <ele>261.093927</ele>
        <time>2021-06-26T18:27:45.509Z</time>
      </trkpt>
      <trkpt lat="45.78319" lon="5.28395">
        <ele>259.824871</ele>
        <time>2021-06-26T18:27:47.080Z</time>
      </trkpt>
      <trkpt lat="45.78333" lon="5.28402">
        <ele>258.881784</ele>
        <time>2021-06-26T18:27:48.375Z</time>
      </trkpt>
      <trkpt lat="45.784" lon="5.28451">
        <ele>254.610584</ele>
        <time>2021-06-26T18:27:55.214Z</time>
      </trkpt>
      <trkpt lat="45.78435" lon="5.28484">
        <ele>252.27431</ele>
        <time>2021-06-26T18:27:59.138Z</time>
      </trkpt>
      <trkpt lat="45.78474" lon="5.28518">
        <ele>249.642138</ele>
        <time>2021-06-26T18:28:03.840Z</time>
      </trkpt>
      <trkpt lat="45.78479" lon="5.2852">
        <ele>249.341825</ele>
        <time>2021-06-26T18:28:04.351Z</time>
      </trkpt>
      <trkpt lat="45.78523" lon="5.28514">
        <ele>247.415989</ele>
        <time>2021-06-26T18:28:08.768Z</time>
      </trkpt>
      <trkpt lat="45.78554" lon="5.28485">
        <ele>245.821916</ele>
        <time>2021-06-26T18:28:12.365Z</time>
      </trkpt>
      <trkpt lat="45.78566" lon="5.28473">
        <ele>245.202577</ele>
        <time>2021-06-26T18:28:13.717Z</time>
      </trkpt>
      <trkpt lat="45.78605" lon="5.28492">
        <ele>243.468624</ele>
        <time>2021-06-26T18:28:17.563Z</time>
      </trkpt>
      <trkpt lat="45.78654" lon="5.28534">
        <ele>241.040371</ele>
        <time>2021-06-26T18:28:23.121Z</time>
      </trkpt>
      <trkpt lat="45.78659" lon="5.28538">
        <ele>240.785849</ele>
        <time>2021-06-26T18:28:23.656Z</time>
      </trkpt>
      <trkpt lat="45.78673" lon="5.28551">
        <ele>240.033854</ele>
        <time>2021-06-26T18:28:25.345Z</time>
      </trkpt>
      <trkpt lat="45.78698" lon="5.28572">
        <ele>238.816397</ele>
        <time>2021-06-26T18:28:28.028Z</time>
      </trkpt>
      <trkpt lat="45.78719" lon="5.28591">
        <ele>237.75164</ele>
        <time>2021-06-26T18:28:30.406Z</time>
      </trkpt>
      <trkpt lat="45.78746" lon="5.28608">
        <ele>236.454685</ele>
        <time>2021-06-26T18:28:33.345Z</time>
      </trkpt>
      <trkpt lat="45.78787" lon="5.28616">
        <ele>234.659757</ele>
        <time>2021-06-26T18:28:37.329Z</time>
      </trkpt>
      <trkpt lat="45.78827" lon="5.28641">
        <ele>232.948705</ele>
        <time>2021-06-26T18:28:41.537Z</time>
      </trkpt>
      <trkpt lat="45.78891" lon="5.28684">
        <ele>230.472175</ele>
        <time>2021-06-26T18:28:48.526Z</time>
      </trkpt>
      <trkpt lat="45.78924" lon="5.28694">
        <ele>229.27935</ele>
        <time>2021-06-26T18:28:51.918Z</time>
      </trkpt>
      <trkpt lat="45.79019" lon="5.28697">
        <ele>226.47663</ele>
        <time>2021-06-26T18:29:01.609Z</time>
      </trkpt>
      <trkpt lat="45.79088" lon="5.28713">
        <ele>224.977934</ele>
        <time>2021-06-26T18:29:09.098Z</time>
      </trkpt>
      <trkpt lat="45.79139" lon="5.28736">
        <ele>223.84847</ele>
        <time>2021-06-26T18:29:15.041Z</time>
      </trkpt>
      <trkpt lat="45.7931" lon="5.2886">
        <ele>222.669217</ele>
        <time>2021-06-26T18:29:39.698Z</time>
      </trkpt>
      <trkpt lat="45.79336" lon="5.28896">
        <ele>223.097638</ele>
        <time>2021-06-26T18:29:46.863Z</time>
      </trkpt>
      <trkpt lat="45.79349" lon="5.2893">
        <ele>223.486803</ele>
        <time>2021-06-26T18:29:52.528Z</time>
      </trkpt>
      <trkpt lat="45.79356" lon="5.28946">
        <ele>223.672507</ele>
        <time>2021-06-26T18:29:55.106Z</time>
      </trkpt>
      <trkpt lat="45.79364" lon="5.28965">
        <ele>223.900115</ele>
        <time>2021-06-26T18:29:58.791Z</time>
      </trkpt>
      <trkpt lat="45.7939" lon="5.29014">
        <ele>224.52144</ele>
        <time>2021-06-26T18:30:08.506Z</time>
      </trkpt>
      <trkpt lat="45.794" lon="5.29033">
        <ele>224.764368</ele>
        <time>2021-06-26T18:30:12.470Z</time>
      </trkpt>
      <trkpt lat="45.79422" lon="5.29065">
        <ele>225.222346</ele>
        <time>2021-06-26T18:30:19.691Z</time>
      </trkpt>
      <trkpt lat="45.79462" lon="5.29113">
        <ele>225.567649</ele>
        <time>2021-06-26T18:30:30.434Z</time>
      </trkpt>
      <trkpt lat="45.79496" lon="5.29138">
        <ele>225.813875</ele>
        <time>2021-06-26T18:30:37.771Z</time>
      </trkpt>
      <trkpt lat="45.79508" lon="5.29147">
        <ele>225.898633</ele>
        <time>2021-06-26T18:30:40.740Z</time>
      </trkpt>
      <trkpt lat="45.79572" lon="5.29189">
        <ele>226.341444</ele>
        <time>2021-06-26T18:30:51.450Z</time>
      </trkpt>
      <trkpt lat="45.79603" lon="5.29213">
        <ele>225.776503</ele>
        <time>2021-06-26T18:30:55.627Z</time>
      </trkpt>
      <trkpt lat="45.79638" lon="5.29239">
        <ele>224.873014</ele>
        <time>2021-06-26T18:30:59.988Z</time>
      </trkpt>
      <trkpt lat="45.79643" lon="5.29244">
        <ele>224.723548</ele>
        <time>2021-06-26T18:31:00.655Z</time>
      </trkpt>
      <trkpt lat="45.79648" lon="5.29247">
        <ele>224.604445</ele>
        <time>2021-06-26T18:31:01.198Z</time>
      </trkpt>
      <trkpt lat="45.79665" lon="5.29266">
        <ele>224.115655</ele>
        <time>2021-06-26T18:31:03.345Z</time>
      </trkpt>
      <trkpt lat="45.79676" lon="5.29276">
        <ele>223.823939</ele>
        <time>2021-06-26T18:31:04.644Z</time>
      </trkpt>
      <trkpt lat="45.79689" lon="5.29284">
        <ele>223.495261</ele>
        <time>2021-06-26T18:31:06.119Z</time>
      </trkpt>
      <trkpt lat="45.79692" lon="5.29285">
        <ele>223.427887</ele>
        <time>2021-06-26T18:31:06.403Z</time>
      </trkpt>
      <trkpt lat="45.79703" lon="5.2929">
        <ele>223.148406</ele>
        <time>2021-06-26T18:31:07.659Z</time>
      </trkpt>
      <trkpt lat="45.79704" lon="5.29299">
        <ele>222.999529</ele>
        <time>2021-06-26T18:31:08.314Z</time>
      </trkpt>
      <trkpt lat="45.79705" lon="5.29307">
        <ele>222.871766</ele>
        <time>2021-06-26T18:31:08.900Z</time>
      </trkpt>
      <trkpt lat="45.79707" lon="5.29316">
        <ele>222.722154</ele>
        <time>2021-06-26T18:31:09.588Z</time>
      </trkpt>
      <trkpt lat="45.79713" lon="5.29331">
        <ele>222.440291</ele>
        <time>2021-06-26T18:31:10.807Z</time>
      </trkpt>
      <trkpt lat="45.79721" lon="5.2936">
        <ele>221.957396</ele>
        <time>2021-06-26T18:31:13.142Z</time>
      </trkpt>
      <trkpt lat="45.79723" lon="5.29372">
        <ele>221.764413</ele>
        <time>2021-06-26T18:31:13.998Z</time>
      </trkpt>
      <trkpt lat="45.79725" lon="5.29402">
        <ele>221.288345</ele>
        <time>2021-06-26T18:31:16.260Z</time>
      </trkpt>
      <trkpt lat="45.79726" lon="5.29417">
        <ele>221.062091</ele>
        <time>2021-06-26T18:31:17.360Z</time>
      </trkpt>
      <trkpt lat="45.7973" lon="5.29454">
        <ele>220.469302</ele>
        <time>2021-06-26T18:31:20.184Z</time>
      </trkpt>
      <trkpt lat="45.79737" lon="5.29473">
        <ele>220.141273</ele>
        <time>2021-06-26T18:31:21.734Z</time>
      </trkpt>
      <trkpt lat="45.79746" lon="5.2949">
        <ele>219.789428</ele>
        <time>2021-06-26T18:31:23.453Z</time>
      </trkpt>
      <trkpt lat="45.79756" lon="5.29506">
        <ele>219.456744</ele>
        <time>2021-06-26T18:31:25.047Z</time>
      </trkpt>
      <trkpt lat="45.79762" lon="5.29513">
        <ele>219.300835</ele>
        <time>2021-06-26T18:31:25.732Z</time>
      </trkpt>
      <trkpt lat="45.79769" lon="5.2952">
        <ele>219.099326</ele>
        <time>2021-06-26T18:31:26.715Z</time>
      </trkpt>
      <trkpt lat="45.79775" lon="5.29553">
        <ele>218.570085</ele>
        <time>2021-06-26T18:31:29.365Z</time>
      </trkpt>
      <trkpt lat="45.79776" lon="5.29557">
        <ele>218.502881</ele>
        <time>2021-06-26T18:31:29.689Z</time>
      </trkpt>
      <trkpt lat="45.79778" lon="5.29566">
        <ele>218.363992</ele>
        <time>2021-06-26T18:31:30.383Z</time>
      </trkpt>
      <trkpt lat="45.79781" lon="5.29576">
        <ele>218.224677</ele>
        <time>2021-06-26T18:31:31.305Z</time>
      </trkpt>
      <trkpt lat="45.79785" lon="5.29591">
        <ele>218.152158</ele>
        <time>2021-06-26T18:31:32.597Z</time>
      </trkpt>
      <trkpt lat="45.79805" lon="5.29646">
        <ele>217.865958</ele>
        <time>2021-06-26T18:31:37.917Z</time>
      </trkpt>
      <trkpt lat="45.79832" lon="5.29701">
        <ele>217.557515</ele>
        <time>2021-06-26T18:31:44.270Z</time>
      </trkpt>
      <trkpt lat="45.7984" lon="5.29721">
        <ele>217.44987</ele>
        <time>2021-06-26T18:31:46.691Z</time>
      </trkpt>
      <trkpt lat="45.79864" lon="5.29789">
        <ele>217.100698</ele>
        <time>2021-06-26T18:31:54.173Z</time>
      </trkpt>
      <trkpt lat="45.7985" lon="5.29798">
        <ele>217.113095</ele>
        <time>2021-06-26T18:32:10.494Z</time>
      </trkpt>
      <trkpt lat="45.79825" lon="5.29813">
        <ele>217.325915</ele>
        <time>2021-06-26T18:32:40.662Z</time>
      </trkpt>
      <trkpt lat="45.79812" lon="5.29819">
        <ele>217.432517</ele>
        <time>2021-06-26T18:32:55.828Z</time>
      </trkpt>
      <trkpt lat="45.79825" lon="5.29813">
        <ele>217.539119</ele>
        <time>2021-06-26T18:33:10.921Z</time>
      </trkpt>
      <trkpt lat="45.7985" lon="5.29798">
        <ele>217.751938</ele>
        <time>2021-06-26T18:33:41.017Z</time>
      </trkpt>
      <trkpt lat="45.79864" lon="5.29789">
        <ele>217.865497</ele>
        <time>2021-06-26T18:33:57.207Z</time>
      </trkpt>
      <trkpt lat="45.79872" lon="5.29819">
        <ele>218.037835</ele>
        <time>2021-06-26T18:34:00.497Z</time>
      </trkpt>
      <trkpt lat="45.79882" lon="5.29859">
        <ele>218.26865</ele>
        <time>2021-06-26T18:34:06.293Z</time>
      </trkpt>
      <trkpt lat="45.79892" lon="5.29912">
        <ele>219.46451</ele>
        <time>2021-06-26T18:34:17.547Z</time>
      </trkpt>
      <trkpt lat="45.79891" lon="5.29968">
        <ele>222.12288</ele>
        <time>2021-06-26T18:34:30.376Z</time>
      </trkpt>
      <trkpt lat="45.79888" lon="5.29983">
        <ele>222.840068</ele>
        <time>2021-06-26T18:34:34.479Z</time>
      </trkpt>
      <trkpt lat="45.79882" lon="5.29993">
        <ele>223.432487</ele>
        <time>2021-06-26T18:34:39.329Z</time>
      </trkpt>
      <trkpt lat="45.79866" lon="5.30009">
        <ele>224.728191</ele>
        <time>2021-06-26T18:34:48.659Z</time>
      </trkpt>
      <trkpt lat="45.79859" lon="5.30018">
        <ele>225.357043</ele>
        <time>2021-06-26T18:34:53.193Z</time>
      </trkpt>
      <trkpt lat="45.79849" lon="5.30028">
        <ele>226.209035</ele>
        <time>2021-06-26T18:35:01.892Z</time>
      </trkpt>
      <trkpt lat="45.79829" lon="5.3005">
        <ele>227.860319</ele>
        <time>2021-06-26T18:35:13.010Z</time>
      </trkpt>
      <trkpt lat="45.79819" lon="5.30062">
        <ele>228.746216</ele>
        <time>2021-06-26T18:35:20.596Z</time>
      </trkpt>
      <trkpt lat="45.79803" lon="5.30081">
        <ele>230.127451</ele>
        <time>2021-06-26T18:35:28.734Z</time>
      </trkpt>
      <trkpt lat="45.79789" lon="5.30108">
        <ele>231.21189</ele>
        <time>2021-06-26T18:35:39.496Z</time>
      </trkpt>
      <trkpt lat="45.79771" lon="5.30142">
        <ele>232.391458</ele>
        <time>2021-06-26T18:35:52.568Z</time>
      </trkpt>
      <trkpt lat="45.79761" lon="5.30166">
        <ele>233.165699</ele>
        <time>2021-06-26T18:35:59.381Z</time>
      </trkpt>
      <trkpt lat="45.79751" lon="5.30204">
        <ele>234.293724</ele>
        <time>2021-06-26T18:36:10.611Z</time>
      </trkpt>
      <trkpt lat="45.79741" lon="5.30238">
        <ele>235.310413</ele>
        <time>2021-06-26T18:36:18.309Z</time>
      </trkpt>
      <trkpt lat="45.79704" lon="5.30328">
        <ele>237.471027</ele>
        <time>2021-06-26T18:36:31.244Z</time>
      </trkpt>
      <trkpt lat="45.79658" lon="5.30386">
        <ele>236.793616</ele>
        <time>2021-06-26T18:36:37.315Z</time>
      </trkpt>
      <trkpt lat="45.7963" lon="5.30402">
        <ele>236.450167</ele>
        <time>2021-06-26T18:36:40.436Z</time>
      </trkpt>
      <trkpt lat="45.79546" lon="5.30432">
        <ele>235.986019</ele>
        <time>2021-06-26T18:36:51.906Z</time>
      </trkpt>
      <trkpt lat="45.79348" lon="5.30566">
        <ele>241.979918</ele>
        <time>2021-06-26T18:37:54.727Z</time>
      </trkpt>
      <trkpt lat="45.79238" lon="5.30668">
        <ele>245.224687</ele>
        <time>2021-06-26T18:38:27.576Z</time>
      </trkpt>
      <trkpt lat="45.79205" lon="5.30706">
        <ele>245.181401</ele>
        <time>2021-06-26T18:38:34.487Z</time>
      </trkpt>
      <trkpt lat="45.79159" lon="5.30771">
        <ele>245.116589</ele>
        <time>2021-06-26T18:38:42.652Z</time>
      </trkpt>
      <trkpt lat="45.79128" lon="5.308">
        <ele>245.079231</ele>
        <time>2021-06-26T18:38:46.808Z</time>
      </trkpt>
      <trkpt lat="45.79095" lon="5.30817">
        <ele>245.100988</ele>
        <time>2021-06-26T18:38:50.961Z</time>
      </trkpt>
      <trkpt lat="45.79079" lon="5.30819">
        <ele>245.633239</ele>
        <time>2021-06-26T18:38:53.270Z</time>
      </trkpt>
      <trkpt lat="45.79018" lon="5.30808">
        <ele>247.601345</ele>
        <time>2021-06-26T18:39:07.619Z</time>
      </trkpt>
      <trkpt lat="45.78976" lon="5.30792">
        <ele>248.998316</ele>
        <time>2021-06-26T18:39:20.599Z</time>
      </trkpt>
      <trkpt lat="45.78894" lon="5.30753">
        <ele>252.388265</ele>
        <time>2021-06-26T18:39:53.475Z</time>
      </trkpt>
      <trkpt lat="45.78873" lon="5.30748">
        <ele>253.520575</ele>
        <time>2021-06-26T18:40:01.950Z</time>
      </trkpt>
      <trkpt lat="45.78859" lon="5.30752">
        <ele>254.303523</ele>
        <time>2021-06-26T18:40:09.046Z</time>
      </trkpt>
      <trkpt lat="45.78721" lon="5.308">
        <ele>260.924717</ele>
        <time>2021-06-26T18:40:59.476Z</time>
      </trkpt>
      <trkpt lat="45.78674" lon="5.30806">
        <ele>261.836212</ele>
        <time>2021-06-26T18:41:07.918Z</time>
      </trkpt>
      <trkpt lat="45.78639" lon="5.30794">
        <ele>262.543227</ele>
        <time>2021-06-26T18:41:13.928Z</time>
      </trkpt>
      <trkpt lat="45.78599" lon="5.30765">
        <ele>263.420979</ele>
        <time>2021-06-26T18:41:21.997Z</time>
      </trkpt>
      <trkpt lat="45.78582" lon="5.30764">
        <ele>263.741208</ele>
        <time>2021-06-26T18:41:25.283Z</time>
      </trkpt>
      <trkpt lat="45.78564" lon="5.30773">
        <ele>264.436761</ele>
        <time>2021-06-26T18:41:29.436Z</time>
      </trkpt>
      <trkpt lat="45.7853" lon="5.30827">
        <ele>266.763706</ele>
        <time>2021-06-26T18:41:42.610Z</time>
      </trkpt>
      <trkpt lat="45.78468" lon="5.30863">
        <ele>269.871317</ele>
        <time>2021-06-26T18:42:06.239Z</time>
      </trkpt>
      <trkpt lat="45.78451" lon="5.30878">
        <ele>270.813323</ele>
        <time>2021-06-26T18:42:14.692Z</time>
      </trkpt>
      <trkpt lat="45.78437" lon="5.30903">
        <ele>271.825566</ele>
        <time>2021-06-26T18:42:24.241Z</time>
      </trkpt>
      <trkpt lat="45.78414" lon="5.30984">
        <ele>274.79174</ele>
        <time>2021-06-26T18:42:51.397Z</time>
      </trkpt>
      <trkpt lat="45.78396" lon="5.31007">
        <ele>275.965816</ele>
        <time>2021-06-26T18:43:01.405Z</time>
      </trkpt>
      <trkpt lat="45.78374" lon="5.31016">
        <ele>277.074038</ele>
        <time>2021-06-26T18:43:10.409Z</time>
      </trkpt>
      <trkpt lat="45.78337" lon="5.3101">
        <ele>278.903943</ele>
        <time>2021-06-26T18:43:23.708Z</time>
      </trkpt>
      <trkpt lat="45.78194" lon="5.30948">
        <ele>280.917756</ele>
        <time>2021-06-26T18:43:50.579Z</time>
      </trkpt>
      <trkpt lat="45.78132" lon="5.3094">
        <ele>280.882264</ele>
        <time>2021-06-26T18:43:57.534Z</time>
      </trkpt>
      <trkpt lat="45.78118" lon="5.30948">
        <ele>280.855015</ele>
        <time>2021-06-26T18:43:59.241Z</time>
      </trkpt>
      <trkpt lat="45.78095" lon="5.30977">
        <ele>280.688582</ele>
        <time>2021-06-26T18:44:02.870Z</time>
      </trkpt>
      <trkpt lat="45.78066" lon="5.31003">
        <ele>280.504138</ele>
        <time>2021-06-26T18:44:06.953Z</time>
      </trkpt>
      <trkpt lat="45.78034" lon="5.31016">
        <ele>280.324087</ele>
        <time>2021-06-26T18:44:11.071Z</time>
      </trkpt>
      <trkpt lat="45.77994" lon="5.31077">
        <ele>280.009514</ele>
        <time>2021-06-26T18:44:19.794Z</time>
      </trkpt>
      <trkpt lat="45.77975" lon="5.31092">
        <ele>279.921818</ele>
        <time>2021-06-26T18:44:23.708Z</time>
      </trkpt>
      <trkpt lat="45.77931" lon="5.3111">
        <ele>280.252714</ele>
        <time>2021-06-26T18:44:32.425Z</time>
      </trkpt>
      <trkpt lat="45.77846" lon="5.31127">
        <ele>280.859126</ele>
        <time>2021-06-26T18:44:48.557Z</time>
      </trkpt>
      <trkpt lat="45.77822" lon="5.31137">
        <ele>281.036453</ele>
        <time>2021-06-26T18:44:53.010Z</time>
      </trkpt>
      <trkpt lat="45.77799" lon="5.31161">
        <ele>281.123193</ele>
        <time>2021-06-26T18:44:57.765Z</time>
      </trkpt>
      <trkpt lat="45.77719" lon="5.31272">
        <ele>280.304509</ele>
        <time>2021-06-26T18:45:13.252Z</time>
      </trkpt>
      <trkpt lat="45.77624" lon="5.31299">
        <ele>279.017693</ele>
        <time>2021-06-26T18:45:23.861Z</time>
      </trkpt>
      <trkpt lat="45.7747" lon="5.31305">
        <ele>275.604741</ele>
        <time>2021-06-26T18:45:39.975Z</time>
      </trkpt>
      <trkpt lat="45.77423" lon="5.31331">
        <ele>275.56627</ele>
        <time>2021-06-26T18:45:45.723Z</time>
      </trkpt>
      <trkpt lat="45.77378" lon="5.31375">
        <ele>275.52435</ele>
        <time>2021-06-26T18:45:53.411Z</time>
      </trkpt>
      <trkpt lat="45.77337" lon="5.3145">
        <ele>275.514767</ele>
        <time>2021-06-26T18:46:06.788Z</time>
      </trkpt>
      <trkpt lat="45.7732" lon="5.31478">
        <ele>276.299244</ele>
        <time>2021-06-26T18:46:13.391Z</time>
      </trkpt>
      <trkpt lat="45.77207" lon="5.31633">
        <ele>281.007005</ele>
        <time>2021-06-26T18:46:57.812Z</time>
      </trkpt>
      <trkpt lat="45.77188" lon="5.31671">
        <ele>281.911173</ele>
        <time>2021-06-26T18:47:06.520Z</time>
      </trkpt>
      <trkpt lat="45.77185" lon="5.31699">
        <ele>282.467298</ele>
        <time>2021-06-26T18:47:11.890Z</time>
      </trkpt>
      <trkpt lat="45.77188" lon="5.31784">
        <ele>284.121691</ele>
        <time>2021-06-26T18:47:27.656Z</time>
      </trkpt>
      <trkpt lat="45.77178" lon="5.31836">
        <ele>285.19398</ele>
        <time>2021-06-26T18:47:37.452Z</time>
      </trkpt>
      <trkpt lat="45.77149" lon="5.31913">
        <ele>286.500448</ele>
        <time>2021-06-26T18:47:52.149Z</time>
      </trkpt>
      <trkpt lat="45.77134" lon="5.31939">
        <ele>286.883401</ele>
        <time>2021-06-26T18:47:57.524Z</time>
      </trkpt>
      <trkpt lat="45.7692" lon="5.32012">
        <ele>289.723238</ele>
        <time>2021-06-26T18:48:41.705Z</time>
      </trkpt>
      <trkpt lat="45.76803" lon="5.32009">
        <ele>290.479255</ele>
        <time>2021-06-26T18:49:00.303Z</time>
      </trkpt>
      <trkpt lat="45.76667" lon="5.32069">
        <ele>290.784467</ele>
        <time>2021-06-26T18:49:22.344Z</time>
      </trkpt>
      <trkpt lat="45.76605" lon="5.32086">
        <ele>290.734808</ele>
        <time>2021-06-26T18:49:32.017Z</time>
      </trkpt>
      <trkpt lat="45.76576" lon="5.32106">
        <ele>290.705546</ele>
        <time>2021-06-26T18:49:36.939Z</time>
      </trkpt>
      <trkpt lat="45.76521" lon="5.32168">
        <ele>290.643249</ele>
        <time>2021-06-26T18:49:47.015Z</time>
      </trkpt>
      <trkpt lat="45.76483" lon="5.32203">
        <ele>290.391109</ele>
        <time>2021-06-26T18:49:52.926Z</time>
      </trkpt>
      <trkpt lat="45.76415" lon="5.32248">
        <ele>289.761061</ele>
        <time>2021-06-26T18:50:02.275Z</time>
      </trkpt>
      <trkpt lat="45.76342" lon="5.32283">
        <ele>289.112907</ele>
        <time>2021-06-26T18:50:11.573Z</time>
      </trkpt>
      <trkpt lat="45.76303" lon="5.32296">
        <ele>288.745508</ele>
        <time>2021-06-26T18:50:16.484Z</time>
      </trkpt>
      <trkpt lat="45.76202" lon="5.32343">
        <ele>287.770721</ele>
        <time>2021-06-26T18:50:29.676Z</time>
      </trkpt>
      <trkpt lat="45.76179" lon="5.3237">
        <ele>287.500404</ele>
        <time>2021-06-26T18:50:33.468Z</time>
      </trkpt>
      <trkpt lat="45.7616" lon="5.32416">
        <ele>287.217014</ele>
        <time>2021-06-26T18:50:38.150Z</time>
      </trkpt>
      <trkpt lat="45.76147" lon="5.32467">
        <ele>286.93076</ele>
        <time>2021-06-26T18:50:42.966Z</time>
      </trkpt>
      <trkpt lat="45.76133" lon="5.32488">
        <ele>286.782935</ele>
        <time>2021-06-26T18:50:45.444Z</time>
      </trkpt>
      <trkpt lat="45.76111" lon="5.3251">
        <ele>286.57991</ele>
        <time>2021-06-26T18:50:48.876Z</time>
      </trkpt>
      <trkpt lat="45.76081" lon="5.32527">
        <ele>286.343045</ele>
        <time>2021-06-26T18:50:52.899Z</time>
      </trkpt>
      <trkpt lat="45.76038" lon="5.3253">
        <ele>286.097783</ele>
        <time>2021-06-26T18:50:58.434Z</time>
      </trkpt>
      <trkpt lat="45.7601" lon="5.3254">
        <ele>286.048108</ele>
        <time>2021-06-26T18:51:02.282Z</time>
      </trkpt>
      <trkpt lat="45.75931" lon="5.32618">
        <ele>285.885142</ele>
        <time>2021-06-26T18:51:15.665Z</time>
      </trkpt>
      <trkpt lat="45.75685" lon="5.32884">
        <ele>286.955659</ele>
        <time>2021-06-26T18:52:06.697Z</time>
      </trkpt>
      <trkpt lat="45.75672" lon="5.32915">
        <ele>287.079072</ele>
        <time>2021-06-26T18:52:11.152Z</time>
      </trkpt>
      <trkpt lat="45.75634" lon="5.32919">
        <ele>287.263861</ele>
        <time>2021-06-26T18:52:17.785Z</time>
      </trkpt>
      <trkpt lat="45.75374" lon="5.33">
        <ele>288.048353</ele>
        <time>2021-06-26T18:53:01.280Z</time>
      </trkpt>
      <trkpt lat="45.75343" lon="5.33002">
        <ele>288.002102</ele>
        <time>2021-06-26T18:53:05.392Z</time>
      </trkpt>
      <trkpt lat="45.75303" lon="5.33004">
        <ele>287.940959</ele>
        <time>2021-06-26T18:53:10.756Z</time>
      </trkpt>
      <trkpt lat="45.7526" lon="5.33001">
        <ele>287.877371</ele>
        <time>2021-06-26T18:53:16.512Z</time>
      </trkpt>
      <trkpt lat="45.75251" lon="5.32997">
        <ele>287.863214</ele>
        <time>2021-06-26T18:53:17.709Z</time>
      </trkpt>
      <trkpt lat="45.75239" lon="5.32991">
        <ele>287.875023</ele>
        <time>2021-06-26T18:53:19.568Z</time>
      </trkpt>
      <trkpt lat="45.7522" lon="5.32982">
        <ele>287.892406</ele>
        <time>2021-06-26T18:53:22.314Z</time>
      </trkpt>
      <trkpt lat="45.75182" lon="5.32965">
        <ele>287.928447</ele>
        <time>2021-06-26T18:53:28.281Z</time>
      </trkpt>
      <trkpt lat="45.7517" lon="5.32959">
        <ele>287.939978</ele>
        <time>2021-06-26T18:53:30.205Z</time>
      </trkpt>
      <trkpt lat="45.75152" lon="5.32952">
        <ele>287.956714</ele>
        <time>2021-06-26T18:53:33.191Z</time>
      </trkpt>
      <trkpt lat="45.75101" lon="5.32931">
        <ele>288.004378</ele>
        <time>2021-06-26T18:53:41.406Z</time>
      </trkpt>
      <trkpt lat="45.75094" lon="5.32929">
        <ele>288.011229</ele>
        <time>2021-06-26T18:53:42.765Z</time>
      </trkpt>
      <trkpt lat="45.75066" lon="5.32923">
        <ele>288.056593</ele>
        <time>2021-06-26T18:53:47.286Z</time>
      </trkpt>
      <trkpt lat="45.75055" lon="5.32924">
        <ele>288.081858</ele>
        <time>2021-06-26T18:53:49.195Z</time>
      </trkpt>
      <trkpt lat="45.75035" lon="5.32926">
        <ele>288.131668</ele>
        <time>2021-06-26T18:53:52.531Z</time>
      </trkpt>
      <trkpt lat="45.75026" lon="5.32925">
        <ele>288.151835</ele>
        <time>2021-06-26T18:53:53.913Z</time>
      </trkpt>
      <trkpt lat="45.75024" lon="5.32925">
        <ele>288.158638</ele>
        <time>2021-06-26T18:53:54.413Z</time>
      </trkpt>
      <trkpt lat="45.75023" lon="5.32923">
        <ele>288.162556</ele>
        <time>2021-06-26T18:53:54.716Z</time>
      </trkpt>
      <trkpt lat="45.75016" lon="5.3292">
        <ele>288.180381</ele>
        <time>2021-06-26T18:53:56.006Z</time>
      </trkpt>
      <trkpt lat="45.75015" lon="5.32922">
        <ele>288.184431</ele>
        <time>2021-06-26T18:53:56.280Z</time>
      </trkpt>
      <trkpt lat="45.75" lon="5.32906">
        <ele>288.229623</ele>
        <time>2021-06-26T18:53:59.233Z</time>
      </trkpt>
      <trkpt lat="45.74979" lon="5.32893">
        <ele>288.284289</ele>
        <time>2021-06-26T18:54:02.966Z</time>
      </trkpt>
      <trkpt lat="45.74966" lon="5.32887">
        <ele>288.318499</ele>
        <time>2021-06-26T18:54:05.089Z</time>
      </trkpt>
      <trkpt lat="45.74955" lon="5.32881">
        <ele>288.346033</ele>
        <time>2021-06-26T18:54:06.996Z</time>
      </trkpt>
      <trkpt lat="45.74946" lon="5.32878">
        <ele>288.367708</ele>
        <time>2021-06-26T18:54:08.372Z</time>
      </trkpt>
      <trkpt lat="45.74941" lon="5.32876">
        <ele>288.380887</ele>
        <time>2021-06-26T18:54:09.173Z</time>
      </trkpt>
      <trkpt lat="45.74927" lon="5.3287">
        <ele>288.416251</ele>
        <time>2021-06-26T18:54:11.359Z</time>
      </trkpt>
      <trkpt lat="45.74911" lon="5.3286">
        <ele>288.459908</ele>
        <time>2021-06-26T18:54:13.994Z</time>
      </trkpt>
      <trkpt lat="45.749" lon="5.3285">
        <ele>288.446546</ele>
        <time>2021-06-26T18:54:15.808Z</time>
      </trkpt>
      <trkpt lat="45.74891" lon="5.3284">
        <ele>288.433739</ele>
        <time>2021-06-26T18:54:17.267Z</time>
      </trkpt>
      <trkpt lat="45.74877" lon="5.32807">
        <ele>288.401833</ele>
        <time>2021-06-26T18:54:20.968Z</time>
      </trkpt>
      <trkpt lat="45.7485" lon="5.32733">
        <ele>288.332777</ele>
        <time>2021-06-26T18:54:29.170Z</time>
      </trkpt>
      <trkpt lat="45.74845" lon="5.32719">
        <ele>288.320218</ele>
        <time>2021-06-26T18:54:30.703Z</time>
      </trkpt>
      <trkpt lat="45.74821" lon="5.32655">
        <ele>288.261081</ele>
        <time>2021-06-26T18:54:38.008Z</time>
      </trkpt>
      <trkpt lat="45.74804" lon="5.3261">
        <ele>288.473403</ele>
        <time>2021-06-26T18:54:43.538Z</time>
      </trkpt>
      <trkpt lat="45.74794" lon="5.32591">
        <ele>288.616098</ele>
        <time>2021-06-26T18:54:46.271Z</time>
      </trkpt>
      <trkpt lat="45.74781" lon="5.32578">
        <ele>288.751766</ele>
        <time>2021-06-26T18:54:48.858Z</time>
      </trkpt>
      <trkpt lat="45.74748" lon="5.32562">
        <ele>289.048035</ele>
        <time>2021-06-26T18:54:54.885Z</time>
      </trkpt>
      <trkpt lat="45.74712" lon="5.32555">
        <ele>289.350891</ele>
        <time>2021-06-26T18:55:01.460Z</time>
      </trkpt>
      <trkpt lat="45.74663" lon="5.32544">
        <ele>289.774249</ele>
        <time>2021-06-26T18:55:11.268Z</time>
      </trkpt>
      <trkpt lat="45.74406" lon="5.32485">
        <ele>296.180543</ele>
        <time>2021-06-26T18:56:14.818Z</time>
      </trkpt>
      <trkpt lat="45.74317" lon="5.32464">
        <ele>298.847852</ele>
        <time>2021-06-26T18:56:40.085Z</time>
      </trkpt>
      <trkpt lat="45.74301" lon="5.32455">
        <ele>299.457377</ele>
        <time>2021-06-26T18:56:45.090Z</time>
      </trkpt>
      <trkpt lat="45.7429" lon="5.32441">
        <ele>300.100031</ele>
        <time>2021-06-26T18:56:49.430Z</time>
      </trkpt>
      <trkpt lat="45.74285" lon="5.3242">
        <ele>300.760777</ele>
        <time>2021-06-26T18:56:54.111Z</time>
      </trkpt>
      <trkpt lat="45.74308" lon="5.32319">
        <ele>303.935397</ele>
        <time>2021-06-26T18:57:17.809Z</time>
      </trkpt>
      <trkpt lat="45.74306" lon="5.32299">
        <ele>304.553677</ele>
        <time>2021-06-26T18:57:22.545Z</time>
      </trkpt>
      <trkpt lat="45.74296" lon="5.3228">
        <ele>305.248813</ele>
        <time>2021-06-26T18:57:27.956Z</time>
      </trkpt>
      <trkpt lat="45.7427" lon="5.32256">
        <ele>306.547185</ele>
        <time>2021-06-26T18:57:38.071Z</time>
      </trkpt>
      <trkpt lat="45.74237" lon="5.3223">
        <ele>308.552669</ele>
        <time>2021-06-26T18:57:51.180Z</time>
      </trkpt>
      <trkpt lat="45.74115" lon="5.32131">
        <ele>316.1646</ele>
        <time>2021-06-26T18:58:43.894Z</time>
      </trkpt>
      <trkpt lat="45.74081" lon="5.32104">
        <ele>318.323472</ele>
        <time>2021-06-26T18:58:58.623Z</time>
      </trkpt>
      <trkpt lat="45.74077" lon="5.32101">
        <ele>318.548997</ele>
        <time>2021-06-26T18:59:00.342Z</time>
      </trkpt>
      <trkpt lat="45.74052" lon="5.32084">
        <ele>320.079884</ele>
        <time>2021-06-26T18:59:10.170Z</time>
      </trkpt>
      <trkpt lat="45.74028" lon="5.32074">
        <ele>321.456305</ele>
        <time>2021-06-26T18:59:19.390Z</time>
      </trkpt>
      <trkpt lat="45.73988" lon="5.3206">
        <ele>323.673014</ele>
        <time>2021-06-26T18:59:34.747Z</time>
      </trkpt>
      <trkpt lat="45.73972" lon="5.32048">
        <ele>324.659191</ele>
        <time>2021-06-26T18:59:41.564Z</time>
      </trkpt>
      <trkpt lat="45.73937" lon="5.31969">
        <ele>327.879553</ele>
        <time>2021-06-26T19:00:04.494Z</time>
      </trkpt>
      <trkpt lat="45.73925" lon="5.31956">
        <ele>328.561336</ele>
        <time>2021-06-26T19:00:10.027Z</time>
      </trkpt>
      <trkpt lat="45.73907" lon="5.31949">
        <ele>329.387595</ele>
        <time>2021-06-26T19:00:15.706Z</time>
      </trkpt>
      <trkpt lat="45.73882" lon="5.31944">
        <ele>330.500866</ele>
        <time>2021-06-26T19:00:23.929Z</time>
      </trkpt>
      <trkpt lat="45.73815" lon="5.31931">
        <ele>333.536332</ele>
        <time>2021-06-26T19:00:45.186Z</time>
      </trkpt>
      <trkpt lat="45.73787" lon="5.31913">
        <ele>334.801647</ele>
        <time>2021-06-26T19:00:54.775Z</time>
      </trkpt>
      <trkpt lat="45.73761" lon="5.31864">
        <ele>336.31987</ele>
        <time>2021-06-26T19:01:07.850Z</time>
      </trkpt>
      <trkpt lat="45.73748" lon="5.31832">
        <ele>337.221386</ele>
        <time>2021-06-26T19:01:15.120Z</time>
      </trkpt>
      <trkpt lat="45.73734" lon="5.3181">
        <ele>337.922349</ele>
        <time>2021-06-26T19:01:20.011Z</time>
      </trkpt>
      <trkpt lat="45.73723" lon="5.31799">
        <ele>338.409947</ele>
        <time>2021-06-26T19:01:23.969Z</time>
      </trkpt>
      <trkpt lat="45.73704" lon="5.3179">
        <ele>339.119583</ele>
        <time>2021-06-26T19:01:28.967Z</time>
      </trkpt>
      <trkpt lat="45.73698" lon="5.31787">
        <ele>339.344502</ele>
        <time>2021-06-26T19:01:31.382Z</time>
      </trkpt>
      <trkpt lat="45.73673" lon="5.31778">
        <ele>340.234894</ele>
        <time>2021-06-26T19:01:38.448Z</time>
      </trkpt>
      <trkpt lat="45.73635" lon="5.31765">
        <ele>341.630887</ele>
        <time>2021-06-26T19:01:50.536Z</time>
      </trkpt>
      <trkpt lat="45.73579" lon="5.31714">
        <ele>343.982603</ele>
        <time>2021-06-26T19:02:10.658Z</time>
      </trkpt>
      <trkpt lat="45.73555" lon="5.3169">
        <ele>345.041735</ele>
        <time>2021-06-26T19:02:20.241Z</time>
      </trkpt>
      <trkpt lat="45.73547" lon="5.31684">
        <ele>345.36205</ele>
        <time>2021-06-26T19:02:22.735Z</time>
      </trkpt>
      <trkpt lat="45.73544" lon="5.31682">
        <ele>345.494202</ele>
        <time>2021-06-26T19:02:23.759Z</time>
      </trkpt>
      <trkpt lat="45.73539" lon="5.31678">
        <ele>345.682129</ele>
        <time>2021-06-26T19:02:25.417Z</time>
      </trkpt>
      <trkpt lat="45.7351" lon="5.31668">
        <ele>346.751417</ele>
        <time>2021-06-26T19:02:33.557Z</time>
      </trkpt>
      <trkpt lat="45.73469" lon="5.3165">
        <ele>347.499364</ele>
        <time>2021-06-26T19:02:44.364Z</time>
      </trkpt>
      <trkpt lat="45.7345" lon="5.31637">
        <ele>347.711144</ele>
        <time>2021-06-26T19:02:49.041Z</time>
      </trkpt>
      <trkpt lat="45.73445" lon="5.31634">
        <ele>347.776029</ele>
        <time>2021-06-26T19:02:50.395Z</time>
      </trkpt>
      <trkpt lat="45.73439" lon="5.31618">
        <ele>347.896048</ele>
        <time>2021-06-26T19:02:53.109Z</time>
      </trkpt>
      <trkpt lat="45.7344" lon="5.3158">
        <ele>348.169711</ele>
        <time>2021-06-26T19:02:58.075Z</time>
      </trkpt>
      <trkpt lat="45.73447" lon="5.31531">
        <ele>348.526127</ele>
        <time>2021-06-26T19:03:03.567Z</time>
      </trkpt>
      <trkpt lat="45.73452" lon="5.31463">
        <ele>349.006</ele>
        <time>2021-06-26T19:03:10.139Z</time>
      </trkpt>
      <trkpt lat="45.7346" lon="5.31384">
        <ele>348.936093</ele>
        <time>2021-06-26T19:03:17.358Z</time>
      </trkpt>
      <trkpt lat="45.73464" lon="5.31338">
        <ele>348.885671</ele>
        <time>2021-06-26T19:03:21.530Z</time>
      </trkpt>
      <trkpt lat="45.73471" lon="5.31256">
        <ele>348.796684</ele>
        <time>2021-06-26T19:03:29.584Z</time>
      </trkpt>
      <trkpt lat="45.73474" lon="5.31206">
        <ele>348.743072</ele>
        <time>2021-06-26T19:03:35.308Z</time>
      </trkpt>
      <trkpt lat="45.73458" lon="5.31164">
        <ele>349.178062</ele>
        <time>2021-06-26T19:03:41.301Z</time>
      </trkpt>
      <trkpt lat="45.73296" lon="5.30938">
        <ele>352.990798</ele>
        <time>2021-06-26T19:04:29.347Z</time>
      </trkpt>
      <trkpt lat="45.73258" lon="5.30914">
        <ele>353.974039</ele>
        <time>2021-06-26T19:04:40.539Z</time>
      </trkpt>
      <trkpt lat="45.73174" lon="5.30878">
        <ele>356.07372</ele>
        <time>2021-06-26T19:05:03.820Z</time>
      </trkpt>
      <trkpt lat="45.7314" lon="5.30852">
        <ele>357.048046</ele>
        <time>2021-06-26T19:05:13.662Z</time>
      </trkpt>
      <trkpt lat="45.73131" lon="5.30827">
        <ele>357.558814</ele>
        <time>2021-06-26T19:05:19.215Z</time>
      </trkpt>
      <trkpt lat="45.73129" lon="5.30811">
        <ele>357.852663</ele>
        <time>2021-06-26T19:05:21.740Z</time>
      </trkpt>
      <trkpt lat="45.73118" lon="5.30626">
        <ele>360.652168</ele>
        <time>2021-06-26T19:05:52.985Z</time>
      </trkpt>
      <trkpt lat="45.73116" lon="5.30606">
        <ele>360.862037</ele>
        <time>2021-06-26T19:05:55.823Z</time>
      </trkpt>
      <trkpt lat="45.73114" lon="5.30573">
        <ele>361.217302</ele>
        <time>2021-06-26T19:06:00.106Z</time>
      </trkpt>
      <trkpt lat="45.73114" lon="5.30548">
        <ele>361.471748</ele>
        <time>2021-06-26T19:06:03.049Z</time>
      </trkpt>
      <trkpt lat="45.7312" lon="5.30504">
        <ele>361.944878</ele>
        <time>2021-06-26T19:06:08.999Z</time>
      </trkpt>
      <trkpt lat="45.7313" lon="5.3047">
        <ele>362.334679</ele>
        <time>2021-06-26T19:06:14.214Z</time>
      </trkpt>
      <trkpt lat="45.73161" lon="5.30372">
        <ele>363.674616</ele>
        <time>2021-06-26T19:06:29.981Z</time>
      </trkpt>
      <trkpt lat="45.73205" lon="5.30229">
        <ele>365.725815</ele>
        <time>2021-06-26T19:06:54.750Z</time>
      </trkpt>
      <trkpt lat="45.73303" lon="5.29926">
        <ele>370.528286</ele>
        <time>2021-06-26T19:07:51.611Z</time>
      </trkpt>
      <trkpt lat="45.73395" lon="5.29572">
        <ele>371.577348</ele>
        <time>2021-06-26T19:08:38.860Z</time>
      </trkpt>
      <trkpt lat="45.73393" lon="5.29535">
        <ele>371.448495</ele>
        <time>2021-06-26T19:08:41.599Z</time>
      </trkpt>
      <trkpt lat="45.7337" lon="5.2949">
        <ele>371.013927</ele>
        <time>2021-06-26T19:08:45.701Z</time>
      </trkpt>
      <trkpt lat="45.73355" lon="5.29472">
        <ele>370.215691</ele>
        <time>2021-06-26T19:08:47.772Z</time>
      </trkpt>
      <trkpt lat="45.73347" lon="5.29462">
        <ele>369.787075</ele>
        <time>2021-06-26T19:08:48.713Z</time>
      </trkpt>
      <trkpt lat="45.73302" lon="5.29409">
        <ele>367.360164</ele>
        <time>2021-06-26T19:08:54.493Z</time>
      </trkpt>
      <trkpt lat="45.73308" lon="5.29383">
        <ele>366.591087</ele>
        <time>2021-06-26T19:08:56.216Z</time>
      </trkpt>
      <trkpt lat="45.73326" lon="5.29365">
        <ele>365.664405</ele>
        <time>2021-06-26T19:08:58.365Z</time>
      </trkpt>
      <trkpt lat="45.73367" lon="5.2935">
        <ele>363.915779</ele>
        <time>2021-06-26T19:09:02.270Z</time>
      </trkpt>
      <trkpt lat="45.73411" lon="5.29357">
        <ele>361.543802</ele>
        <time>2021-06-26T19:09:06.545Z</time>
      </trkpt>
      <trkpt lat="45.73429" lon="5.29354">
        <ele>360.515468</ele>
        <time>2021-06-26T19:09:08.388Z</time>
      </trkpt>
      <trkpt lat="45.73497" lon="5.29324">
        <ele>356.61339</ele>
        <time>2021-06-26T19:09:15.062Z</time>
      </trkpt>
      <trkpt lat="45.73545" lon="5.29253">
        <ele>352.31919</ele>
        <time>2021-06-26T19:09:21.213Z</time>
      </trkpt>
      <trkpt lat="45.73588" lon="5.29226">
        <ele>348.550666</ele>
        <time>2021-06-26T19:09:25.459Z</time>
      </trkpt>
      <trkpt lat="45.73593" lon="5.29211">
        <ele>347.600341</ele>
        <time>2021-06-26T19:09:26.542Z</time>
      </trkpt>
      <trkpt lat="45.73593" lon="5.29192">
        <ele>346.523933</ele>
        <time>2021-06-26T19:09:27.674Z</time>
      </trkpt>
      <trkpt lat="45.73583" lon="5.29105">
        <ele>341.594358</ele>
        <time>2021-06-26T19:09:33.115Z</time>
      </trkpt>
      <trkpt lat="45.73585" lon="5.29091">
        <ele>340.762668</ele>
        <time>2021-06-26T19:09:33.981Z</time>
      </trkpt>
      <trkpt lat="45.7359" lon="5.29073">
        <ele>339.703573</ele>
        <time>2021-06-26T19:09:35.205Z</time>
      </trkpt>
      <trkpt lat="45.73596" lon="5.2906">
        <ele>338.80668</ele>
        <time>2021-06-26T19:09:36.177Z</time>
      </trkpt>
      <trkpt lat="45.73607" lon="5.29044">
        <ele>337.518036</ele>
        <time>2021-06-26T19:09:37.502Z</time>
      </trkpt>
      <trkpt lat="45.73611" lon="5.29026">
        <ele>336.3838</ele>
        <time>2021-06-26T19:09:38.736Z</time>
      </trkpt>
      <trkpt lat="45.73609" lon="5.29008">
        <ele>335.338714</ele>
        <time>2021-06-26T19:09:39.829Z</time>
      </trkpt>
      <trkpt lat="45.736" lon="5.28994">
        <ele>334.266401</ele>
        <time>2021-06-26T19:09:40.953Z</time>
      </trkpt>
      <trkpt lat="45.73594" lon="5.28983">
        <ele>333.465716</ele>
        <time>2021-06-26T19:09:41.821Z</time>
      </trkpt>
      <trkpt lat="45.73559" lon="5.28941">
        <ele>329.630992</ele>
        <time>2021-06-26T19:09:45.947Z</time>
      </trkpt>
      <trkpt lat="45.7352" lon="5.28905">
        <ele>325.781991</ele>
        <time>2021-06-26T19:09:50.009Z</time>
      </trkpt>
      <trkpt lat="45.73505" lon="5.28871">
        <ele>323.418055</ele>
        <time>2021-06-26T19:09:52.462Z</time>
      </trkpt>
      <trkpt lat="45.73481" lon="5.2883">
        <ele>320.183096</ele>
        <time>2021-06-26T19:09:55.726Z</time>
      </trkpt>
      <trkpt lat="45.73447" lon="5.28783">
        <ele>316.053988</ele>
        <time>2021-06-26T19:09:59.893Z</time>
      </trkpt>
      <trkpt lat="45.73381" lon="5.28633">
        <ele>305.908</ele>
        <time>2021-06-26T19:10:10.690Z</time>
      </trkpt>
      <trkpt lat="45.73367" lon="5.28539">
        <ele>301.106286</ele>
        <time>2021-06-26T19:10:16.651Z</time>
      </trkpt>
      <trkpt lat="45.73356" lon="5.28509">
        <ele>299.372129</ele>
        <time>2021-06-26T19:10:18.843Z</time>
      </trkpt>
      <trkpt lat="45.73333" lon="5.28469">
        <ele>296.78816</ele>
        <time>2021-06-26T19:10:22.154Z</time>
      </trkpt>
      <trkpt lat="45.73321" lon="5.28372">
        <ele>293.778762</ele>
        <time>2021-06-26T19:10:28.719Z</time>
      </trkpt>
      <trkpt lat="45.73278" lon="5.28144">
        <ele>288.233428</ele>
        <time>2021-06-26T19:10:45.502Z</time>
      </trkpt>
      <trkpt lat="45.73241" lon="5.28039">
        <ele>286.525042</ele>
        <time>2021-06-26T19:10:54.469Z</time>
      </trkpt>
      <trkpt lat="45.73211" lon="5.27892">
        <ele>285.105973</ele>
        <time>2021-06-26T19:11:07.253Z</time>
      </trkpt>
      <trkpt lat="45.73209" lon="5.27844">
        <ele>284.92304</ele>
        <time>2021-06-26T19:11:11.709Z</time>
      </trkpt>
      <trkpt lat="45.73209" lon="5.27818">
        <ele>284.822587</ele>
        <time>2021-06-26T19:11:14.393Z</time>
      </trkpt>
      <trkpt lat="45.73198" lon="5.27639">
        <ele>283.567057</ele>
        <time>2021-06-26T19:11:32.880Z</time>
      </trkpt>
      <trkpt lat="45.73167" lon="5.27466">
        <ele>281.458963</ele>
        <time>2021-06-26T19:11:46.629Z</time>
      </trkpt>
      <trkpt lat="45.73161" lon="5.2744">
        <ele>280.644042</ele>
        <time>2021-06-26T19:11:48.671Z</time>
      </trkpt>
      <trkpt lat="45.7316" lon="5.27434">
        <ele>280.440162</ele>
        <time>2021-06-26T19:11:49.003Z</time>
      </trkpt>
      <trkpt lat="45.7313" lon="5.27342">
        <ele>276.720072</ele>
        <time>2021-06-26T19:11:55.844Z</time>
      </trkpt>
      <trkpt lat="45.73119" lon="5.27294">
        <ele>274.883265</ele>
        <time>2021-06-26T19:11:59.087Z</time>
      </trkpt>
      <trkpt lat="45.73115" lon="5.27204">
        <ele>271.375913</ele>
        <time>2021-06-26T19:12:04.786Z</time>
      </trkpt>
      <trkpt lat="45.73143" lon="5.27123">
        <ele>266.192704</ele>
        <time>2021-06-26T19:12:10.449Z</time>
      </trkpt>
      <trkpt lat="45.73139" lon="5.27101">
        <ele>264.882133</ele>
        <time>2021-06-26T19:12:11.851Z</time>
      </trkpt>
      <trkpt lat="45.73121" lon="5.27072">
        <ele>262.682934</ele>
        <time>2021-06-26T19:12:14.188Z</time>
      </trkpt>
      <trkpt lat="45.73116" lon="5.27053">
        <ele>261.497061</ele>
        <time>2021-06-26T19:12:15.440Z</time>
      </trkpt>
      <trkpt lat="45.73107" lon="5.26958">
        <ele>256.067311</ele>
        <time>2021-06-26T19:12:21.277Z</time>
      </trkpt>
      <trkpt lat="45.73095" lon="5.269">
        <ele>252.769397</ele>
        <time>2021-06-26T19:12:24.960Z</time>
      </trkpt>
      <trkpt lat="45.73093" lon="5.26887">
        <ele>252.00155</ele>
        <time>2021-06-26T19:12:25.821Z</time>
      </trkpt>
      <trkpt lat="45.73071" lon="5.26826">
        <ele>248.243615</ele>
        <time>2021-06-26T19:12:30.017Z</time>
      </trkpt>
      <trkpt lat="45.73063" lon="5.26793">
        <ele>246.299172</ele>
        <time>2021-06-26T19:12:32.209Z</time>
      </trkpt>
      <trkpt lat="45.73051" lon="5.26707">
        <ele>241.941958</ele>
        <time>2021-06-26T19:12:37.694Z</time>
      </trkpt>
      <trkpt lat="45.73043" lon="5.26637">
        <ele>239.317384</ele>
        <time>2021-06-26T19:12:42.380Z</time>
      </trkpt>
      <trkpt lat="45.73041" lon="5.26623">
        <ele>238.803562</ele>
        <time>2021-06-26T19:12:43.247Z</time>
      </trkpt>
      <trkpt lat="45.73039" lon="5.26571">
        <ele>236.8992</ele>
        <time>2021-06-26T19:12:46.692Z</time>
      </trkpt>
      <trkpt lat="45.73005" lon="5.26415">
        <ele>231.907696</ele>
        <time>2021-06-26T19:12:57.774Z</time>
      </trkpt>
      <trkpt lat="45.73008" lon="5.26362">
        <ele>230.756164</ele>
        <time>2021-06-26T19:13:01.650Z</time>
      </trkpt>
      <trkpt lat="45.73014" lon="5.26346">
        <ele>230.359973</ele>
        <time>2021-06-26T19:13:03.004Z</time>
      </trkpt>
      <trkpt lat="45.73052" lon="5.26297">
        <ele>228.760263</ele>
        <time>2021-06-26T19:13:08.413Z</time>
      </trkpt>
      <trkpt lat="45.73086" lon="5.2624">
        <ele>227.343868</ele>
        <time>2021-06-26T19:13:13.790Z</time>
      </trkpt>
      <trkpt lat="45.73114" lon="5.26178">
        <ele>226.187132</ele>
        <time>2021-06-26T19:13:19.421Z</time>
      </trkpt>
      <trkpt lat="45.73133" lon="5.26128">
        <ele>225.313575</ele>
        <time>2021-06-26T19:13:23.701Z</time>
      </trkpt>
      <trkpt lat="45.73135" lon="5.26123">
        <ele>225.22535</ele>
        <time>2021-06-26T19:13:24.072Z</time>
      </trkpt>
      <trkpt lat="45.73146" lon="5.26049">
        <ele>224.047919</ele>
        <time>2021-06-26T19:13:29.995Z</time>
      </trkpt>
      <trkpt lat="45.73182" lon="5.25893">
        <ele>222.628782</ele>
        <time>2021-06-26T19:13:42.793Z</time>
      </trkpt>
      <trkpt lat="45.73213" lon="5.25825">
        <ele>221.968351</ele>
        <time>2021-06-26T19:13:50.426Z</time>
      </trkpt>
      <trkpt lat="45.73224" lon="5.25804">
        <ele>221.77972</ele>
        <time>2021-06-26T19:13:52.959Z</time>
      </trkpt>
      <trkpt lat="45.73203" lon="5.25777">
        <ele>222.148764</ele>
        <time>2021-06-26T19:13:57.139Z</time>
      </trkpt>
      <trkpt lat="45.7319" lon="5.25762">
        <ele>222.360188</ele>
        <time>2021-06-26T19:13:59.898Z</time>
      </trkpt>
      <trkpt lat="45.73173" lon="5.25744">
        <ele>222.629847</ele>
        <time>2021-06-26T19:14:03.584Z</time>
      </trkpt>
      <trkpt lat="45.7315" lon="5.25715">
        <ele>223.034098</ele>
        <time>2021-06-26T19:14:10.948Z</time>
      </trkpt>
      <trkpt lat="45.73093" lon="5.25662">
        <ele>223.918238</ele>
        <time>2021-06-26T19:14:26.692Z</time>
      </trkpt>
      <trkpt lat="45.73068" lon="5.25645">
        <ele>224.225083</ele>
        <time>2021-06-26T19:14:32.792Z</time>
      </trkpt>
      <trkpt lat="45.73041" lon="5.25637">
        <ele>224.479095</ele>
        <time>2021-06-26T19:14:39.193Z</time>
      </trkpt>
      <trkpt lat="45.73022" lon="5.25632">
        <ele>224.651211</ele>
        <time>2021-06-26T19:14:43.064Z</time>
      </trkpt>
      <trkpt lat="45.72986" lon="5.25615">
        <ele>224.998969</ele>
        <time>2021-06-26T19:14:50.298Z</time>
      </trkpt>
      <trkpt lat="45.72983" lon="5.25605">
        <ele>225.067259</ele>
        <time>2021-06-26T19:14:52.624Z</time>
      </trkpt>
      <trkpt lat="45.72979" lon="5.25575">
        <ele>225.262171</ele>
        <time>2021-06-26T19:14:55.324Z</time>
      </trkpt>
      <trkpt lat="45.72968" lon="5.25505">
        <ele>225.720769</ele>
        <time>2021-06-26T19:15:04.502Z</time>
      </trkpt>
      <trkpt lat="45.72949" lon="5.25461">
        <ele>225.438409</ele>
        <time>2021-06-26T19:15:09.278Z</time>
      </trkpt>
      <trkpt lat="45.72927" lon="5.25453">
        <ele>225.229608</ele>
        <time>2021-06-26T19:15:11.540Z</time>
      </trkpt>
      <trkpt lat="45.72816" lon="5.25465">
        <ele>224.18867</ele>
        <time>2021-06-26T19:15:24.493Z</time>
      </trkpt>
      <trkpt lat="45.72724" lon="5.25469">
        <ele>224.562793</ele>
        <time>2021-06-26T19:15:39.935Z</time>
      </trkpt>
      <trkpt lat="45.72716" lon="5.25469">
        <ele>224.609066</ele>
        <time>2021-06-26T19:15:41.559Z</time>
      </trkpt>
      <trkpt lat="45.72686" lon="5.25471">
        <ele>224.797355</ele>
        <time>2021-06-26T19:15:47.251Z</time>
      </trkpt>
      <trkpt lat="45.72678" lon="5.25477">
        <ele>224.854839</ele>
        <time>2021-06-26T19:15:49.668Z</time>
      </trkpt>
      <trkpt lat="45.72635" lon="5.25512">
        <ele>225.157042</ele>
        <time>2021-06-26T19:15:58.376Z</time>
      </trkpt>
      <trkpt lat="45.7263" lon="5.25515">
        <ele>225.176843</ele>
        <time>2021-06-26T19:15:59.539Z</time>
      </trkpt>
      <trkpt lat="45.72625" lon="5.2551">
        <ele>225.168454</ele>
        <time>2021-06-26T19:16:00.787Z</time>
      </trkpt>
      <trkpt lat="45.7262" lon="5.25502">
        <ele>225.156435</ele>
        <time>2021-06-26T19:16:02.743Z</time>
      </trkpt>
      <trkpt lat="45.72616" lon="5.25497">
        <ele>225.14902</ele>
        <time>2021-06-26T19:16:04.412Z</time>
      </trkpt>
      <trkpt lat="45.72615" lon="5.25495">
        <ele>225.145919</ele>
        <time>2021-06-26T19:16:04.847Z</time>
      </trkpt>
      <trkpt lat="45.72601" lon="5.25462">
        <ele>225.106777</ele>
        <time>2021-06-26T19:16:10.186Z</time>
      </trkpt>
      <trkpt lat="45.72595" lon="5.25467">
        <ele>225.095867</ele>
        <time>2021-06-26T19:16:12.544Z</time>
      </trkpt>
      <trkpt lat="45.72583" lon="5.2543">
        <ele>225.053501</ele>
        <time>2021-06-26T19:16:16.739Z</time>
      </trkpt>
      <trkpt lat="45.72573" lon="5.2539">
        <ele>225.00935</ele>
        <time>2021-06-26T19:16:21.094Z</time>
      </trkpt>
      <trkpt lat="45.72555" lon="5.25315">
        <ele>224.927188</ele>
        <time>2021-06-26T19:16:28.310Z</time>
      </trkpt>
      <trkpt lat="45.72534" lon="5.25225">
        <ele>224.054207</ele>
        <time>2021-06-26T19:16:35.453Z</time>
      </trkpt>
      <trkpt lat="45.72527" lon="5.25199">
        <ele>223.755461</ele>
        <time>2021-06-26T19:16:37.634Z</time>
      </trkpt>
      <trkpt lat="45.72506" lon="5.25134">
        <ele>222.992665</ele>
        <time>2021-06-26T19:16:43.467Z</time>
      </trkpt>
      <trkpt lat="45.725" lon="5.25121">
        <ele>222.827276</ele>
        <time>2021-06-26T19:16:44.699Z</time>
      </trkpt>
      <trkpt lat="45.72497" lon="5.25114">
        <ele>222.733073</ele>
        <time>2021-06-26T19:16:45.418Z</time>
      </trkpt>
      <trkpt lat="45.72484" lon="5.25088">
        <ele>222.405834</ele>
        <time>2021-06-26T19:16:48.064Z</time>
      </trkpt>
      <trkpt lat="45.72486" lon="5.25059">
        <ele>222.106183</ele>
        <time>2021-06-26T19:16:51.474Z</time>
      </trkpt>
      <trkpt lat="45.72488" lon="5.25036">
        <ele>221.887025</ele>
        <time>2021-06-26T19:16:54.303Z</time>
      </trkpt>
      <trkpt lat="45.72496" lon="5.24983">
        <ele>221.376137</ele>
        <time>2021-06-26T19:17:00.595Z</time>
      </trkpt>
      <trkpt lat="45.72497" lon="5.24975">
        <ele>221.306561</ele>
        <time>2021-06-26T19:17:01.457Z</time>
      </trkpt>
      <trkpt lat="45.72505" lon="5.24915">
        <ele>220.733429</ele>
        <time>2021-06-26T19:17:08.536Z</time>
      </trkpt>
      <trkpt lat="45.72513" lon="5.24862">
        <ele>220.227484</ele>
        <time>2021-06-26T19:17:14.994Z</time>
      </trkpt>
      <trkpt lat="45.72516" lon="5.24834">
        <ele>219.957923</ele>
        <time>2021-06-26T19:17:18.386Z</time>
      </trkpt>
      <trkpt lat="45.72487" lon="5.24843">
        <ele>219.543764</ele>
        <time>2021-06-26T19:17:23.462Z</time>
      </trkpt>
      <trkpt lat="45.72478" lon="5.24846">
        <ele>219.405567</ele>
        <time>2021-06-26T19:17:25.069Z</time>
      </trkpt>
      <trkpt lat="45.72463" lon="5.24846">
        <ele>219.194256</ele>
        <time>2021-06-26T19:17:27.585Z</time>
      </trkpt>
      <trkpt lat="45.72458" lon="5.24844">
        <ele>219.122945</ele>
        <time>2021-06-26T19:17:28.334Z</time>
      </trkpt>
      <trkpt lat="45.72467" lon="5.24793">
        <ele>218.593819</ele>
        <time>2021-06-26T19:17:32.569Z</time>
      </trkpt>
      <trkpt lat="45.72473" lon="5.24771">
        <ele>218.362207</ele>
        <time>2021-06-26T19:17:34.354Z</time>
      </trkpt>
      <trkpt lat="45.72496" lon="5.24674">
        <ele>217.324445</ele>
        <time>2021-06-26T19:17:42.603Z</time>
      </trkpt>
      <trkpt lat="45.72497" lon="5.24668">
        <ele>217.265233</ele>
        <time>2021-06-26T19:17:43.103Z</time>
      </trkpt>
      <trkpt lat="45.725" lon="5.24656">
        <ele>217.157761</ele>
        <time>2021-06-26T19:17:44.234Z</time>
      </trkpt>
      <trkpt lat="45.72502" lon="5.24628">
        <ele>216.995042</ele>
        <time>2021-06-26T19:17:46.512Z</time>
      </trkpt>
      <trkpt lat="45.725" lon="5.24596">
        <ele>216.806876</ele>
        <time>2021-06-26T19:17:49.397Z</time>
      </trkpt>
      <trkpt lat="45.72498" lon="5.2458">
        <ele>216.707162</ele>
        <time>2021-06-26T19:17:50.831Z</time>
      </trkpt>
      <trkpt lat="45.72496" lon="5.24559">
        <ele>216.585186</ele>
        <time>2021-06-26T19:17:52.677Z</time>
      </trkpt>
      <trkpt lat="45.72482" lon="5.24447">
        <ele>215.918979</ele>
        <time>2021-06-26T19:18:02.762Z</time>
      </trkpt>
      <trkpt lat="45.7248" lon="5.24427">
        <ele>215.798396</ele>
        <time>2021-06-26T19:18:04.527Z</time>
      </trkpt>
      <trkpt lat="45.72478" lon="5.24408">
        <ele>215.689536</ele>
        <time>2021-06-26T19:18:06.262Z</time>
      </trkpt>
      <trkpt lat="45.72449" lon="5.24113">
        <ele>214.759309</ele>
        <time>2021-06-26T19:18:34.952Z</time>
      </trkpt>
      <trkpt lat="45.72448" lon="5.24106">
        <ele>214.721055</ele>
        <time>2021-06-26T19:18:35.627Z</time>
      </trkpt>
      <trkpt lat="45.72445" lon="5.24081">
        <ele>214.590596</ele>
        <time>2021-06-26T19:18:37.857Z</time>
      </trkpt>
      <trkpt lat="45.72435" lon="5.23979">
        <ele>214.046155</ele>
        <time>2021-06-26T19:18:46.905Z</time>
      </trkpt>
      <trkpt lat="45.72428" lon="5.23947">
        <ele>213.868456</ele>
        <time>2021-06-26T19:18:49.769Z</time>
      </trkpt>
      <trkpt lat="45.72432" lon="5.23945">
        <ele>213.837072</ele>
        <time>2021-06-26T19:18:50.281Z</time>
      </trkpt>
      <trkpt lat="45.7244" lon="5.23931">
        <ele>213.744622</ele>
        <time>2021-06-26T19:18:51.820Z</time>
      </trkpt>
      <trkpt lat="45.7244" lon="5.23914">
        <ele>213.652298</ele>
        <time>2021-06-26T19:18:53.342Z</time>
      </trkpt>
      <trkpt lat="45.72438" lon="5.23908">
        <ele>213.620729</ele>
        <time>2021-06-26T19:18:53.847Z</time>
      </trkpt>
      <trkpt lat="45.72435" lon="5.23904">
        <ele>213.58774</ele>
        <time>2021-06-26T19:18:54.304Z</time>
      </trkpt>
      <trkpt lat="45.72425" lon="5.23897">
        <ele>213.476418</ele>
        <time>2021-06-26T19:18:55.808Z</time>
      </trkpt>
      <trkpt lat="45.72421" lon="5.23897">
        <ele>213.439032</ele>
        <time>2021-06-26T19:18:56.280Z</time>
      </trkpt>
      <trkpt lat="45.72421" lon="5.23886">
        <ele>213.368574</ele>
        <time>2021-06-26T19:18:57.214Z</time>
      </trkpt>
      <trkpt lat="45.7242" lon="5.23863">
        <ele>213.220894</ele>
        <time>2021-06-26T19:18:59.121Z</time>
      </trkpt>
      <trkpt lat="45.72407" lon="5.23765">
        <ele>212.571941</ele>
        <time>2021-06-26T19:19:07.729Z</time>
      </trkpt>
      <trkpt lat="45.72386" lon="5.23672">
        <ele>211.928474</ele>
        <time>2021-06-26T19:19:16.353Z</time>
      </trkpt>
      <trkpt lat="45.72385" lon="5.2361">
        <ele>211.60344</ele>
        <time>2021-06-26T19:19:21.705Z</time>
      </trkpt>
      <trkpt lat="45.72385" lon="5.23598">
        <ele>211.539768</ele>
        <time>2021-06-26T19:19:22.713Z</time>
      </trkpt>
      <trkpt lat="45.72383" lon="5.23524">
        <ele>211.15072</ele>
        <time>2021-06-26T19:19:29.321Z</time>
      </trkpt>
      <trkpt lat="45.72384" lon="5.2346">
        <ele>210.815488</ele>
        <time>2021-06-26T19:19:35.103Z</time>
      </trkpt>
      <trkpt lat="45.72385" lon="5.23451">
        <ele>210.766372</ele>
        <time>2021-06-26T19:19:35.860Z</time>
      </trkpt>
      <trkpt lat="45.72389" lon="5.2338">
        <ele>210.466975</ele>
        <time>2021-06-26T19:19:42.388Z</time>
      </trkpt>
      <trkpt lat="45.7239" lon="5.23333">
        <ele>210.329913</ele>
        <time>2021-06-26T19:19:46.596Z</time>
      </trkpt>
      <trkpt lat="45.72389" lon="5.23315">
        <ele>210.276477</ele>
        <time>2021-06-26T19:19:48.311Z</time>
      </trkpt>
      <trkpt lat="45.72387" lon="5.2328">
        <ele>210.174856</ele>
        <time>2021-06-26T19:19:51.411Z</time>
      </trkpt>
      <trkpt lat="45.72382" lon="5.23189">
        <ele>209.908549</ele>
        <time>2021-06-26T19:20:00.305Z</time>
      </trkpt>
      <trkpt lat="45.7238" lon="5.23155">
        <ele>209.810348</ele>
        <time>2021-06-26T19:20:03.836Z</time>
      </trkpt>
      <trkpt lat="45.72378" lon="5.23124">
        <ele>209.783113</ele>
        <time>2021-06-26T19:20:06.986Z</time>
      </trkpt>
      <trkpt lat="45.72375" lon="5.23074">
        <ele>209.739944</ele>
        <time>2021-06-26T19:20:11.978Z</time>
      </trkpt>
      <trkpt lat="45.72377" lon="5.23074">
        <ele>209.737337</ele>
        <time>2021-06-26T19:20:12.433Z</time>
      </trkpt>
      <trkpt lat="45.7239" lon="5.23068">
        <ele>209.720519</ele>
        <time>2021-06-26T19:20:14.350Z</time>
      </trkpt>
      <trkpt lat="45.72399" lon="5.23057">
        <ele>209.705414</ele>
        <time>2021-06-26T19:20:16.036Z</time>
      </trkpt>
      <trkpt lat="45.72404" lon="5.23039">
        <ele>209.689254</ele>
        <time>2021-06-26T19:20:18.044Z</time>
      </trkpt>
      <trkpt lat="45.72403" lon="5.23021">
        <ele>209.673874</ele>
        <time>2021-06-26T19:20:19.785Z</time>
      </trkpt>
      <trkpt lat="45.724" lon="5.23012">
        <ele>209.664659</ele>
        <time>2021-06-26T19:20:20.813Z</time>
      </trkpt>
      <trkpt lat="45.72392" lon="5.23001">
        <ele>209.651451</ele>
        <time>2021-06-26T19:20:22.294Z</time>
      </trkpt>
      <trkpt lat="45.72382" lon="5.22994">
        <ele>209.637826</ele>
        <time>2021-06-26T19:20:24.001Z</time>
      </trkpt>
      <trkpt lat="45.7238" lon="5.22994">
        <ele>209.634559</ele>
        <time>2021-06-26T19:20:24.352Z</time>
      </trkpt>
      <trkpt lat="45.72376" lon="5.2296">
        <ele>209.604687</ele>
        <time>2021-06-26T19:20:27.787Z</time>
      </trkpt>
      <trkpt lat="45.72374" lon="5.22819">
        <ele>209.273795</ele>
        <time>2021-06-26T19:20:41.958Z</time>
      </trkpt>
      <trkpt lat="45.72376" lon="5.22753">
        <ele>209.104708</ele>
        <time>2021-06-26T19:20:47.867Z</time>
      </trkpt>
      <trkpt lat="45.72377" lon="5.22734">
        <ele>209.055339</ele>
        <time>2021-06-26T19:20:49.540Z</time>
      </trkpt>
      <trkpt lat="45.72381" lon="5.22659">
        <ele>208.827991</ele>
        <time>2021-06-26T19:20:56.529Z</time>
      </trkpt>
      <trkpt lat="45.72383" lon="5.22631">
        <ele>208.715278</ele>
        <time>2021-06-26T19:20:59.208Z</time>
      </trkpt>
      <trkpt lat="45.72388" lon="5.22614">
        <ele>208.640002</ele>
        <time>2021-06-26T19:21:01.010Z</time>
      </trkpt>
      <trkpt lat="45.72391" lon="5.22605">
        <ele>208.600512</ele>
        <time>2021-06-26T19:21:01.915Z</time>
      </trkpt>
      <trkpt lat="45.72397" lon="5.22599">
        <ele>208.558755</ele>
        <time>2021-06-26T19:21:02.880Z</time>
      </trkpt>
      <trkpt lat="45.724" lon="5.22585">
        <ele>208.498745</ele>
        <time>2021-06-26T19:21:04.257Z</time>
      </trkpt>
      <trkpt lat="45.72399" lon="5.22576">
        <ele>208.462911</ele>
        <time>2021-06-26T19:21:05.071Z</time>
      </trkpt>
      <trkpt lat="45.72396" lon="5.22569">
        <ele>208.429591</ele>
        <time>2021-06-26T19:21:05.868Z</time>
      </trkpt>
      <trkpt lat="45.72389" lon="5.22564">
        <ele>208.387105</ele>
        <time>2021-06-26T19:21:06.812Z</time>
      </trkpt>
      <trkpt lat="45.72386" lon="5.22548">
        <ele>208.321619</ele>
        <time>2021-06-26T19:21:08.278Z</time>
      </trkpt>
      <trkpt lat="45.72382" lon="5.2253">
        <ele>208.247331</ele>
        <time>2021-06-26T19:21:09.937Z</time>
      </trkpt>
      <trkpt lat="45.7238" lon="5.22495">
        <ele>208.105796</ele>
        <time>2021-06-26T19:21:13.165Z</time>
      </trkpt>
      <trkpt lat="45.72378" lon="5.22432">
        <ele>207.889461</ele>
        <time>2021-06-26T19:21:18.894Z</time>
      </trkpt>
      <trkpt lat="45.72378" lon="5.22427">
        <ele>207.886081</ele>
        <time>2021-06-26T19:21:19.327Z</time>
      </trkpt>
      <trkpt lat="45.72379" lon="5.22406">
        <ele>207.872011</ele>
        <time>2021-06-26T19:21:21.189Z</time>
      </trkpt>
      <trkpt lat="45.72379" lon="5.22374">
        <ele>207.849665</ele>
        <time>2021-06-26T19:21:24.325Z</time>
      </trkpt>
      <trkpt lat="45.7238" lon="5.22344">
        <ele>207.829117</ele>
        <time>2021-06-26T19:21:27.366Z</time>
      </trkpt>
      <trkpt lat="45.7238" lon="5.22332">
        <ele>207.820981</ele>
        <time>2021-06-26T19:21:28.641Z</time>
      </trkpt>
      <trkpt lat="45.72379" lon="5.22306">
        <ele>207.8029</ele>
        <time>2021-06-26T19:21:31.370Z</time>
      </trkpt>
      <trkpt lat="45.72373" lon="5.22187">
        <ele>207.720704</ele>
        <time>2021-06-26T19:21:43.858Z</time>
      </trkpt>
      <trkpt lat="45.72365" lon="5.2204">
        <ele>208.054692</ele>
        <time>2021-06-26T19:22:00.275Z</time>
      </trkpt>
      <trkpt lat="45.72364" lon="5.2202">
        <ele>208.100203</ele>
        <time>2021-06-26T19:22:02.578Z</time>
      </trkpt>
      <trkpt lat="45.72362" lon="5.21992">
        <ele>208.165331</ele>
        <time>2021-06-26T19:22:05.981Z</time>
      </trkpt>
      <trkpt lat="45.72356" lon="5.21889">
        <ele>208.365359</ele>
        <time>2021-06-26T19:22:18.143Z</time>
      </trkpt>
      <trkpt lat="45.72344" lon="5.21816">
        <ele>208.46588</ele>
        <time>2021-06-26T19:22:26.551Z</time>
      </trkpt>
      <trkpt lat="45.72342" lon="5.21807">
        <ele>208.479055</ele>
        <time>2021-06-26T19:22:27.716Z</time>
      </trkpt>
      <trkpt lat="45.72339" lon="5.21782">
        <ele>208.513082</ele>
        <time>2021-06-26T19:22:30.373Z</time>
      </trkpt>
      <trkpt lat="45.7234" lon="5.21764">
        <ele>208.538046</ele>
        <time>2021-06-26T19:22:32.316Z</time>
      </trkpt>
      <trkpt lat="45.72346" lon="5.21756">
        <ele>208.553949</ele>
        <time>2021-06-26T19:22:33.595Z</time>
      </trkpt>
      <trkpt lat="45.72349" lon="5.21747">
        <ele>208.568084</ele>
        <time>2021-06-26T19:22:34.641Z</time>
      </trkpt>
      <trkpt lat="45.72348" lon="5.2174">
        <ele>208.576898</ele>
        <time>2021-06-26T19:22:35.284Z</time>
      </trkpt>
      <trkpt lat="45.72348" lon="5.2173">
        <ele>208.591116</ele>
        <time>2021-06-26T19:22:36.368Z</time>
      </trkpt>
      <trkpt lat="45.72343" lon="5.21721">
        <ele>208.605047</ele>
        <time>2021-06-26T19:22:37.418Z</time>
      </trkpt>
      <trkpt lat="45.7234" lon="5.21718">
        <ele>208.61219</ele>
        <time>2021-06-26T19:22:38.017Z</time>
      </trkpt>
      <trkpt lat="45.72333" lon="5.21715">
        <ele>208.628196</ele>
        <time>2021-06-26T19:22:39.249Z</time>
      </trkpt>
      <trkpt lat="45.72324" lon="5.21699">
        <ele>208.65523</ele>
        <time>2021-06-26T19:22:41.232Z</time>
      </trkpt>
      <trkpt lat="45.72312" lon="5.21628">
        <ele>208.567696</ele>
        <time>2021-06-26T19:22:48.693Z</time>
      </trkpt>
      <trkpt lat="45.72302" lon="5.21599">
        <ele>208.524897</ele>
        <time>2021-06-26T19:22:51.878Z</time>
      </trkpt>
      <trkpt lat="45.72291" lon="5.21558">
        <ele>208.467553</ele>
        <time>2021-06-26T19:22:56.090Z</time>
      </trkpt>
      <trkpt lat="45.72183" lon="5.21152">
        <ele>207.902232</ele>
        <time>2021-06-26T19:23:38.619Z</time>
      </trkpt>
      <trkpt lat="45.7214" lon="5.2099">
        <ele>207.863</ele>
        <time>2021-06-26T19:23:56.770Z</time>
      </trkpt>
      <trkpt lat="45.72122" lon="5.20923">
        <ele>207.89536</ele>
        <time>2021-06-26T19:24:04.404Z</time>
      </trkpt>
      <trkpt lat="45.72103" lon="5.20851">
        <ele>207.950546</ele>
        <time>2021-06-26T19:24:12.847Z</time>
      </trkpt>
      <trkpt lat="45.72028" lon="5.2056">
        <ele>208.045634</ele>
        <time>2021-06-26T19:24:45.385Z</time>
      </trkpt>
      <trkpt lat="45.71952" lon="5.20259">
        <ele>207.943831</ele>
        <time>2021-06-26T19:25:17.943Z</time>
      </trkpt>
      <trkpt lat="45.71918" lon="5.20087">
        <ele>208.035261</ele>
        <time>2021-06-26T19:25:36.684Z</time>
      </trkpt>
      <trkpt lat="45.71835" lon="5.19798">
        <ele>208.322632</ele>
        <time>2021-06-26T19:26:10.695Z</time>
      </trkpt>
      <trkpt lat="45.71832" lon="5.19789">
        <ele>208.333333</ele>
        <time>2021-06-26T19:26:11.832Z</time>
      </trkpt>
      <trkpt lat="45.71748" lon="5.195">
        <ele>208.398817</ele>
        <time>2021-06-26T19:26:44.773Z</time>
      </trkpt>
      <trkpt lat="45.71724" lon="5.19424">
        <ele>208.22089</ele>
        <time>2021-06-26T19:26:52.972Z</time>
      </trkpt>
      <trkpt lat="45.71717" lon="5.19359">
        <ele>208.080135</ele>
        <time>2021-06-26T19:26:59.334Z</time>
      </trkpt>
      <trkpt lat="45.71719" lon="5.19109">
        <ele>207.381252</ele>
        <time>2021-06-26T19:27:22.449Z</time>
      </trkpt>
      <trkpt lat="45.71722" lon="5.18992">
        <ele>207.142942</ele>
        <time>2021-06-26T19:27:33.498Z</time>
      </trkpt>
      <trkpt lat="45.71726" lon="5.1894">
        <ele>207.205395</ele>
        <time>2021-06-26T19:27:38.691Z</time>
      </trkpt>
      <trkpt lat="45.71731" lon="5.18832">
        <ele>207.336363</ele>
        <time>2021-06-26T19:27:50.677Z</time>
      </trkpt>
      <trkpt lat="45.71735" lon="5.18818">
        <ele>207.35464</ele>
        <time>2021-06-26T19:27:52.591Z</time>
      </trkpt>
      <trkpt lat="45.71744" lon="5.18813">
        <ele>207.371352</ele>
        <time>2021-06-26T19:27:54.126Z</time>
      </trkpt>
      <trkpt lat="45.7175" lon="5.18804">
        <ele>207.385754</ele>
        <time>2021-06-26T19:27:55.458Z</time>
      </trkpt>
      <trkpt lat="45.71753" lon="5.18793">
        <ele>207.40001</ele>
        <time>2021-06-26T19:27:56.869Z</time>
      </trkpt>
      <trkpt lat="45.71753" lon="5.1878">
        <ele>207.41608</ele>
        <time>2021-06-26T19:27:58.659Z</time>
      </trkpt>
      <trkpt lat="45.71741" lon="5.18759">
        <ele>207.523797</ele>
        <time>2021-06-26T19:28:01.707Z</time>
      </trkpt>
      <trkpt lat="45.71732" lon="5.18756">
        <ele>207.581341</ele>
        <time>2021-06-26T19:28:03.331Z</time>
      </trkpt>
      <trkpt lat="45.71728" lon="5.18746">
        <ele>207.63325</ele>
        <time>2021-06-26T19:28:04.992Z</time>
      </trkpt>
      <trkpt lat="45.71725" lon="5.1873">
        <ele>207.703456</ele>
        <time>2021-06-26T19:28:06.924Z</time>
      </trkpt>
      <trkpt lat="45.71731" lon="5.18636">
        <ele>208.113887</ele>
        <time>2021-06-26T19:28:18.904Z</time>
      </trkpt>
      <trkpt lat="45.71722" lon="5.18566">
        <ele>208.424715</ele>
        <time>2021-06-26T19:28:27.727Z</time>
      </trkpt>
      <trkpt lat="45.71672" lon="5.17826">
        <ele>209.262052</ele>
        <time>2021-06-26T19:29:47.947Z</time>
      </trkpt>
      <trkpt lat="45.71659" lon="5.17639">
        <ele>209.227342</ele>
        <time>2021-06-26T19:30:06.717Z</time>
      </trkpt>
      <trkpt lat="45.71658" lon="5.17547">
        <ele>209.188141</ele>
        <time>2021-06-26T19:30:16.282Z</time>
      </trkpt>
      <trkpt lat="45.71657" lon="5.17479">
        <ele>209.223061</ele>
        <time>2021-06-26T19:30:23.601Z</time>
      </trkpt>
      <trkpt lat="45.71657" lon="5.1741">
        <ele>209.31873</ele>
        <time>2021-06-26T19:30:31.206Z</time>
      </trkpt>
      <trkpt lat="45.71658" lon="5.17352">
        <ele>209.398367</ele>
        <time>2021-06-26T19:30:37.605Z</time>
      </trkpt>
      <trkpt lat="45.7166" lon="5.17308">
        <ele>209.460256</ele>
        <time>2021-06-26T19:30:42.618Z</time>
      </trkpt>
      <trkpt lat="45.71655" lon="5.17239">
        <ele>209.505725</ele>
        <time>2021-06-26T19:30:50.174Z</time>
      </trkpt>
      <trkpt lat="45.71647" lon="5.1715">
        <ele>209.383164</ele>
        <time>2021-06-26T19:30:59.548Z</time>
      </trkpt>
      <trkpt lat="45.71646" lon="5.17139">
        <ele>209.367064</ele>
        <time>2021-06-26T19:31:00.720Z</time>
      </trkpt>
      <trkpt lat="45.71623" lon="5.16879">
        <ele>208.576448</ele>
        <time>2021-06-26T19:31:25.147Z</time>
      </trkpt>
      <trkpt lat="45.71614" lon="5.16777">
        <ele>208.079084</ele>
        <time>2021-06-26T19:31:33.982Z</time>
      </trkpt>
      <trkpt lat="45.71597" lon="5.16579">
        <ele>207.074473</ele>
        <time>2021-06-26T19:31:51.478Z</time>
      </trkpt>
      <trkpt lat="45.71586" lon="5.16449">
        <ele>206.585863</ele>
        <time>2021-06-26T19:32:03.592Z</time>
      </trkpt>
      <trkpt lat="45.71583" lon="5.1642">
        <ele>206.56042</ele>
        <time>2021-06-26T19:32:06.410Z</time>
      </trkpt>
      <trkpt lat="45.71561" lon="5.16153">
        <ele>206.359307</ele>
        <time>2021-06-26T19:32:34.662Z</time>
      </trkpt>
      <trkpt lat="45.7156" lon="5.16131">
        <ele>206.34898</ele>
        <time>2021-06-26T19:32:36.840Z</time>
      </trkpt>
      <trkpt lat="45.71554" lon="5.16068">
        <ele>206.319347</ele>
        <time>2021-06-26T19:32:42.872Z</time>
      </trkpt>
      <trkpt lat="45.71552" lon="5.16052">
        <ele>206.311519</ele>
        <time>2021-06-26T19:32:44.596Z</time>
      </trkpt>
      <trkpt lat="45.71548" lon="5.1601">
        <ele>206.291611</ele>
        <time>2021-06-26T19:32:48.877Z</time>
      </trkpt>
      <trkpt lat="45.71545" lon="5.15963">
        <ele>206.294255</ele>
        <time>2021-06-26T19:32:53.811Z</time>
      </trkpt>
      <trkpt lat="45.71544" lon="5.15956">
        <ele>206.302399</ele>
        <time>2021-06-26T19:32:54.674Z</time>
      </trkpt>
      <trkpt lat="45.71543" lon="5.15938">
        <ele>206.321867</ele>
        <time>2021-06-26T19:32:56.620Z</time>
      </trkpt>
      <trkpt lat="45.71541" lon="5.15912">
        <ele>206.349586</ele>
        <time>2021-06-26T19:32:59.271Z</time>
      </trkpt>
      <trkpt lat="45.7154" lon="5.15908">
        <ele>206.353625</ele>
        <time>2021-06-26T19:32:59.684Z</time>
      </trkpt>
      <trkpt lat="45.71536" lon="5.15863">
        <ele>206.403439</ele>
        <time>2021-06-26T19:33:04.601Z</time>
      </trkpt>
      <trkpt lat="45.71531" lon="5.1578">
        <ele>206.493183</ele>
        <time>2021-06-26T19:33:13.741Z</time>
      </trkpt>
      <trkpt lat="45.71506" lon="5.155">
        <ele>207.105892</ele>
        <time>2021-06-26T19:33:45.797Z</time>
      </trkpt>
      <trkpt lat="45.71512" lon="5.15496">
        <ele>207.128095</ele>
        <time>2021-06-26T19:33:46.787Z</time>
      </trkpt>
      <trkpt lat="45.71515" lon="5.15489">
        <ele>207.150028</ele>
        <time>2021-06-26T19:33:47.810Z</time>
      </trkpt>
      <trkpt lat="45.71516" lon="5.1548">
        <ele>207.172252</ele>
        <time>2021-06-26T19:33:48.786Z</time>
      </trkpt>
      <trkpt lat="45.71513" lon="5.15472">
        <ele>207.192017</ele>
        <time>2021-06-26T19:33:49.801Z</time>
      </trkpt>
      <trkpt lat="45.71508" lon="5.15467">
        <ele>207.207058</ele>
        <time>2021-06-26T19:33:50.843Z</time>
      </trkpt>
      <trkpt lat="45.71502" lon="5.15465">
        <ele>207.222327</ele>
        <time>2021-06-26T19:33:51.866Z</time>
      </trkpt>
      <trkpt lat="45.71496" lon="5.15468">
        <ele>207.237962</ele>
        <time>2021-06-26T19:33:52.900Z</time>
      </trkpt>
      <trkpt lat="45.71492" lon="5.15476">
        <ele>207.253458</ele>
        <time>2021-06-26T19:33:53.897Z</time>
      </trkpt>
      <trkpt lat="45.71491" lon="5.15485">
        <ele>207.269106</ele>
        <time>2021-06-26T19:33:54.923Z</time>
      </trkpt>
      <trkpt lat="45.71425" lon="5.15494">
        <ele>207.430423</ele>
        <time>2021-06-26T19:34:09.094Z</time>
      </trkpt>
      <trkpt lat="45.71392" lon="5.15494">
        <ele>207.510459</ele>
        <time>2021-06-26T19:34:16.048Z</time>
      </trkpt>
      <trkpt lat="45.71279" lon="5.15473">
        <ele>207.530779</ele>
        <time>2021-06-26T19:34:39.629Z</time>
      </trkpt>
      <trkpt lat="45.70982" lon="5.15339">
        <ele>206.829668</ele>
        <time>2021-06-26T19:35:39.430Z</time>
      </trkpt>
      <trkpt lat="45.70779" lon="5.15257">
        <ele>206.418362</ele>
        <time>2021-06-26T19:36:20.328Z</time>
      </trkpt>
      <trkpt lat="45.70701" lon="5.15208">
        <ele>206.28161</ele>
        <time>2021-06-26T19:36:37.111Z</time>
      </trkpt>
      <trkpt lat="45.70609" lon="5.15169">
        <ele>206.21686</ele>
        <time>2021-06-26T19:36:55.960Z</time>
      </trkpt>
      <trkpt lat="45.70552" lon="5.15134">
        <ele>206.224906</ele>
        <time>2021-06-26T19:37:08.637Z</time>
      </trkpt>
      <trkpt lat="45.70516" lon="5.1512">
        <ele>206.229648</ele>
        <time>2021-06-26T19:37:16.235Z</time>
      </trkpt>
      <trkpt lat="45.70512" lon="5.15119">
        <ele>206.230222</ele>
        <time>2021-06-26T19:37:17.075Z</time>
      </trkpt>
      <trkpt lat="45.7051" lon="5.15119">
        <ele>206.230505</ele>
        <time>2021-06-26T19:37:17.500Z</time>
      </trkpt>
      <trkpt lat="45.70507" lon="5.15118">
        <ele>206.230834</ele>
        <time>2021-06-26T19:37:18.150Z</time>
      </trkpt>
      <trkpt lat="45.70332" lon="5.15074">
        <ele>206.359963</ele>
        <time>2021-06-26T19:37:55.468Z</time>
      </trkpt>
      <trkpt lat="45.7016" lon="5.15071">
        <ele>206.024631</ele>
        <time>2021-06-26T19:38:28.500Z</time>
      </trkpt>
      <trkpt lat="45.70113" lon="5.15063">
        <ele>205.987583</ele>
        <time>2021-06-26T19:38:37.521Z</time>
      </trkpt>
      <trkpt lat="45.70075" lon="5.15046">
        <ele>206.061281</ele>
        <time>2021-06-26T19:38:45.338Z</time>
      </trkpt>
      <trkpt lat="45.70042" lon="5.15024">
        <ele>206.130822</ele>
        <time>2021-06-26T19:38:52.886Z</time>
      </trkpt>
      <trkpt lat="45.70017" lon="5.15">
        <ele>206.186534</ele>
        <time>2021-06-26T19:38:59.062Z</time>
      </trkpt>
      <trkpt lat="45.69894" lon="5.1484">
        <ele>207.070286</ele>
        <time>2021-06-26T19:39:37.287Z</time>
      </trkpt>
      <trkpt lat="45.69849" lon="5.14769">
        <ele>207.538748</ele>
        <time>2021-06-26T19:39:52.991Z</time>
      </trkpt>
      <trkpt lat="45.69763" lon="5.14661">
        <ele>208.158687</ele>
        <time>2021-06-26T19:40:19.181Z</time>
      </trkpt>
      <trkpt lat="45.6973" lon="5.14626">
        <ele>208.380063</ele>
        <time>2021-06-26T19:40:27.870Z</time>
      </trkpt>
      <trkpt lat="45.69691" lon="5.14596">
        <ele>208.645832</ele>
        <time>2021-06-26T19:40:37.265Z</time>
      </trkpt>
      <trkpt lat="45.69636" lon="5.14561">
        <ele>209.080929</ele>
        <time>2021-06-26T19:40:50.609Z</time>
      </trkpt>
      <trkpt lat="45.69613" lon="5.14544">
        <ele>209.269576</ele>
        <time>2021-06-26T19:40:56.563Z</time>
      </trkpt>
      <trkpt lat="45.69546" lon="5.14473">
        <ele>209.891697</ele>
        <time>2021-06-26T19:41:16.909Z</time>
      </trkpt>
      <trkpt lat="45.69503" lon="5.14415">
        <ele>210.485611</ele>
        <time>2021-06-26T19:41:31.459Z</time>
      </trkpt>
      <trkpt lat="45.69477" lon="5.14367">
        <ele>210.910049</ele>
        <time>2021-06-26T19:41:42.160Z</time>
      </trkpt>
      <trkpt lat="45.69468" lon="5.1434">
        <ele>211.123044</ele>
        <time>2021-06-26T19:41:47.532Z</time>
      </trkpt>
      <trkpt lat="45.69462" lon="5.1431">
        <ele>211.338904</ele>
        <time>2021-06-26T19:41:52.587Z</time>
      </trkpt>
      <trkpt lat="45.69464" lon="5.14068">
        <ele>212.554662</ele>
        <time>2021-06-26T19:42:31.053Z</time>
      </trkpt>
      <trkpt lat="45.69462" lon="5.14037">
        <ele>212.698179</ele>
        <time>2021-06-26T19:42:35.824Z</time>
      </trkpt>
      <trkpt lat="45.69456" lon="5.14008">
        <ele>212.847391</ele>
        <time>2021-06-26T19:42:40.953Z</time>
      </trkpt>
      <trkpt lat="45.69426" lon="5.1392">
        <ele>213.483323</ele>
        <time>2021-06-26T19:42:56.922Z</time>
      </trkpt>
      <trkpt lat="45.69413" lon="5.13877">
        <ele>213.786989</ele>
        <time>2021-06-26T19:43:04.776Z</time>
      </trkpt>
      <trkpt lat="45.69444" lon="5.13869">
        <ele>214.074252</ele>
        <time>2021-06-26T19:43:10.574Z</time>
      </trkpt>
      <trkpt lat="45.69453" lon="5.13721">
        <ele>215.533009</ele>
        <time>2021-06-26T19:43:30.554Z</time>
      </trkpt>
      <trkpt lat="45.69447" lon="5.13708">
        <ele>215.721263</ele>
        <time>2021-06-26T19:43:32.930Z</time>
      </trkpt>
      <trkpt lat="45.69451" lon="5.13657">
        <ele>216.361403</ele>
        <time>2021-06-26T19:43:39.974Z</time>
      </trkpt>
      <trkpt lat="45.69444" lon="5.13633">
        <ele>216.671033</ele>
        <time>2021-06-26T19:43:43.221Z</time>
      </trkpt>
      <trkpt lat="45.69451" lon="5.13604">
        <ele>217.046108</ele>
        <time>2021-06-26T19:43:48.321Z</time>
      </trkpt>
      <trkpt lat="45.69462" lon="5.13592">
        <ele>217.294916</ele>
        <time>2021-06-26T19:43:51.418Z</time>
      </trkpt>
      <trkpt lat="45.69464" lon="5.13578">
        <ele>217.467631</ele>
        <time>2021-06-26T19:43:54.350Z</time>
      </trkpt>
      <trkpt lat="45.69453" lon="5.13546">
        <ele>218.415694</ele>
        <time>2021-06-26T19:44:01.156Z</time>
      </trkpt>
      <trkpt lat="45.69469" lon="5.13526">
        <ele>219.523402</ele>
        <time>2021-06-26T19:44:08.146Z</time>
      </trkpt>
      <trkpt lat="45.69498" lon="5.13479">
        <ele>221.766812</ele>
        <time>2021-06-26T19:44:22.366Z</time>
      </trkpt>
      <trkpt lat="45.69524" lon="5.13448">
        <ele>223.501425</ele>
        <time>2021-06-26T19:44:34.635Z</time>
      </trkpt>
      <trkpt lat="45.69526" lon="5.13447">
        <ele>223.620981</ele>
        <time>2021-06-26T19:44:35.444Z</time>
      </trkpt>
      <trkpt lat="45.69566" lon="5.13415">
        <ele>225.955625</ele>
        <time>2021-06-26T19:44:53.540Z</time>
      </trkpt>
      <trkpt lat="45.69587" lon="5.13397">
        <ele>227.345679</ele>
        <time>2021-06-26T19:45:04.162Z</time>
      </trkpt>
      <trkpt lat="45.6959" lon="5.13395">
        <ele>227.568109</ele>
        <time>2021-06-26T19:45:05.522Z</time>
      </trkpt>
      <trkpt lat="45.69711" lon="5.13356">
        <ele>236.324371</ele>
        <time>2021-06-26T19:46:02.381Z</time>
      </trkpt>
      <trkpt lat="45.6977" lon="5.13337">
        <ele>240.152783</ele>
        <time>2021-06-26T19:46:26.862Z</time>
      </trkpt>
      <trkpt lat="45.69832" lon="5.133">
        <ele>242.874865</ele>
        <time>2021-06-26T19:46:50.083Z</time>
      </trkpt>
      <trkpt lat="45.69838" lon="5.13285">
        <ele>243.378918</ele>
        <time>2021-06-26T19:46:54.426Z</time>
      </trkpt>
      <trkpt lat="45.69844" lon="5.1328">
        <ele>243.651863</ele>
        <time>2021-06-26T19:46:56.625Z</time>
      </trkpt>
      <trkpt lat="45.69853" lon="5.13276">
        <ele>244.024757</ele>
        <time>2021-06-26T19:46:59.054Z</time>
      </trkpt>
      <trkpt lat="45.69844" lon="5.1328">
        <ele>244.39765</ele>
        <time>2021-06-26T19:47:01.532Z</time>
      </trkpt>
      <trkpt lat="45.69838" lon="5.13285">
        <ele>244.670595</ele>
        <time>2021-06-26T19:47:03.488Z</time>
      </trkpt>
      <trkpt lat="45.69832" lon="5.13277">
        <ele>245.020026</ele>
        <time>2021-06-26T19:47:06.202Z</time>
      </trkpt>
      <trkpt lat="45.69811" lon="5.13257">
        <ele>246.045993</ele>
        <time>2021-06-26T19:47:12.112Z</time>
      </trkpt>
      <trkpt lat="45.69764" lon="5.13227">
        <ele>247.107355</ele>
        <time>2021-06-26T19:47:23.334Z</time>
      </trkpt>
      <trkpt lat="45.6971" lon="5.132">
        <ele>247.507297</ele>
        <time>2021-06-26T19:47:33.343Z</time>
      </trkpt>
      <trkpt lat="45.69659" lon="5.13176">
        <ele>247.877622</ele>
        <time>2021-06-26T19:47:41.247Z</time>
      </trkpt>
      <trkpt lat="45.69648" lon="5.13164">
        <ele>247.971748</ele>
        <time>2021-06-26T19:47:43.350Z</time>
      </trkpt>
      <trkpt lat="45.69633" lon="5.13145">
        <ele>248.107478</ele>
        <time>2021-06-26T19:47:46.229Z</time>
      </trkpt>
      <trkpt lat="45.69614" lon="5.13119">
        <ele>248.533614</ele>
        <time>2021-06-26T19:47:50.299Z</time>
      </trkpt>
      <trkpt lat="45.69608" lon="5.13106">
        <ele>248.730016</ele>
        <time>2021-06-26T19:47:51.986Z</time>
      </trkpt>
      <trkpt lat="45.69608" lon="5.13104">
        <ele>248.757017</ele>
        <time>2021-06-26T19:47:52.319Z</time>
      </trkpt>
      <trkpt lat="45.69596" lon="5.13078">
        <ele>249.146599</ele>
        <time>2021-06-26T19:47:56.307Z</time>
      </trkpt>
      <trkpt lat="45.69592" lon="5.13067">
        <ele>249.302389</ele>
        <time>2021-06-26T19:47:57.816Z</time>
      </trkpt>
      <trkpt lat="45.69584" lon="5.1305">
        <ele>249.565033</ele>
        <time>2021-06-26T19:48:01.011Z</time>
      </trkpt>
      <trkpt lat="45.69569" lon="5.13017">
        <ele>250.058093</ele>
        <time>2021-06-26T19:48:07.077Z</time>
      </trkpt>
      <trkpt lat="45.6954" lon="5.12968">
        <ele>250.868005</ele>
        <time>2021-06-26T19:48:18.769Z</time>
      </trkpt>
      <trkpt lat="45.69538" lon="5.12964">
        <ele>250.933575</ele>
        <time>2021-06-26T19:48:19.735Z</time>
      </trkpt>
      <trkpt lat="45.69532" lon="5.1295">
        <ele>251.143369</ele>
        <time>2021-06-26T19:48:22.887Z</time>
      </trkpt>
      <trkpt lat="45.69529" lon="5.12943">
        <ele>251.244571</ele>
        <time>2021-06-26T19:48:24.354Z</time>
      </trkpt>
      <trkpt lat="45.69571" lon="5.12891">
        <ele>252.787528</ele>
        <time>2021-06-26T19:48:40.079Z</time>
      </trkpt>
      <trkpt lat="45.69591" lon="5.12868">
        <ele>253.550924</ele>
        <time>2021-06-26T19:48:47.513Z</time>
      </trkpt>
      <trkpt lat="45.69624" lon="5.12843">
        <ele>254.651754</ele>
        <time>2021-06-26T19:48:57.937Z</time>
      </trkpt>
      <trkpt lat="45.69651" lon="5.12828">
        <ele>255.4852</ele>
        <time>2021-06-26T19:49:05.485Z</time>
      </trkpt>
      <trkpt lat="45.69726" lon="5.12798">
        <ele>257.062147</ele>
        <time>2021-06-26T19:49:24.904Z</time>
      </trkpt>
      <trkpt lat="45.69736" lon="5.12792">
        <ele>257.157153</ele>
        <time>2021-06-26T19:49:26.822Z</time>
      </trkpt>
      <trkpt lat="45.69823" lon="5.12739">
        <ele>258.043963</ele>
        <time>2021-06-26T19:49:42.593Z</time>
      </trkpt>
      <trkpt lat="45.69913" lon="5.12654">
        <ele>258.868871</ele>
        <time>2021-06-26T19:49:59.594Z</time>
      </trkpt>
      <trkpt lat="45.69922" lon="5.12645">
        <ele>258.947413</ele>
        <time>2021-06-26T19:50:01.636Z</time>
      </trkpt>
      <trkpt lat="45.69954" lon="5.12613">
        <ele>259.206497</ele>
        <time>2021-06-26T19:50:08.540Z</time>
      </trkpt>
      <trkpt lat="45.69987" lon="5.12578">
        <ele>259.480904</ele>
        <time>2021-06-26T19:50:16.238Z</time>
      </trkpt>
      <trkpt lat="45.70023" lon="5.12526">
        <ele>259.860233</ele>
        <time>2021-06-26T19:50:26.021Z</time>
      </trkpt>
      <trkpt lat="45.70054" lon="5.12468">
        <ele>260.260999</ele>
        <time>2021-06-26T19:50:35.823Z</time>
      </trkpt>
      <trkpt lat="45.70085" lon="5.1239">
        <ele>260.748808</ele>
        <time>2021-06-26T19:50:47.191Z</time>
      </trkpt>
      <trkpt lat="45.70104" lon="5.12357">
        <ele>260.985982</ele>
        <time>2021-06-26T19:50:52.258Z</time>
      </trkpt>
      <trkpt lat="45.70161" lon="5.12285">
        <ele>260.701507</ele>
        <time>2021-06-26T19:51:03.904Z</time>
      </trkpt>
      <trkpt lat="45.70197" lon="5.12232">
        <ele>260.477118</ele>
        <time>2021-06-26T19:51:10.572Z</time>
      </trkpt>
      <trkpt lat="45.70226" lon="5.12182">
        <ele>260.277453</ele>
        <time>2021-06-26T19:51:16.111Z</time>
      </trkpt>
      <trkpt lat="45.70239" lon="5.12147">
        <ele>259.988308</ele>
        <time>2021-06-26T19:51:19.455Z</time>
      </trkpt>
      <trkpt lat="45.70248" lon="5.12137">
        <ele>259.833673</ele>
        <time>2021-06-26T19:51:20.778Z</time>
      </trkpt>
      <trkpt lat="45.7026" lon="5.12132">
        <ele>259.667717</ele>
        <time>2021-06-26T19:51:22.290Z</time>
      </trkpt>
      <trkpt lat="45.70264" lon="5.12131">
        <ele>259.605921</ele>
        <time>2021-06-26T19:51:22.771Z</time>
      </trkpt>
      <trkpt lat="45.70268" lon="5.12135">
        <ele>259.534263</ele>
        <time>2021-06-26T19:51:23.358Z</time>
      </trkpt>
      <trkpt lat="45.70273" lon="5.12136">
        <ele>259.462751</ele>
        <time>2021-06-26T19:51:23.948Z</time>
      </trkpt>
      <trkpt lat="45.70278" lon="5.12136">
        <ele>259.391587</ele>
        <time>2021-06-26T19:51:24.554Z</time>
      </trkpt>
      <trkpt lat="45.70283" lon="5.12133">
        <ele>259.31981</ele>
        <time>2021-06-26T19:51:25.172Z</time>
      </trkpt>
      <trkpt lat="45.70287" lon="5.12127">
        <ele>259.24819</ele>
        <time>2021-06-26T19:51:25.816Z</time>
      </trkpt>
      <trkpt lat="45.70289" lon="5.12121">
        <ele>259.176471</ele>
        <time>2021-06-26T19:51:26.459Z</time>
      </trkpt>
      <trkpt lat="45.70289" lon="5.12113">
        <ele>259.105416</ele>
        <time>2021-06-26T19:51:27.023Z</time>
      </trkpt>
      <trkpt lat="45.70298" lon="5.12099">
        <ele>258.91585</ele>
        <time>2021-06-26T19:51:28.577Z</time>
      </trkpt>
      <trkpt lat="45.70302" lon="5.12086">
        <ele>258.781774</ele>
        <time>2021-06-26T19:51:29.737Z</time>
      </trkpt>
      <trkpt lat="45.70303" lon="5.12076">
        <ele>258.682346</ele>
        <time>2021-06-26T19:51:30.613Z</time>
      </trkpt>
      <trkpt lat="45.70306" lon="5.12058">
        <ele>258.502664</ele>
        <time>2021-06-26T19:51:32.041Z</time>
      </trkpt>
      <trkpt lat="45.70314" lon="5.12027">
        <ele>258.186151</ele>
        <time>2021-06-26T19:51:34.707Z</time>
      </trkpt>
      <trkpt lat="45.70343" lon="5.11971">
        <ele>257.534426</ele>
        <time>2021-06-26T19:51:40.189Z</time>
      </trkpt>
      <trkpt lat="45.70403" lon="5.11889">
        <ele>256.541459</ele>
        <time>2021-06-26T19:51:49.877Z</time>
      </trkpt>
      <trkpt lat="45.70417" lon="5.11877">
        <ele>256.337611</ele>
        <time>2021-06-26T19:51:51.882Z</time>
      </trkpt>
      <trkpt lat="45.70443" lon="5.11865">
        <ele>256.007348</ele>
        <time>2021-06-26T19:51:55.274Z</time>
      </trkpt>
      <trkpt lat="45.70477" lon="5.1185">
        <ele>255.579868</ele>
        <time>2021-06-26T19:51:59.691Z</time>
      </trkpt>
      <trkpt lat="45.70498" lon="5.11832">
        <ele>255.551218</ele>
        <time>2021-06-26T19:52:02.816Z</time>
      </trkpt>
      <trkpt lat="45.70511" lon="5.11816">
        <ele>255.540019</ele>
        <time>2021-06-26T19:52:04.969Z</time>
      </trkpt>
      <trkpt lat="45.70558" lon="5.11758">
        <ele>255.500897</ele>
        <time>2021-06-26T19:52:13.194Z</time>
      </trkpt>
      <trkpt lat="45.7058" lon="5.11731">
        <ele>255.481911</ele>
        <time>2021-06-26T19:52:17.738Z</time>
      </trkpt>
      <trkpt lat="45.70612" lon="5.11704">
        <ele>255.458264</ele>
        <time>2021-06-26T19:52:24.164Z</time>
      </trkpt>
      <trkpt lat="45.70648" lon="5.1168">
        <ele>256.068</ele>
        <time>2021-06-26T19:52:31.526Z</time>
      </trkpt>
      <trkpt lat="45.70675" lon="5.11661">
        <ele>256.750258</ele>
        <time>2021-06-26T19:52:37.877Z</time>
      </trkpt>
      <trkpt lat="45.70684" lon="5.11655">
        <ele>256.962183</ele>
        <time>2021-06-26T19:52:40.378Z</time>
      </trkpt>
      <trkpt lat="45.70707" lon="5.11645">
        <ele>257.492927</ele>
        <time>2021-06-26T19:52:45.761Z</time>
      </trkpt>
      <trkpt lat="45.70723" lon="5.11627">
        <ele>257.944945</ele>
        <time>2021-06-26T19:52:51.158Z</time>
      </trkpt>
      <trkpt lat="45.7078" lon="5.11585">
        <ele>259.355552</ele>
        <time>2021-06-26T19:53:08.395Z</time>
      </trkpt>
      <trkpt lat="45.70838" lon="5.11535">
        <ele>261.211366</ele>
        <time>2021-06-26T19:53:27.461Z</time>
      </trkpt>
      <trkpt lat="45.70869" lon="5.11503">
        <ele>262.249053</ele>
        <time>2021-06-26T19:53:37.851Z</time>
      </trkpt>
      <trkpt lat="45.70934" lon="5.1143">
        <ele>264.428058</ele>
        <time>2021-06-26T19:53:58.033Z</time>
      </trkpt>
      <trkpt lat="45.70948" lon="5.11413">
        <ele>264.599987</ele>
        <time>2021-06-26T19:54:01.926Z</time>
      </trkpt>
      <trkpt lat="45.70954" lon="5.11407">
        <ele>264.665228</ele>
        <time>2021-06-26T19:54:03.864Z</time>
      </trkpt>
      <trkpt lat="45.70927" lon="5.11347">
        <ele>265.127427</ele>
        <time>2021-06-26T19:54:15.732Z</time>
      </trkpt>
      <trkpt lat="45.70878" lon="5.11252">
        <ele>265.902101</ele>
        <time>2021-06-26T19:54:34.149Z</time>
      </trkpt>
      <trkpt lat="45.70865" lon="5.11229">
        <ele>266.062737</ele>
        <time>2021-06-26T19:54:38.884Z</time>
      </trkpt>
      <trkpt lat="45.70791" lon="5.11141">
        <ele>266.123219</ele>
        <time>2021-06-26T19:54:57.987Z</time>
      </trkpt>
      <trkpt lat="45.70756" lon="5.11113">
        <ele>266.148281</ele>
        <time>2021-06-26T19:55:06.179Z</time>
      </trkpt>
      <trkpt lat="45.7074" lon="5.11093">
        <ele>266.16151</ele>
        <time>2021-06-26T19:55:10.537Z</time>
      </trkpt>
      <trkpt lat="45.70697" lon="5.11029">
        <ele>266.237525</ele>
        <time>2021-06-26T19:55:23.088Z</time>
      </trkpt>
      <trkpt lat="45.70656" lon="5.1097">
        <ele>266.323992</ele>
        <time>2021-06-26T19:55:34.695Z</time>
      </trkpt>
      <trkpt lat="45.70561" lon="5.10868">
        <ele>266.620571</ele>
        <time>2021-06-26T19:56:00.514Z</time>
      </trkpt>
      <trkpt lat="45.70554" lon="5.10842">
        <ele>266.709663</ele>
        <time>2021-06-26T19:56:04.793Z</time>
      </trkpt>
      <trkpt lat="45.70574" lon="5.10796">
        <ele>266.88221</ele>
        <time>2021-06-26T19:56:47.992Z</time>
      </trkpt>
      <trkpt lat="45.70578" lon="5.10787">
        <ele>266.915206</ele>
        <time>2021-06-26T19:56:56.349Z</time>
      </trkpt>
      <trkpt lat="45.70581" lon="5.1078">
        <ele>266.941966</ele>
        <time>2021-06-26T19:57:03.014Z</time>
      </trkpt>
      <trkpt lat="45.70577" lon="5.10764">
        <ele>266.997476</ele>
        <time>2021-06-26T19:57:05.609Z</time>
      </trkpt>
      <trkpt lat="45.70575" lon="5.10758">
        <ele>267.020171</ele>
        <time>2021-06-26T19:57:06.686Z</time>
      </trkpt>
      <trkpt lat="45.70572" lon="5.10749">
        <ele>267.049689</ele>
        <time>2021-06-26T19:57:08.113Z</time>
      </trkpt>
      <trkpt lat="45.70574" lon="5.10741">
        <ele>267.075618</ele>
        <time>2021-06-26T19:57:09.152Z</time>
      </trkpt>
      <trkpt lat="45.70573" lon="5.10733">
        <ele>267.101481</ele>
        <time>2021-06-26T19:57:10.164Z</time>
      </trkpt>
      <trkpt lat="45.70566" lon="5.1072">
        <ele>267.152922</ele>
        <time>2021-06-26T19:57:11.925Z</time>
      </trkpt>
      <trkpt lat="45.70564" lon="5.10718">
        <ele>267.164934</ele>
        <time>2021-06-26T19:57:12.400Z</time>
      </trkpt>
      <trkpt lat="45.70561" lon="5.10716">
        <ele>267.17954</ele>
        <time>2021-06-26T19:57:12.906Z</time>
      </trkpt>
      <trkpt lat="45.70559" lon="5.10716">
        <ele>267.190504</ele>
        <time>2021-06-26T19:57:13.280Z</time>
      </trkpt>
      <trkpt lat="45.7055" lon="5.10698">
        <ele>267.255803</ele>
        <time>2021-06-26T19:57:15.886Z</time>
      </trkpt>
      <trkpt lat="45.70538" lon="5.10657">
        <ele>267.291227</ele>
        <time>2021-06-26T19:57:21.087Z</time>
      </trkpt>
      <trkpt lat="45.70533" lon="5.10635">
        <ele>267.308846</ele>
        <time>2021-06-26T19:57:23.665Z</time>
      </trkpt>
      <trkpt lat="45.70512" lon="5.10554">
        <ele>267.377148</ele>
        <time>2021-06-26T19:57:33.151Z</time>
      </trkpt>
      <trkpt lat="45.70409" lon="5.10218">
        <ele>267.174008</ele>
        <time>2021-06-26T19:58:09.531Z</time>
      </trkpt>
      <trkpt lat="45.70358" lon="5.10096">
        <ele>267.270152</ele>
        <time>2021-06-26T19:58:24.567Z</time>
      </trkpt>
      <trkpt lat="45.70298" lon="5.09988">
        <ele>267.368768</ele>
        <time>2021-06-26T19:58:39.485Z</time>
      </trkpt>
      <trkpt lat="45.70227" lon="5.09886">
        <ele>267.492751</ele>
        <time>2021-06-26T19:58:55.029Z</time>
      </trkpt>
      <trkpt lat="45.70187" lon="5.09839">
        <ele>267.557093</ele>
        <time>2021-06-26T19:59:03.018Z</time>
      </trkpt>
      <trkpt lat="45.69992" lon="5.09636">
        <ele>267.439166</ele>
        <time>2021-06-26T19:59:39.060Z</time>
      </trkpt>
      <trkpt lat="45.69833" lon="5.09456">
        <ele>266.477209</ele>
        <time>2021-06-26T20:00:06.374Z</time>
      </trkpt>
      <trkpt lat="45.69662" lon="5.09234">
        <ele>263.737277</ele>
        <time>2021-06-26T20:00:34.267Z</time>
      </trkpt>
      <trkpt lat="45.69629" lon="5.09184">
        <ele>263.024685</ele>
        <time>2021-06-26T20:00:39.477Z</time>
      </trkpt>
      <trkpt lat="45.69597" lon="5.09127">
        <ele>261.858233</ele>
        <time>2021-06-26T20:00:44.859Z</time>
      </trkpt>
      <trkpt lat="45.69567" lon="5.09075">
        <ele>260.754204</ele>
        <time>2021-06-26T20:00:49.784Z</time>
      </trkpt>
      <trkpt lat="45.69488" lon="5.08907">
        <ele>257.845952</ele>
        <time>2021-06-26T20:01:04.922Z</time>
      </trkpt>
      <trkpt lat="45.69426" lon="5.08734">
        <ele>255.701227</ele>
        <time>2021-06-26T20:01:21.022Z</time>
      </trkpt>
      <trkpt lat="45.6941" lon="5.08677">
        <ele>255.115226</ele>
        <time>2021-06-26T20:01:26.245Z</time>
      </trkpt>
      <trkpt lat="45.69389" lon="5.08591">
        <ele>254.260894</ele>
        <time>2021-06-26T20:01:33.756Z</time>
      </trkpt>
      <trkpt lat="45.69309" lon="5.08138">
        <ele>249.397199</ele>
        <time>2021-06-26T20:02:11.168Z</time>
      </trkpt>
      <trkpt lat="45.69251" lon="5.07945">
        <ele>247.492366</ele>
        <time>2021-06-26T20:02:28.414Z</time>
      </trkpt>
      <trkpt lat="45.69244" lon="5.07909">
        <ele>247.23569</ele>
        <time>2021-06-26T20:02:31.537Z</time>
      </trkpt>
      <trkpt lat="45.69244" lon="5.07875">
        <ele>246.998173</ele>
        <time>2021-06-26T20:02:34.397Z</time>
      </trkpt>
      <trkpt lat="45.69249" lon="5.07846">
        <ele>246.789198</ele>
        <time>2021-06-26T20:02:37.045Z</time>
      </trkpt>
      <trkpt lat="45.69253" lon="5.07832">
        <ele>246.67944</ele>
        <time>2021-06-26T20:02:38.376Z</time>
      </trkpt>
      <trkpt lat="45.69257" lon="5.07823">
        <ele>246.603034</ele>
        <time>2021-06-26T20:02:39.405Z</time>
      </trkpt>
      <trkpt lat="45.69261" lon="5.0782">
        <ele>246.560748</ele>
        <time>2021-06-26T20:02:39.980Z</time>
      </trkpt>
      <trkpt lat="45.6927" lon="5.07805">
        <ele>246.424528</ele>
        <time>2021-06-26T20:02:41.690Z</time>
      </trkpt>
      <trkpt lat="45.69272" lon="5.07799">
        <ele>246.377888</ele>
        <time>2021-06-26T20:02:42.254Z</time>
      </trkpt>
      <trkpt lat="45.69272" lon="5.07791">
        <ele>246.321147</ele>
        <time>2021-06-26T20:02:42.973Z</time>
      </trkpt>
      <trkpt lat="45.69271" lon="5.07775">
        <ele>246.213508</ele>
        <time>2021-06-26T20:02:44.529Z</time>
      </trkpt>
      <trkpt lat="45.69268" lon="5.07768">
        <ele>246.192082</ele>
        <time>2021-06-26T20:02:45.284Z</time>
      </trkpt>
      <trkpt lat="45.69263" lon="5.07761">
        <ele>246.164895</ele>
        <time>2021-06-26T20:02:46.201Z</time>
      </trkpt>
      <trkpt lat="45.69263" lon="5.07751">
        <ele>246.139991</ele>
        <time>2021-06-26T20:02:46.994Z</time>
      </trkpt>
      <trkpt lat="45.69265" lon="5.07722">
        <ele>246.061188</ele>
        <time>2021-06-26T20:02:49.854Z</time>
      </trkpt>
      <trkpt lat="45.69266" lon="5.07704">
        <ele>246.011494</ele>
        <time>2021-06-26T20:02:51.531Z</time>
      </trkpt>
      <trkpt lat="45.69271" lon="5.07673">
        <ele>245.928108</ele>
        <time>2021-06-26T20:02:54.591Z</time>
      </trkpt>
      <trkpt lat="45.69269" lon="5.07621">
        <ele>245.788873</ele>
        <time>2021-06-26T20:02:59.728Z</time>
      </trkpt>
      <trkpt lat="45.6923" lon="5.07297">
        <ele>244.853734</ele>
        <time>2021-06-26T20:03:31.011Z</time>
      </trkpt>
      <trkpt lat="45.69211" lon="5.07231">
        <ele>244.658774</ele>
        <time>2021-06-26T20:03:37.404Z</time>
      </trkpt>
      <trkpt lat="45.69164" lon="5.0715">
        <ele>244.3792</ele>
        <time>2021-06-26T20:03:47.361Z</time>
      </trkpt>
      <trkpt lat="45.69131" lon="5.07118">
        <ele>244.226432</ele>
        <time>2021-06-26T20:03:52.891Z</time>
      </trkpt>
      <trkpt lat="45.69102" lon="5.07098">
        <ele>244.10418</ele>
        <time>2021-06-26T20:03:57.448Z</time>
      </trkpt>
      <trkpt lat="45.69076" lon="5.07087">
        <ele>244.029532</ele>
        <time>2021-06-26T20:04:01.162Z</time>
      </trkpt>
      <trkpt lat="45.69031" lon="5.07071">
        <ele>243.905308</ele>
        <time>2021-06-26T20:04:07.700Z</time>
      </trkpt>
      <trkpt lat="45.68962" lon="5.07045">
        <ele>243.712171</ele>
        <time>2021-06-26T20:04:18.085Z</time>
      </trkpt>
      <trkpt lat="45.68781" lon="5.0697">
        <ele>242.646216</ele>
        <time>2021-06-26T20:04:42.347Z</time>
      </trkpt>
      <trkpt lat="45.68773" lon="5.06966">
        <ele>242.591419</ele>
        <time>2021-06-26T20:04:43.377Z</time>
      </trkpt>
      <trkpt lat="45.68458" lon="5.06869">
        <ele>240.516306</ele>
        <time>2021-06-26T20:05:24.504Z</time>
      </trkpt>
      <trkpt lat="45.68427" lon="5.06865">
        <ele>240.351585</ele>
        <time>2021-06-26T20:05:28.745Z</time>
      </trkpt>
      <trkpt lat="45.68344" lon="5.06848">
        <ele>240.091934</ele>
        <time>2021-06-26T20:05:40.765Z</time>
      </trkpt>
      <trkpt lat="45.68299" lon="5.06825">
        <ele>239.995987</ele>
        <time>2021-06-26T20:05:47.852Z</time>
      </trkpt>
      <trkpt lat="45.68282" lon="5.06808">
        <ele>239.95354</ele>
        <time>2021-06-26T20:05:50.859Z</time>
      </trkpt>
      <trkpt lat="45.68261" lon="5.06774">
        <ele>239.891251</ele>
        <time>2021-06-26T20:05:55.281Z</time>
      </trkpt>
      <trkpt lat="45.68246" lon="5.06718">
        <ele>239.760243</ele>
        <time>2021-06-26T20:06:00.954Z</time>
      </trkpt>
      <trkpt lat="45.68247" lon="5.06653">
        <ele>239.546595</ele>
        <time>2021-06-26T20:06:07.164Z</time>
      </trkpt>
      <trkpt lat="45.68252" lon="5.06634">
        <ele>239.483755</ele>
        <time>2021-06-26T20:06:08.926Z</time>
      </trkpt>
      <trkpt lat="45.68264" lon="5.06596">
        <ele>239.34672</ele>
        <time>2021-06-26T20:06:12.868Z</time>
      </trkpt>
      <trkpt lat="45.68293" lon="5.06512">
        <ele>239.042293</ele>
        <time>2021-06-26T20:06:21.519Z</time>
      </trkpt>
      <trkpt lat="45.68306" lon="5.06476">
        <ele>238.952508</ele>
        <time>2021-06-26T20:06:25.186Z</time>
      </trkpt>
      <trkpt lat="45.6832" lon="5.06425">
        <ele>238.848164</ele>
        <time>2021-06-26T20:06:30.187Z</time>
      </trkpt>
      <trkpt lat="45.68366" lon="5.06241">
        <ele>238.528267</ele>
        <time>2021-06-26T20:06:49.852Z</time>
      </trkpt>
      <trkpt lat="45.68377" lon="5.06198">
        <ele>238.539617</ele>
        <time>2021-06-26T20:06:54.729Z</time>
      </trkpt>
      <trkpt lat="45.6839" lon="5.06166">
        <ele>238.548754</ele>
        <time>2021-06-26T20:06:58.628Z</time>
      </trkpt>
      <trkpt lat="45.68399" lon="5.06164">
        <ele>238.551924</ele>
        <time>2021-06-26T20:07:00.000Z</time>
      </trkpt>
      <trkpt lat="45.68413" lon="5.06149">
        <ele>238.558121</ele>
        <time>2021-06-26T20:07:02.607Z</time>
      </trkpt>
      <trkpt lat="45.68416" lon="5.06137">
        <ele>238.561285</ele>
        <time>2021-06-26T20:07:03.966Z</time>
      </trkpt>
      <trkpt lat="45.68417" lon="5.06127">
        <ele>238.563838</ele>
        <time>2021-06-26T20:07:05.078Z</time>
      </trkpt>
      <trkpt lat="45.68413" lon="5.06107">
        <ele>238.568899</ele>
        <time>2021-06-26T20:07:07.219Z</time>
      </trkpt>
      <trkpt lat="45.68408" lon="5.061">
        <ele>238.571437</ele>
        <time>2021-06-26T20:07:08.304Z</time>
      </trkpt>
      <trkpt lat="45.68414" lon="5.06053">
        <ele>238.583172</ele>
        <time>2021-06-26T20:07:13.346Z</time>
      </trkpt>
      <trkpt lat="45.68425" lon="5.06004">
        <ele>238.557281</ele>
        <time>2021-06-26T20:07:18.714Z</time>
      </trkpt>
      <trkpt lat="45.68441" lon="5.05937">
        <ele>238.504267</ele>
        <time>2021-06-26T20:07:26.076Z</time>
      </trkpt>
      <trkpt lat="45.68459" lon="5.05875">
        <ele>238.453466</ele>
        <time>2021-06-26T20:07:32.877Z</time>
      </trkpt>
      <trkpt lat="45.68496" lon="5.05788">
        <ele>238.408587</ele>
        <time>2021-06-26T20:07:42.673Z</time>
      </trkpt>
      <trkpt lat="45.68609" lon="5.0562">
        <ele>238.57306</ele>
        <time>2021-06-26T20:08:06.943Z</time>
      </trkpt>
      <trkpt lat="45.68616" lon="5.05611">
        <ele>238.716185</ele>
        <time>2021-06-26T20:08:08.228Z</time>
      </trkpt>
      <trkpt lat="45.68622" lon="5.05602">
        <ele>238.874302</ele>
        <time>2021-06-26T20:08:09.786Z</time>
      </trkpt>
      <trkpt lat="45.68636" lon="5.05568">
        <ele>239.393384</ele>
        <time>2021-06-26T20:08:15.005Z</time>
      </trkpt>
      <trkpt lat="45.68643" lon="5.05552">
        <ele>239.646944</ele>
        <time>2021-06-26T20:08:17.911Z</time>
      </trkpt>
      <trkpt lat="45.68651" lon="5.05555">
        <ele>239.795137</ele>
        <time>2021-06-26T20:08:19.868Z</time>
      </trkpt>
      <trkpt lat="45.68666" lon="5.05548">
        <ele>240.087981</ele>
        <time>2021-06-26T20:08:22.654Z</time>
      </trkpt>
      <trkpt lat="45.68674" lon="5.05529">
        <ele>240.380685</ele>
        <time>2021-06-26T20:08:26.391Z</time>
      </trkpt>
      <trkpt lat="45.68675" lon="5.05518">
        <ele>240.529599</ele>
        <time>2021-06-26T20:08:28.402Z</time>
      </trkpt>
      <trkpt lat="45.68673" lon="5.05509">
        <ele>240.648497</ele>
        <time>2021-06-26T20:08:29.582Z</time>
      </trkpt>
      <trkpt lat="45.6867" lon="5.05501">
        <ele>240.766416</ele>
        <time>2021-06-26T20:08:30.796Z</time>
      </trkpt>
      <trkpt lat="45.68665" lon="5.05495">
        <ele>240.884553</ele>
        <time>2021-06-26T20:08:32.295Z</time>
      </trkpt>
      <trkpt lat="45.68664" lon="5.05494">
        <ele>240.91443</ele>
        <time>2021-06-26T20:08:32.661Z</time>
      </trkpt>
      <trkpt lat="45.68656" lon="5.0548">
        <ele>241.149437</ele>
        <time>2021-06-26T20:08:36.195Z</time>
      </trkpt>
      <trkpt lat="45.68649" lon="5.05448">
        <ele>241.587138</ele>
        <time>2021-06-26T20:08:41.544Z</time>
      </trkpt>
      <trkpt lat="45.68648" lon="5.05404">
        <ele>242.304161</ele>
        <time>2021-06-26T20:08:51.456Z</time>
      </trkpt>
      <trkpt lat="45.68633" lon="5.05293">
        <ele>244.73394</ele>
        <time>2021-06-26T20:09:13.975Z</time>
      </trkpt>
      <trkpt lat="45.68629" lon="5.05227">
        <ele>246.174751</ele>
        <time>2021-06-26T20:09:26.580Z</time>
      </trkpt>
      <trkpt lat="45.68628" lon="5.05204">
        <ele>246.652158</ele>
        <time>2021-06-26T20:09:31.713Z</time>
      </trkpt>
      <trkpt lat="45.68631" lon="5.05177">
        <ele>247.254219</ele>
        <time>2021-06-26T20:09:35.559Z</time>
      </trkpt>
      <trkpt lat="45.68635" lon="5.05156">
        <ele>247.602064</ele>
        <time>2021-06-26T20:09:40.298Z</time>
      </trkpt>
      <trkpt lat="45.68639" lon="5.05137">
        <ele>247.78335</ele>
        <time>2021-06-26T20:09:42.871Z</time>
      </trkpt>
      <trkpt lat="45.68639" lon="5.05136">
        <ele>247.797164</ele>
        <time>2021-06-26T20:09:43.068Z</time>
      </trkpt>
      <trkpt lat="45.68646" lon="5.05109">
        <ele>248.075643</ele>
        <time>2021-06-26T20:09:48.512Z</time>
      </trkpt>
      <trkpt lat="45.68684" lon="5.04987">
        <ele>249.328414</ele>
        <time>2021-06-26T20:10:06.933Z</time>
      </trkpt>
      <trkpt lat="45.68686" lon="5.0498">
        <ele>249.397685</ele>
        <time>2021-06-26T20:10:07.688Z</time>
      </trkpt>
      <trkpt lat="45.6869" lon="5.04968">
        <ele>249.527686</ele>
        <time>2021-06-26T20:10:09.158Z</time>
      </trkpt>
      <trkpt lat="45.68699" lon="5.04937">
        <ele>249.846801</ele>
        <time>2021-06-26T20:10:12.613Z</time>
      </trkpt>
      <trkpt lat="45.6872" lon="5.04869">
        <ele>250.06749</ele>
        <time>2021-06-26T20:10:21.202Z</time>
      </trkpt>
      <trkpt lat="45.68722" lon="5.04862">
        <ele>250.084591</ele>
        <time>2021-06-26T20:10:22.247Z</time>
      </trkpt>
      <trkpt lat="45.68745" lon="5.04787">
        <ele>250.250017</ele>
        <time>2021-06-26T20:10:31.266Z</time>
      </trkpt>
      <trkpt lat="45.68759" lon="5.04741">
        <ele>250.351477</ele>
        <time>2021-06-26T20:10:36.510Z</time>
      </trkpt>
      <trkpt lat="45.68761" lon="5.04733">
        <ele>250.369623</ele>
        <time>2021-06-26T20:10:37.594Z</time>
      </trkpt>
      <trkpt lat="45.68766" lon="5.04716">
        <ele>250.406704</ele>
        <time>2021-06-26T20:10:39.724Z</time>
      </trkpt>
      <trkpt lat="45.68772" lon="5.04696">
        <ele>250.449988</ele>
        <time>2021-06-26T20:10:41.822Z</time>
      </trkpt>
      <trkpt lat="45.68792" lon="5.04631">
        <ele>250.58579</ele>
        <time>2021-06-26T20:10:50.120Z</time>
      </trkpt>
      <trkpt lat="45.68803" lon="5.04597">
        <ele>250.657966</ele>
        <time>2021-06-26T20:10:54.430Z</time>
      </trkpt>
      <trkpt lat="45.68817" lon="5.0455">
        <ele>250.753645</ele>
        <time>2021-06-26T20:11:00.316Z</time>
      </trkpt>
      <trkpt lat="45.68862" lon="5.04405">
        <ele>250.923687</ele>
        <time>2021-06-26T20:11:17.526Z</time>
      </trkpt>
      <trkpt lat="45.68923" lon="5.04205">
        <ele>250.770533</ele>
        <time>2021-06-26T20:11:39.566Z</time>
      </trkpt>
      <trkpt lat="45.68934" lon="5.04171">
        <ele>250.628387</ele>
        <time>2021-06-26T20:11:43.063Z</time>
      </trkpt>
      <trkpt lat="45.68943" lon="5.04141">
        <ele>250.506081</ele>
        <time>2021-06-26T20:11:46.154Z</time>
      </trkpt>
      <trkpt lat="45.68976" lon="5.0403">
        <ele>250.054129</ele>
        <time>2021-06-26T20:11:57.184Z</time>
      </trkpt>
      <trkpt lat="45.69" lon="5.03952">
        <ele>249.685288</ele>
        <time>2021-06-26T20:12:04.617Z</time>
      </trkpt>
      <trkpt lat="45.69034" lon="5.03837">
        <ele>249.055217</ele>
        <time>2021-06-26T20:12:15.948Z</time>
      </trkpt>
      <trkpt lat="45.69039" lon="5.03821">
        <ele>248.970738</ele>
        <time>2021-06-26T20:12:17.435Z</time>
      </trkpt>
      <trkpt lat="45.69044" lon="5.03806">
        <ele>248.883833</ele>
        <time>2021-06-26T20:12:19.040Z</time>
      </trkpt>
      <trkpt lat="45.69122" lon="5.03547">
        <ele>247.318622</ele>
        <time>2021-06-26T20:12:44.013Z</time>
      </trkpt>
      <trkpt lat="45.69158" lon="5.03428">
        <ele>246.334253</ele>
        <time>2021-06-26T20:12:55.065Z</time>
      </trkpt>
      <trkpt lat="45.69176" lon="5.03367">
        <ele>245.778081</ele>
        <time>2021-06-26T20:13:00.491Z</time>
      </trkpt>
      <trkpt lat="45.69217" lon="5.03236">
        <ele>244.547103</ele>
        <time>2021-06-26T20:13:12.278Z</time>
      </trkpt>
      <trkpt lat="45.69231" lon="5.03187">
        <ele>244.081286</ele>
        <time>2021-06-26T20:13:16.689Z</time>
      </trkpt>
      <trkpt lat="45.69238" lon="5.03165">
        <ele>243.872889</ele>
        <time>2021-06-26T20:13:18.663Z</time>
      </trkpt>
      <trkpt lat="45.69249" lon="5.0313">
        <ele>243.539688</ele>
        <time>2021-06-26T20:13:21.804Z</time>
      </trkpt>
      <trkpt lat="45.69255" lon="5.0311">
        <ele>243.348229</ele>
        <time>2021-06-26T20:13:23.598Z</time>
      </trkpt>
      <trkpt lat="45.69257" lon="5.03104">
        <ele>243.290287</ele>
        <time>2021-06-26T20:13:24.114Z</time>
      </trkpt>
      <trkpt lat="45.69281" lon="5.03025">
        <ele>242.587928</ele>
        <time>2021-06-26T20:13:31.318Z</time>
      </trkpt>
      <trkpt lat="45.69292" lon="5.02988">
        <ele>242.373372</ele>
        <time>2021-06-26T20:13:34.757Z</time>
      </trkpt>
      <trkpt lat="45.693" lon="5.02962">
        <ele>242.218952</ele>
        <time>2021-06-26T20:13:37.259Z</time>
      </trkpt>
      <trkpt lat="45.69319" lon="5.02969">
        <ele>242.068656</ele>
        <time>2021-06-26T20:13:39.768Z</time>
      </trkpt>
      <trkpt lat="45.69354" lon="5.02983">
        <ele>241.784682</ele>
        <time>2021-06-26T20:13:44.443Z</time>
      </trkpt>
      <trkpt lat="45.69356" lon="5.0297">
        <ele>241.714041</ele>
        <time>2021-06-26T20:13:46.126Z</time>
      </trkpt>
      <trkpt lat="45.69363" lon="5.02912">
        <ele>241.394302</ele>
        <time>2021-06-26T20:13:53.696Z</time>
      </trkpt>
      <trkpt lat="45.69375" lon="5.02887">
        <ele>241.272829</ele>
        <time>2021-06-26T20:13:57.495Z</time>
      </trkpt>
      <trkpt lat="45.69396" lon="5.02857">
        <ele>241.21779</ele>
        <time>2021-06-26T20:14:03.176Z</time>
      </trkpt>
      <trkpt lat="45.69375" lon="5.02887">
        <ele>241.162751</ele>
        <time>2021-06-26T20:14:09.272Z</time>
      </trkpt>
      <trkpt lat="45.69363" lon="5.02912">
        <ele>241.123908</ele>
        <time>2021-06-26T20:14:13.804Z</time>
      </trkpt>
      <trkpt lat="45.69356" lon="5.0297">
        <ele>241.047905</ele>
        <time>2021-06-26T20:14:22.634Z</time>
      </trkpt>
      <trkpt lat="45.69354" lon="5.02983">
        <ele>241.031113</ele>
        <time>2021-06-26T20:14:24.488Z</time>
      </trkpt>
      <trkpt lat="45.69357" lon="5.02984">
        <ele>241.025645</ele>
        <time>2021-06-26T20:14:24.900Z</time>
      </trkpt>
      <trkpt lat="45.69361" lon="5.02986">
        <ele>241.017887</ele>
        <time>2021-06-26T20:14:25.501Z</time>
      </trkpt>
      <trkpt lat="45.69366" lon="5.02987">
        <ele>241.009951</ele>
        <time>2021-06-26T20:14:26.182Z</time>
      </trkpt>
      <trkpt lat="45.69392" lon="5.02997">
        <ele>240.960791</ele>
        <time>2021-06-26T20:14:29.887Z</time>
      </trkpt>
      <trkpt lat="45.69409" lon="5.03003">
        <ele>240.765482</ele>
        <time>2021-06-26T20:14:32.257Z</time>
      </trkpt>
      <trkpt lat="45.69432" lon="5.03011">
        <ele>240.467695</ele>
        <time>2021-06-26T20:14:35.238Z</time>
      </trkpt>
      <trkpt lat="45.69436" lon="5.03013">
        <ele>240.417407</ele>
        <time>2021-06-26T20:14:35.793Z</time>
      </trkpt>
      <trkpt lat="45.69461" lon="5.0302">
        <ele>240.097748</ele>
        <time>2021-06-26T20:14:38.934Z</time>
      </trkpt>
      <trkpt lat="45.6949" lon="5.0303">
        <ele>239.726494</ele>
        <time>2021-06-26T20:14:42.387Z</time>
      </trkpt>
      <trkpt lat="45.69503" lon="5.03035">
        <ele>239.563779</ele>
        <time>2021-06-26T20:14:43.876Z</time>
      </trkpt>
      <trkpt lat="45.69515" lon="5.03039">
        <ele>239.401267</ele>
        <time>2021-06-26T20:14:45.364Z</time>
      </trkpt>
      <trkpt lat="45.69518" lon="5.03031">
        <ele>239.322657</ele>
        <time>2021-06-26T20:14:46.382Z</time>
      </trkpt>
      <trkpt lat="45.69527" lon="5.03034">
        <ele>239.20675</ele>
        <time>2021-06-26T20:14:47.433Z</time>
      </trkpt>
      <trkpt lat="45.69558" lon="5.03044">
        <ele>238.812075</ele>
        <time>2021-06-26T20:14:51.026Z</time>
      </trkpt>
      <trkpt lat="45.69587" lon="5.03054">
        <ele>238.319922</ele>
        <time>2021-06-26T20:14:54.313Z</time>
      </trkpt>
      <trkpt lat="45.69608" lon="5.03055">
        <ele>237.954286</ele>
        <time>2021-06-26T20:14:56.560Z</time>
      </trkpt>
      <trkpt lat="45.69619" lon="5.03052">
        <ele>237.738381</ele>
        <time>2021-06-26T20:14:57.826Z</time>
      </trkpt>
      <trkpt lat="45.69636" lon="5.03041">
        <ele>237.416583</ele>
        <time>2021-06-26T20:14:59.767Z</time>
      </trkpt>
      <trkpt lat="45.69671" lon="5.0301">
        <ele>236.681389</ele>
        <time>2021-06-26T20:15:04.264Z</time>
      </trkpt>
      <trkpt lat="45.69715" lon="5.02942">
        <ele>235.525066</ele>
        <time>2021-06-26T20:15:11.630Z</time>
      </trkpt>
      <trkpt lat="45.69756" lon="5.02903">
        <ele>235.07051</ele>
        <time>2021-06-26T20:15:17.594Z</time>
      </trkpt>
      <trkpt lat="45.6976" lon="5.0289">
        <ele>234.977951</ele>
        <time>2021-06-26T20:15:18.904Z</time>
      </trkpt>
      <trkpt lat="45.69763" lon="5.02885">
        <ele>234.936632</ele>
        <time>2021-06-26T20:15:19.442Z</time>
      </trkpt>
      <trkpt lat="45.69774" lon="5.02873">
        <ele>234.814432</ele>
        <time>2021-06-26T20:15:21.320Z</time>
      </trkpt>
      <trkpt lat="45.69783" lon="5.02862">
        <ele>234.713925</ele>
        <time>2021-06-26T20:15:22.768Z</time>
      </trkpt>
      <trkpt lat="45.6979" lon="5.02853">
        <ele>234.627734</ele>
        <time>2021-06-26T20:15:23.949Z</time>
      </trkpt>
      <trkpt lat="45.69827" lon="5.02797">
        <ele>234.15404</ele>
        <time>2021-06-26T20:15:30.902Z</time>
      </trkpt>
      <trkpt lat="45.69841" lon="5.02774">
        <ele>233.959688</ele>
        <time>2021-06-26T20:15:33.617Z</time>
      </trkpt>
      <trkpt lat="45.69874" lon="5.02726">
        <ele>233.69725</ele>
        <time>2021-06-26T20:15:39.672Z</time>
      </trkpt>
      <trkpt lat="45.69959" lon="5.02625">
        <ele>233.139627</ele>
        <time>2021-06-26T20:15:54.138Z</time>
      </trkpt>
      <trkpt lat="45.69964" lon="5.02629">
        <ele>233.109267</ele>
        <time>2021-06-26T20:15:54.823Z</time>
      </trkpt>
      <trkpt lat="45.69965" lon="5.02628">
        <ele>233.102573</ele>
        <time>2021-06-26T20:15:55.045Z</time>
      </trkpt>
      <trkpt lat="45.69969" lon="5.02623">
        <ele>233.076704</ele>
        <time>2021-06-26T20:15:55.850Z</time>
      </trkpt>
      <trkpt lat="45.6997" lon="5.02624">
        <ele>233.067458</ele>
        <time>2021-06-26T20:15:56.176Z</time>
      </trkpt>
      <trkpt lat="45.69985" lon="5.02624">
        <ele>232.991301</ele>
        <time>2021-06-26T20:15:58.377Z</time>
      </trkpt>
      <trkpt lat="45.69992" lon="5.02605">
        <ele>232.997783</ele>
        <time>2021-06-26T20:16:00.280Z</time>
      </trkpt>
      <trkpt lat="45.69991" lon="5.02601">
        <ele>232.998942</ele>
        <time>2021-06-26T20:16:00.727Z</time>
      </trkpt>
      <trkpt lat="45.69998" lon="5.02596">
        <ele>233.002577</ele>
        <time>2021-06-26T20:16:02.515Z</time>
      </trkpt>
      <trkpt lat="45.70103" lon="5.02483">
        <ele>233.060134</ele>
        <time>2021-06-26T20:16:29.567Z</time>
      </trkpt>
      <trkpt lat="45.70161" lon="5.024">
        <ele>233.051525</ele>
        <time>2021-06-26T20:16:47.168Z</time>
      </trkpt>
      <trkpt lat="45.70214" lon="5.02298">
        <ele>233.023608</ele>
        <time>2021-06-26T20:17:04.948Z</time>
      </trkpt>
      <trkpt lat="45.70257" lon="5.02227">
        <ele>232.850516</ele>
        <time>2021-06-26T20:17:17.274Z</time>
      </trkpt>
      <trkpt lat="45.70308" lon="5.02161">
        <ele>232.515942</ele>
        <time>2021-06-26T20:17:30.252Z</time>
      </trkpt>
      <trkpt lat="45.70317" lon="5.02148">
        <ele>232.455565</ele>
        <time>2021-06-26T20:17:32.457Z</time>
      </trkpt>
      <trkpt lat="45.70327" lon="5.02126">
        <ele>232.367524</ele>
        <time>2021-06-26T20:17:35.883Z</time>
      </trkpt>
      <trkpt lat="45.70338" lon="5.02088">
        <ele>232.228175</ele>
        <time>2021-06-26T20:17:41.120Z</time>
      </trkpt>
      <trkpt lat="45.70339" lon="5.02068">
        <ele>232.160842</ele>
        <time>2021-06-26T20:17:43.698Z</time>
      </trkpt>
      <trkpt lat="45.70338" lon="5.02062">
        <ele>232.140922</ele>
        <time>2021-06-26T20:17:44.339Z</time>
      </trkpt>
      <trkpt lat="45.70339" lon="5.02068">
        <ele>232.113814</ele>
        <time>2021-06-26T20:17:45.132Z</time>
      </trkpt>
      <trkpt lat="45.70338" lon="5.02088">
        <ele>232.017001</ele>
        <time>2021-06-26T20:17:47.758Z</time>
      </trkpt>
      <trkpt lat="45.70327" lon="5.02126">
        <ele>231.816639</ele>
        <time>2021-06-26T20:17:53.053Z</time>
      </trkpt>
      <trkpt lat="45.70317" lon="5.02148">
        <ele>231.690051</ele>
        <time>2021-06-26T20:17:56.583Z</time>
      </trkpt>
      <trkpt lat="45.70319" lon="5.02151">
        <ele>231.672944</ele>
        <time>2021-06-26T20:17:56.991Z</time>
      </trkpt>
      <trkpt lat="45.70335" lon="5.02163">
        <ele>231.542852</ele>
        <time>2021-06-26T20:18:00.414Z</time>
      </trkpt>
      <trkpt lat="45.70513" lon="5.02087">
        <ele>229.74867</ele>
        <time>2021-06-26T20:18:33.107Z</time>
      </trkpt>
      <trkpt lat="45.70528" lon="5.02064">
        <ele>229.469132</ele>
        <time>2021-06-26T20:18:36.830Z</time>
      </trkpt>
      <trkpt lat="45.70558" lon="5.02017">
        <ele>228.910471</ele>
        <time>2021-06-26T20:18:44.156Z</time>
      </trkpt>
      <trkpt lat="45.70749" lon="5.01786">
        <ele>225.291434</ele>
        <time>2021-06-26T20:19:24.624Z</time>
      </trkpt>
      <trkpt lat="45.70845" lon="5.01716">
        <ele>224.299657</ele>
        <time>2021-06-26T20:19:43.718Z</time>
      </trkpt>
      <trkpt lat="45.71206" lon="5.01536">
        <ele>223.702299</ele>
        <time>2021-06-26T20:21:00.287Z</time>
      </trkpt>
      <trkpt lat="45.71281" lon="5.01483">
        <ele>223.164331</ele>
        <time>2021-06-26T20:21:15.637Z</time>
      </trkpt>
      <trkpt lat="45.71336" lon="5.01435">
        <ele>222.743631</ele>
        <time>2021-06-26T20:21:27.132Z</time>
      </trkpt>
      <trkpt lat="45.71356" lon="5.01408">
        <ele>222.564613</ele>
        <time>2021-06-26T20:21:31.963Z</time>
      </trkpt>
      <trkpt lat="45.71377" lon="5.01372">
        <ele>222.294789</ele>
        <time>2021-06-26T20:21:37.658Z</time>
      </trkpt>
      <trkpt lat="45.71391" lon="5.01349">
        <ele>222.114258</ele>
        <time>2021-06-26T20:21:41.337Z</time>
      </trkpt>
      <trkpt lat="45.71452" lon="5.01262">
        <ele>221.375228</ele>
        <time>2021-06-26T20:21:56.506Z</time>
      </trkpt>
      <trkpt lat="45.71497" lon="5.01214">
        <ele>220.947524</ele>
        <time>2021-06-26T20:22:06.510Z</time>
      </trkpt>
      <trkpt lat="45.71566" lon="5.01154">
        <ele>220.624493</ele>
        <time>2021-06-26T20:22:21.863Z</time>
      </trkpt>
      <trkpt lat="45.7161" lon="5.01101">
        <ele>220.394383</ele>
        <time>2021-06-26T20:22:32.797Z</time>
      </trkpt>
      <trkpt lat="45.71657" lon="5.01033">
        <ele>220.222686</ele>
        <time>2021-06-26T20:22:45.745Z</time>
      </trkpt>
      <trkpt lat="45.71672" lon="5.01007">
        <ele>220.189347</ele>
        <time>2021-06-26T20:22:50.473Z</time>
      </trkpt>
      <trkpt lat="45.71682" lon="5.00993">
        <ele>220.170563</ele>
        <time>2021-06-26T20:22:53.072Z</time>
      </trkpt>
      <trkpt lat="45.71717" lon="5.00948">
        <ele>220.105529</ele>
        <time>2021-06-26T20:23:02.380Z</time>
      </trkpt>
      <trkpt lat="45.7173" lon="5.00932">
        <ele>220.080764</ele>
        <time>2021-06-26T20:23:05.999Z</time>
      </trkpt>
      <trkpt lat="45.71777" lon="5.00882">
        <ele>219.996267</ele>
        <time>2021-06-26T20:23:17.624Z</time>
      </trkpt>
      <trkpt lat="45.71798" lon="5.0086">
        <ele>219.956133</ele>
        <time>2021-06-26T20:23:22.569Z</time>
      </trkpt>
      <trkpt lat="45.71814" lon="5.0084">
        <ele>219.922033</ele>
        <time>2021-06-26T20:23:26.835Z</time>
      </trkpt>
      <trkpt lat="45.71823" lon="5.00825">
        <ele>219.900527</ele>
        <time>2021-06-26T20:23:29.597Z</time>
      </trkpt>
      <trkpt lat="45.71858" lon="5.00775">
        <ele>219.823039</ele>
        <time>2021-06-26T20:23:39.584Z</time>
      </trkpt>
      <trkpt lat="45.71862" lon="5.0077">
        <ele>219.814963</ele>
        <time>2021-06-26T20:23:40.621Z</time>
      </trkpt>
      <trkpt lat="45.71872" lon="5.00752">
        <ele>219.789795</ele>
        <time>2021-06-26T20:23:44.031Z</time>
      </trkpt>
      <trkpt lat="45.71889" lon="5.00732">
        <ele>219.756001</ele>
        <time>2021-06-26T20:23:48.113Z</time>
      </trkpt>
      <trkpt lat="45.71898" lon="5.00718">
        <ele>219.721618</ele>
        <time>2021-06-26T20:23:50.562Z</time>
      </trkpt>
      <trkpt lat="45.71909" lon="5.00703">
        <ele>219.640584</ele>
        <time>2021-06-26T20:23:53.408Z</time>
      </trkpt>
      <trkpt lat="45.71913" lon="5.00698">
        <ele>219.615246</ele>
        <time>2021-06-26T20:23:54.377Z</time>
      </trkpt>
      <trkpt lat="45.71946" lon="5.00654">
        <ele>219.382157</ele>
        <time>2021-06-26T20:24:02.580Z</time>
      </trkpt>
      <trkpt lat="45.71956" lon="5.00644">
        <ele>219.318626</ele>
        <time>2021-06-26T20:24:05.050Z</time>
      </trkpt>
      <trkpt lat="45.71965" lon="5.00636">
        <ele>219.266906</ele>
        <time>2021-06-26T20:24:06.721Z</time>
      </trkpt>
      <trkpt lat="45.72003" lon="5.00614">
        <ele>219.057524</ele>
        <time>2021-06-26T20:24:14.363Z</time>
      </trkpt>
      <trkpt lat="45.72006" lon="5.00612">
        <ele>219.038826</ele>
        <time>2021-06-26T20:24:14.934Z</time>
      </trkpt>
      <trkpt lat="45.72009" lon="5.00613">
        <ele>219.024936</ele>
        <time>2021-06-26T20:24:15.466Z</time>
      </trkpt>
      <trkpt lat="45.72012" lon="5.00612">
        <ele>219.010648</ele>
        <time>2021-06-26T20:24:16.002Z</time>
      </trkpt>
      <trkpt lat="45.72014" lon="5.0061">
        <ele>218.99681</ele>
        <time>2021-06-26T20:24:16.545Z</time>
      </trkpt>
      <trkpt lat="45.72014" lon="5.00606">
        <ele>218.982956</ele>
        <time>2021-06-26T20:24:17.141Z</time>
      </trkpt>
      <trkpt lat="45.72014" lon="5.00602">
        <ele>218.968671</ele>
        <time>2021-06-26T20:24:17.693Z</time>
      </trkpt>
      <trkpt lat="45.72013" lon="5.006">
        <ele>218.95928</ele>
        <time>2021-06-26T20:24:18.095Z</time>
      </trkpt>
      <trkpt lat="45.72011" lon="5.00599">
        <ele>218.950107</ele>
        <time>2021-06-26T20:24:18.495Z</time>
      </trkpt>
      <trkpt lat="45.72012" lon="5.00594">
        <ele>218.932207</ele>
        <time>2021-06-26T20:24:19.044Z</time>
      </trkpt>
      <trkpt lat="45.72028" lon="5.00534">
        <ele>218.697272</ele>
        <time>2021-06-26T20:24:27.577Z</time>
      </trkpt>
      <trkpt lat="45.72039" lon="5.00493">
        <ele>218.535425</ele>
        <time>2021-06-26T20:24:33.138Z</time>
      </trkpt>
      <trkpt lat="45.72051" lon="5.00453">
        <ele>218.368947</ele>
        <time>2021-06-26T20:24:38.699Z</time>
      </trkpt>
      <trkpt lat="45.72054" lon="5.0044">
        <ele>218.31985</ele>
        <time>2021-06-26T20:24:40.456Z</time>
      </trkpt>
      <trkpt lat="45.72061" lon="5.00412">
        <ele>218.208932</ele>
        <time>2021-06-26T20:24:44.099Z</time>
      </trkpt>
      <trkpt lat="45.72064" lon="5.00397">
        <ele>218.149236</ele>
        <time>2021-06-26T20:24:46.078Z</time>
      </trkpt>
      <trkpt lat="45.72082" lon="5.00361">
        <ele>217.985734</ele>
        <time>2021-06-26T20:24:51.868Z</time>
      </trkpt>
      <trkpt lat="45.72095" lon="5.00335">
        <ele>217.866698</ele>
        <time>2021-06-26T20:24:56.064Z</time>
      </trkpt>
      <trkpt lat="45.72104" lon="5.00308">
        <ele>217.782085</ele>
        <time>2021-06-26T20:25:00.117Z</time>
      </trkpt>
      <trkpt lat="45.72105" lon="5.00305">
        <ele>217.772883</ele>
        <time>2021-06-26T20:25:00.590Z</time>
      </trkpt>
      <trkpt lat="45.72105" lon="5.00302">
        <ele>217.766122</ele>
        <time>2021-06-26T20:25:00.916Z</time>
      </trkpt>
      <trkpt lat="45.72118" lon="5.00261">
        <ele>217.643495</ele>
        <time>2021-06-26T20:25:07.037Z</time>
      </trkpt>
      <trkpt lat="45.72115" lon="5.00245">
        <ele>217.600861</ele>
        <time>2021-06-26T20:25:09.087Z</time>
      </trkpt>
      <trkpt lat="45.72108" lon="5.00241">
        <ele>217.572279</ele>
        <time>2021-06-26T20:25:10.483Z</time>
      </trkpt>
      <trkpt lat="45.72101" lon="5.00238">
        <ele>217.545284</ele>
        <time>2021-06-26T20:25:11.832Z</time>
      </trkpt>
      <trkpt lat="45.721" lon="5.00219">
        <ele>217.495678</ele>
        <time>2021-06-26T20:25:14.254Z</time>
      </trkpt>
      <trkpt lat="45.72115" lon="5.00167">
        <ele>217.343616</ele>
        <time>2021-06-26T20:25:21.672Z</time>
      </trkpt>
      <trkpt lat="45.72119" lon="5.00152">
        <ele>217.300817</ele>
        <time>2021-06-26T20:25:23.768Z</time>
      </trkpt>
      <trkpt lat="45.72131" lon="5.00113">
        <ele>217.185081</ele>
        <time>2021-06-26T20:25:29.376Z</time>
      </trkpt>
      <trkpt lat="45.72137" lon="5.001">
        <ele>217.162295</ele>
        <time>2021-06-26T20:25:31.479Z</time>
      </trkpt>
      <trkpt lat="45.72154" lon="5.00062">
        <ele>217.162295</ele>
        <time>2021-06-26T20:25:37.286Z</time>
      </trkpt>
      <trkpt lat="45.72157" lon="5.00054">
        <ele>217.162295</ele>
        <time>2021-06-26T20:25:38.481Z</time>
      </trkpt>
      <trkpt lat="45.72165" lon="5.00032">
        <ele>217.162295</ele>
        <time>2021-06-26T20:25:41.799Z</time>
      </trkpt>
      <trkpt lat="45.7218" lon="4.99981">
        <ele>217.162295</ele>
        <time>2021-06-26T20:25:49.501Z</time>
      </trkpt>
      <trkpt lat="45.72183" lon="4.99969">
        <ele>217.162295</ele>
        <time>2021-06-26T20:25:51.184Z</time>
      </trkpt>
      <trkpt lat="45.72121" lon="4.99921">
        <ele>217.162295</ele>
        <time>2021-06-26T20:26:01.510Z</time>
      </trkpt>
      <trkpt lat="45.72117" lon="4.99918">
        <ele>217.162295</ele>
        <time>2021-06-26T20:26:02.231Z</time>
      </trkpt>
      <trkpt lat="45.72111" lon="4.99912">
        <ele>217.162295</ele>
        <time>2021-06-26T20:26:03.253Z</time>
      </trkpt>
      <trkpt lat="45.72109" lon="4.99919">
        <ele>217.162295</ele>
        <time>2021-06-26T20:26:04.277Z</time>
      </trkpt>
      <trkpt lat="45.72118" lon="4.99927">
        <ele>217.162295</ele>
        <time>2021-06-26T20:26:06.044Z</time>
      </trkpt>
      <trkpt lat="45.72131" lon="4.99939">
        <ele>217.162295</ele>
        <time>2021-06-26T20:26:08.313Z</time>
      </trkpt>
    </trkseg>
  </trk>
</gpx>